[[{"header":{"parameterUnit":"m.s-1","parameterCategory":1,"la1":30.6,"la2":29.2853,"lo1":-89.7004,"lo2":-87.6739,"dy":0.0162,"dx":0.0183,"nx":112,"ny":82,"refTime":"2025-01-11T06:00:00:Z","depth":0,"parameterNumber":2,"parameterNumberName":"U-component_of_WINDS"},"data":[0.0,0.0,0.0,0.0,0.0,0.0,0.0,0.0,0.0,0.0,0.0,0.0,0.0,0.0,0.0,0.0,0.0,0.0,0.0,0.0,0.0,0.0,0.0,0.0,0.0,0.0,0.0,0.0,0.0,0.0,0.0,0.0,0.0,0.0,0.0,0.0,0.0,0.0,0.0,0.0,0.0,0.0,0.0,0.0,0.0,0.0,0.0,0.0,0.0,0.0,0.0,0.0,0.0,0.0,0.0,0.0,0.0,0.0,0.0,0.0,0.0,0.0,0.0,0.0,0.0,0.0,0.0,0.0,0.0,0.0,0.0,0.0,0.0,0.0,0.0,0.0,0.0,0.0,0.0,0.0,0.0,0.0,0.0,0.0,0.0,0.0,0.0,0.0,0.0,0.0,0.7373,0.8253,0.7481,0.6634,0.596,0.5896,0.5478,0.4483,0.0,0.0,0.0,0.0,0.0,0.0,0.0,0.0,0.0,0.0,0.0,0.0,0.0,0.0,0.0,0.0,0.0,0.0,0.0,0.0,0.0,0.0,0.0,0.0,0.0,0.0,0.0,0.0,0.0,0.0,0.0,0.0,0.0,0.0,0.0,0.0,0.0,0.0,0.0,0.0,0.0,0.0,0.0,0.0,0.0,0.0,0.0,0.0,0.0,0.0,0.0,0.0,0.0,0.0,0.0,0.0,0.0,0.0,0.0,0.0,0.0,0.0,0.0,0.0,0.0,0.0,0.0,0.0,0.0,0.0,0.0,0.0,0.0,0.0,0.0,0.0,0.0,0.0,0.0,0.0,0.0,0.0,0.0,0.0,0.0,0.0,0.0,0.0,0.0,0.0,0.0,0.0,0.0,0.0,0.0,0.0,0.0,0.0,0.0,0.0,0.0,0.0,0.0,0.0,0.6995,0.7588,0.72,0.6634,0.596,0.5896,0.5636,0.5015,0.0,0.0,0.0,0.0,0.0,0.0,0.0,0.0,0.0,0.0,0.0,0.0,0.0,0.0,0.0,0.0,0.0,0.0,0.0,0.0,0.0,0.0,0.0,0.0,0.0,0.0,0.0,0.0,0.0,0.0,0.0,0.0,0.0,0.0,0.0,0.0,0.0,0.0,0.0,0.0,0.0,0.0,0.0,0.0,0.0,0.0,0.0,0.0,0.0,0.0,0.0,0.0,0.0,0.0,0.0,0.0,0.0,0.0,0.0,0.0,0.0,0.0,0.0,0.0,0.0,0.0,0.0,0.0,0.0,0.0,0.0,0.0,0.0,0.0,0.0,0.0,0.0,0.0,0.0,0.0,0.0,0.0,0.0,0.0,0.0,0.0,0.0,0.0,0.0,0.0,0.0,0.0,0.0,0.0,0.0,0.0,0.0,0.0,0.0,0.0,0.0,0.0,0.0,0.7862,0.7464,0.7497,0.7038,0.6548,0.61,0.5964,0.573,0.5339,0.4428,0.0,0.0,0.0,0.0,0.0,0.0,0.0,0.0,0.0,0.0,0.0,0.0,0.0,0.0,0.0,0.0,0.0,0.0,0.0,0.0,0.0,0.0,0.0,0.0,0.0,0.0,0.0,0.0,0.0,0.0,0.0,0.0,0.0,0.0,0.0,0.0,0.0,0.0,0.0,0.0,0.0,0.0,0.0,0.0,0.0,0.0,0.0,0.0,0.0,0.0,0.0,0.0,0.0,0.0,0.0,0.0,0.0,0.0,0.0,0.0,0.0,0.0,0.0,0.0,0.0,0.0,0.0,0.0,0.0,0.0,0.0,0.0,0.0,0.0,0.0,0.0,0.0,0.0,0.0,0.0,0.0,0.0,0.0,0.0,0.0,0.0,0.0,0.0,0.0,0.0,0.0,0.0,0.0,0.0,0.0,0.0,0.0,0.0,0.0,0.0,0.0,0.0,0.8439,0.7929,0.7473,0.6931,0.6474,0.6156,0.5985,0.5758,0.543,0.446,0.0,0.0,0.0,0.0,0.0,0.0,0.0,0.0,0.0,0.0,0.0,0.0,0.0,0.0,0.0,0.0,0.0,0.0,0.0,0.0,0.0,0.0,0.0,0.0,0.0,0.0,0.0,0.0,0.0,0.0,0.0,0.0,0.0,0.0,0.0,0.0,0.0,0.0,0.0,0.0,0.0,0.0,0.0,0.0,0.0,0.0,0.0,0.0,0.0,0.0,0.0,0.0,0.0,0.0,0.0,0.0,0.0,0.0,0.0,0.0,0.0,0.0,0.0,0.0,0.0,0.0,0.0,0.0,0.0,0.0,0.0,0.0,0.0,0.0,0.0,0.0,0.0,0.0,0.0,0.0,0.0,0.0,0.0,0.0,0.0,0.0,0.0,0.0,0.0,0.0,0.0,0.0,0.0,0.0,0.0,0.0,0.0,0.0,0.0,0.0,0.0,0.0,0.7984,0.7875,0.7283,0.6848,0.6419,0.596,0.5905,0.5678,0.5156,0.4357,0.0,0.0,0.0,0.0,0.0,0.0,0.0,0.0,0.0,0.0,0.0,0.0,0.0,0.0,0.0,0.0,0.0,0.0,0.0,0.0,0.0,0.0,0.0,0.0,0.0,0.0,0.0,0.0,0.0,0.0,0.0,0.0,0.0,0.0,0.0,0.0,0.0,0.0,0.0,0.0,0.0,0.0,0.0,0.0,0.0,0.0,0.0,0.0,0.0,0.0,0.0,0.0,0.0,0.0,0.0,0.0,0.0,0.0,0.0,0.0,0.0,0.0,0.0,0.0,0.0,0.0,0.0,0.0,0.0,0.0,0.0,0.0,0.0,0.0,0.0,0.0,0.0,0.0,0.0,0.0,0.0,0.0,0.0,0.0,0.0,0.0,0.0,0.0,0.0,0.0,0.0,0.0,0.0,0.0,0.0,0.0,0.0,0.0,0.0,0.0,0.0,0.0,0.8271,0.7875,0.7267,0.6689,0.6283,0.61,0.5817,0.5558,0.5358,0.0,0.0,0.0,0.0,0.0,0.0,0.0,0.0,0.0,0.0,0.0,0.0,0.0,0.0,0.0,0.0,0.0,0.0,0.0,0.0,0.0,0.0,0.0,0.0,0.0,0.0,0.0,0.0,0.0,0.0,0.0,0.0,0.0,0.0,0.0,0.0,0.0,0.0,0.0,0.0,0.0,0.0,0.0,0.0,0.0,0.0,0.0,0.0,0.0,0.0,0.0,0.0,0.0,0.0,0.0,0.0,0.0,0.0,0.0,0.0,0.0,0.0,0.0,0.0,0.0,0.0,0.0,0.0,0.0,0.0,0.0,0.0,0.0,0.0,0.0,0.0,0.0,0.0,0.0,0.0,0.0,0.0,0.0,0.0,0.0,0.0,0.0,0.0,0.0,0.0,0.0,0.0,0.0,0.0,0.0,0.0,0.0,0.0,0.0,0.0,0.0,0.0,0.8484,0.8301,0.7875,0.7267,0.66,0.6177,0.6112,0.5734,0.5411,0.5202,0.0,0.0,0.0,0.0,0.0,0.0,0.0,0.0,0.0,0.0,0.0,0.0,0.0,0.0,0.0,0.0,0.0,0.0,0.0,0.0,0.0,0.0,0.0,0.0,0.0,0.0,0.0,0.0,0.0,0.0,0.0,0.0,0.0,0.0,0.0,0.0,0.0,0.0,0.0,0.0,0.0,0.0,0.0,0.0,0.0,0.0,0.0,0.0,0.0,0.0,0.0,0.0,0.0,0.0,0.0,0.0,0.0,0.0,0.0,0.0,0.0,0.0,0.0,0.0,0.0,0.0,0.0,0.0,0.0,0.0,0.0,0.0,0.0,0.0,0.0,0.0,0.0,0.0,0.0,0.0,0.0,0.0,0.0,0.0,0.0,0.0,0.0,0.0,0.0,0.0,0.0,0.0,0.0,0.0,0.0,0.0,0.0,0.0,0.0,0.0,0.0,0.0,0.7674,0.7934,0.7875,0.7267,0.66,0.6112,0.5914,0.5657,0.5212,0.0,0.0,0.0,0.0,0.0,0.0,0.0,0.0,0.0,0.0,0.0,0.0,0.0,0.0,0.0,0.0,0.0,0.0,0.0,0.0,0.0,0.0,0.0,0.0,0.0,0.0,0.0,0.0,0.0,0.0,0.0,0.0,0.0,0.0,0.0,0.0,0.0,0.0,0.0,0.0,0.0,0.0,0.0,0.0,0.0,0.0,0.0,0.0,0.0,0.0,0.0,0.0,0.0,0.0,0.0,0.0,0.0,0.0,0.0,0.0,0.0,0.0,0.0,0.0,0.0,0.0,0.0,0.0,0.0,0.0,0.0,0.0,0.0,0.0,0.0,0.0,0.0,0.0,0.0,0.0,0.0,0.0,0.0,0.0,0.0,0.0,0.0,0.0,0.0,0.0,0.0,0.0,0.0,0.0,0.0,0.0,0.0,0.0,0.0,0.0,0.0,0.0,0.0,0.767,0.7934,0.7875,0.7267,0.647,0.5964,0.5905,0.5657,0.5249,0.4681,0.0,0.0,0.0,0.0,0.0,0.0,0.0,0.0,0.0,0.0,0.0,0.0,0.0,0.0,0.0,0.0,0.0,0.0,0.0,0.0,0.0,0.0,0.0,0.0,0.0,0.0,0.0,0.0,0.0,0.0,0.0,0.0,0.0,0.0,0.0,0.0,0.0,0.0,0.0,0.0,0.0,0.0,0.0,0.0,0.0,0.0,0.0,0.0,0.0,0.0,0.0,0.0,0.0,0.0,0.0,0.0,0.0,0.0,0.0,0.0,0.0,0.0,0.0,0.0,0.0,0.0,0.0,0.0,0.0,0.0,0.0,0.0,0.0,0.0,0.0,0.0,0.0,0.0,0.0,0.0,0.0,0.0,0.0,0.0,0.0,0.0,0.0,0.0,0.0,0.0,0.0,0.0,0.0,0.0,0.0,0.0,0.0,0.0,0.0,0.0,0.0,0.0,0.7242,0.7734,0.7875,0.7267,0.6496,0.6016,0.6016,0.5804,0.5444,0.4933,0.0,0.0,0.0,0.0,0.0,0.0,0.0,0.0,0.0,0.0,0.0,0.0,0.0,0.0,0.0,0.0,0.0,0.0,0.0,0.0,0.0,0.0,0.0,0.0,0.0,0.0,0.0,0.0,0.0,0.0,0.0,0.0,0.0,0.0,0.0,0.0,0.0,0.0,0.0,0.0,0.0,0.0,0.0,0.0,0.0,0.0,0.0,0.0,0.0,0.0,0.0,0.0,0.0,0.0,0.0,0.0,0.0,0.0,0.0,0.0,0.0,0.0,0.0,0.0,0.0,0.0,0.0,0.0,0.0,0.0,0.0,0.0,0.0,0.0,0.0,0.0,0.0,0.0,0.0,0.0,0.0,0.0,0.0,0.0,0.0,0.0,0.0,0.0,0.0,0.0,0.0,0.0,0.0,0.0,0.0,0.0,0.0,0.0,0.0,0.0,0.0,0.0,0.6679,0.7484,0.7875,0.7267,0.66,0.6204,0.6204,0.6034,0.5727,0.5248,0.0,0.0,0.0,0.0,0.0,0.0,0.0,0.0,0.0,0.0,0.0,0.0,0.0,0.0,0.0,0.0,0.0,0.0,0.0,0.0,0.0,0.0,0.0,0.0,0.0,0.0,0.0,0.0,0.0,0.0,0.0,0.0,0.0,0.0,0.0,0.0,0.0,0.0,0.0,0.0,0.0,0.0,0.0,0.0,0.0,0.0,0.0,0.0,0.0,0.0,0.0,0.0,0.0,0.0,0.0,0.0,0.0,0.0,0.0,0.0,0.2804,0.2461,0.0,0.0,0.0,0.0,0.0,0.0,0.0,0.0,0.0,0.0,0.0,0.0,0.0,0.0,0.0,0.0,0.0,0.0,0.0,0.0,0.0,0.0,0.0,0.0,0.0,0.0,0.0,0.0,0.0,0.0,0.0,0.0,0.0,0.0,0.0,0.0,0.0,0.0,0.0,0.0,0.7444,0.783,0.7875,0.7267,0.66,0.6204,0.6204,0.6159,0.591,0.5387,0.5473,0.0,0.0,0.0,0.0,0.0,0.0,0.0,0.0,0.0,0.0,0.0,0.0,0.0,0.0,0.0,0.0,0.0,0.0,0.0,0.0,0.0,0.0,0.0,0.0,0.0,0.0,0.0,0.0,0.0,0.0,0.0,0.0,0.0,0.0,0.0,0.0,0.0,0.0,0.0,0.0,0.0,0.0,0.0,0.0,0.0,0.0,0.0,0.0,0.0,0.0,0.0,0.0,0.0,0.0,0.0,0.0,0.0,0.0,0.0,0.3406,0.3162,0.0,0.0,0.0,0.0,0.0,0.0,0.0,0.0,0.0,0.0,0.0,0.0,0.0,0.0,0.0,0.0,0.0,0.0,0.0,0.0,0.0,0.0,0.0,0.0,0.0,0.0,0.0,0.0,0.0,0.0,0.0,0.0,0.0,0.0,0.0,0.0,0.0,0.0,0.0,0.0,0.7678,0.7934,0.7875,0.7267,0.672,0.6395,0.6395,0.6395,0.6276,0.5998,0.5868,0.0,0.0,0.0,0.0,0.0,0.0,0.0,0.0,0.0,0.0,0.0,0.0,0.0,0.0,0.0,0.0,0.0,0.0,0.0,0.0,0.0,0.0,0.0,0.0,0.0,0.0,0.0,0.0,0.0,0.0,0.0,0.0,0.0,0.0,0.0,0.0,0.0,0.0,0.0,0.0,0.0,0.0,0.0,0.0,0.0,0.0,0.0,0.0,0.0,0.0,0.0,0.0,0.0,0.5603,0.5362,0.4878,0.4909,0.4683,0.4258,0.42,0.4092,0.3932,0.3707,0.0,0.0,0.0,0.0,0.0,0.0,0.0,0.0,0.0,0.0,0.0,0.0,0.0,0.0,0.0,0.0,0.0,0.0,0.0,0.0,0.0,0.0,0.8201,0.8232,0.8255,0.8128,0.7567,0.0,0.0,0.0,0.0,0.0,0.0,0.0,0.0,0.0,0.0,0.0,0.7896,0.8017,0.7857,0.7267,0.6846,0.6599,0.6599,0.6599,0.6599,0.6599,0.6181,0.5894,0.0,0.0,0.0,0.0,0.0,0.0,0.0,0.0,0.0,0.0,0.0,0.0,0.0,0.0,0.0,0.0,0.0,0.0,0.0,0.0,0.0,0.0,0.0,0.0,0.0,0.0,0.0,0.0,0.0,0.0,0.0,0.0,0.3629,0.359,0.0,0.0,0.0,0.0,0.0,0.0,0.0,0.0,0.0,0.0,0.0,0.0,0.0,0.5365,0.5034,0.5559,0.5799,0.5762,0.5996,0.6066,0.5976,0.5583,0.5365,0.5301,0.5297,0.0,0.417,0.4367,0.0,0.0,0.0,0.0,0.0,0.0,0.0,0.0,0.0,0.0,0.0,0.0,0.0,0.0,0.0,0.0,0.0,0.0,0.0,0.0,0.0,0.0,0.8929,0.8823,0.8879,0.8941,0.886,0.7999,0.7203,0.7087,0.7222,0.732,0.0,0.0,0.0,0.0,0.0,0.0,0.8784,0.835,0.7803,0.7259,0.6846,0.6599,0.6599,0.6599,0.6599,0.6599,0.653,0.6288,0.582,0.5657,0.0,0.0,0.0,0.0,0.0,0.0,0.0,0.0,0.0,0.0,0.0,0.0,0.0,0.0,0.0,0.0,0.0,0.0,0.0,0.0,0.0,0.0,0.0,0.0,0.0,0.0,0.0,0.0,0.0,0.4005,0.3952,0.3734,0.4114,0.4341,0.0,0.0,0.0,0.0,0.0,0.0,0.0,0.0,0.0,0.6201,0.6067,0.5976,0.5946,0.6176,0.615,0.5865,0.598,0.5952,0.5802,0.5595,0.5421,0.5291,0.5595,0.5508,0.5152,0.5076,0.5048,0.5041,0.0,0.0,0.0,0.0,0.5577,0.5622,0.593,0.6032,0.5988,0.5708,0.0,0.0,0.0,0.0,0.0,0.0,0.0,0.8092,0.8345,0.8643,0.8829,0.866,0.8664,0.8738,0.8846,0.8465,0.8041,0.7857,0.7922,0.789,0.7504,0.7469,0.0,0.0,0.0,0.8523,0.8891,0.8388,0.7797,0.7259,0.6846,0.6599,0.6599,0.6599,0.6599,0.6599,0.6599,0.6493,0.6257,0.5957,0.5569,0.0,0.0,0.0,0.0,0.0,0.0,0.0,0.0,0.0,0.0,0.0,0.0,0.0,0.0,0.0,0.0,0.0,0.0,0.0,0.0,0.0,0.0,0.0,0.0,0.0,0.0,0.0,0.0,0.4374,0.4313,0.4083,0.4636,0.4889,0.0,0.0,0.0,0.0,0.0,0.0,0.6472,0.6102,0.6152,0.6729,0.651,0.641,0.65,0.6446,0.6248,0.5896,0.5832,0.5689,0.5502,0.543,0.533,0.5228,0.5697,0.5927,0.5957,0.5782,0.571,0.569,0.5484,0.5406,0.5464,0.5919,0.6086,0.6136,0.6533,0.6678,0.6634,0.6387,0.6582,0.6889,0.6775,0.0,0.0,0.0,0.0,0.817,0.8585,0.8661,0.8587,0.8433,0.8401,0.8439,0.8594,0.8703,0.872,0.8544,0.8588,0.8507,0.804,0.7975,0.0,0.8854,0.8746,0.8642,0.8827,0.8325,0.7756,0.7251,0.6846,0.6599,0.6599,0.6599,0.6599,0.6599,0.6599,0.6599,0.6599,0.6213,0.6063,0.6192,0.0,0.0,0.0,0.0,0.0,0.0,0.0,0.0,0.0,0.0,0.0,0.0,0.0,0.0,0.0,0.0,0.0,0.0,0.0,0.0,0.0,0.0,0.0,0.0,0.0,0.0,0.0,0.0,0.0,0.4744,0.5451,0.0,0.0,0.0,0.0,0.6381,0.627,0.6346,0.6667,0.6477,0.6525,0.6876,0.6695,0.6466,0.6221,0.6025,0.5924,0.5896,0.5648,0.5511,0.5492,0.5238,0.5253,0.5502,0.5782,0.6012,0.6204,0.6443,0.6538,0.6538,0.653,0.6518,0.6543,0.6764,0.6845,0.6845,0.6878,0.6884,0.6884,0.6868,0.7384,0.8073,0.8388,0.8576,0.0,0.0,0.8669,0.8544,0.8441,0.842,0.8414,0.8401,0.8401,0.8401,0.8414,0.8567,0.8772,0.9014,0.9215,0.9384,0.9468,0.0,0.9602,0.9645,0.948,0.9189,0.8761,0.8184,0.765,0.7242,0.6846,0.6599,0.6599,0.6599,0.6599,0.6599,0.6599,0.6599,0.6599,0.6574,0.6358,0.5927,0.6084,0.0,0.0,0.0,0.0,0.0,0.0,0.0,0.0,0.0,0.0,0.0,0.0,0.0,0.0,0.0,0.0,0.0,0.0,0.0,0.0,0.0,0.0,0.0,0.0,0.0,0.0,0.0,0.0,0.554,0.5949,0.0,0.5785,0.6581,0.7031,0.68,0.6943,0.7011,0.6956,0.6523,0.633,0.6448,0.6251,0.6021,0.5752,0.568,0.5558,0.5386,0.5286,0.5238,0.5238,0.5142,0.5151,0.5257,0.5529,0.5786,0.6025,0.6248,0.6444,0.6599,0.6599,0.6599,0.6608,0.6678,0.6704,0.6704,0.6704,0.6791,0.696,0.7348,0.776,0.815,0.8396,0.8503,0.8545,0.8545,0.851,0.8428,0.8252,0.8212,0.8187,0.8095,0.8075,0.8102,0.8186,0.8265,0.8382,0.8607,0.8952,0.9253,0.9385,0.9424,0.9441,0.9441,0.9199,0.8922,0.8674,0.8034,0.7502,0.7227,0.6846,0.6599,0.6599,0.6599,0.6599,0.6599,0.6599,0.6599,0.6599,0.6599,0.6583,0.6546,0.6387,0.5867,0.0,0.0,0.0,0.0,0.0,0.0,0.0,0.0,0.0,0.0,0.0,0.0,0.0,0.0,0.0,0.0,0.0,0.0,0.0,0.0,0.0,0.0,0.0,0.0,0.0,0.6311,0.6416,0.6072,0.6411,0.6538,0.6204,0.6873,0.7245,0.7051,0.712,0.7056,0.6809,0.6357,0.61,0.61,0.5881,0.568,0.5502,0.5411,0.5282,0.5098,0.5098,0.5098,0.5098,0.5098,0.5151,0.5243,0.5421,0.5693,0.6007,0.6147,0.6304,0.6477,0.6567,0.6599,0.6599,0.6599,0.6599,0.6624,0.6803,0.7204,0.7707,0.8104,0.8483,0.8801,0.8933,0.897,0.893,0.87,0.8603,0.8485,0.8126,0.8037,0.801,0.792,0.7899,0.7928,0.8009,0.807,0.8137,0.8273,0.8605,0.8905,0.904,0.9107,0.9137,0.9137,0.8946,0.8736,0.8555,0.7929,0.7419,0.7226,0.6846,0.6599,0.6599,0.6599,0.6599,0.6599,0.6599,0.6599,0.6599,0.6599,0.6695,0.6893,0.6569,0.6282,0.6037,0.0,0.0,0.0,0.0,0.0,0.0,0.0,0.0,0.0,0.0,0.0,0.0,0.0,0.0,0.0,0.0,0.0,0.0,0.0,0.0,0.0,0.0,0.0,0.7219,0.6856,0.6527,0.6332,0.6819,0.699,0.6546,0.7021,0.7275,0.7075,0.6683,0.6369,0.6165,0.597,0.5869,0.5869,0.5619,0.5492,0.5492,0.5228,0.5098,0.5098,0.5098,0.5108,0.5122,0.5122,0.5268,0.5525,0.5519,0.5774,0.6201,0.621,0.6218,0.6236,0.6483,0.659,0.659,0.6609,0.6628,0.673,0.7253,0.8168,0.9101,0.9111,0.9557,1.0087,1.0078,1.0078,0.994,0.9296,0.9016,0.8761,0.8102,0.7929,0.7929,0.7907,0.7899,0.7899,0.7899,0.8003,0.8096,0.8096,0.8253,0.8431,0.8567,0.8702,0.879,0.879,0.8776,0.0,0.8425,0.786,0.7411,0.7226,0.6846,0.6599,0.6599,0.6599,0.6599,0.6599,0.6599,0.6599,0.6599,0.6608,0.6712,0.6917,0.6707,0.6707,0.6911,0.0,0.0,0.0,0.0,0.0,0.0,0.0,0.0,0.0,0.0,0.0,0.0,0.0,0.0,0.0,0.0,0.0,0.0,0.0,0.0,0.0,0.7195,0.7069,0.6866,0.6779,0.6667,0.6463,0.6463,0.6486,0.6502,0.6475,0.6377,0.6173,0.5699,0.5325,0.5121,0.5059,0.503,0.503,0.5146,0.5209,0.5209,0.5142,0.5098,0.5098,0.5098,0.5273,0.5611,0.5611,0.581,0.6131,0.5845,0.5894,0.6223,0.6463,0.6502,0.6407,0.634,0.6312,0.6361,0.6802,0.7333,0.7879,0.8167,0.8628,0.9124,0.9269,0.9607,0.9912,0.9668,0.9589,0.9552,0.9367,0.9297,0.9167,0.8736,0.8627,0.8499,0.8012,0.7899,0.7899,0.7899,0.7935,0.7955,0.7955,0.7998,0.8122,0.8404,0.8485,0.851,0.851,0.8383,0.8266,0.8191,0.7658,0.7265,0.721,0.6846,0.6599,0.6599,0.6599,0.6599,0.6599,0.6599,0.6599,0.6599,0.6746,0.7008,0.7399,0.6878,0.6794,0.0,0.0,0.0,0.0,0.0,0.0,0.0,0.0,0.0,0.0,0.0,0.0,0.0,0.0,0.0,0.0,0.0,0.0,0.0,0.0,0.0,0.0,0.7159,0.6799,0.6348,0.639,0.6332,0.5956,0.5811,0.5789,0.5899,0.5565,0.5348,0.5337,0.4838,0.4539,0.4535,0.4532,0.4531,0.4531,0.479,0.4927,0.4927,0.504,0.52,0.539,0.539,0.5625,0.6051,0.6051,0.6172,0.6384,0.6147,0.6204,0.6467,0.6662,0.67,0.6641,0.0,0.0,0.0,0.0,0.8035,0.8658,0.8766,0.9173,0.9671,0.978,1.0056,1.0282,1.0087,1.0028,0.9999,0.9859,0.9817,0.9749,0.9411,0.9316,0.9218,0.8828,0.8738,0.8738,0.8738,0.8738,0.8738,0.8738,0.8506,0.0,0.8577,0.8424,0.8273,0.8273,0.8178,0.8103,0.8103,0.757,0.7202,0.7202,0.6846,0.6599,0.6599,0.6599,0.0,0.0,0.0,0.6642,0.6721,0.6921,0.0,0.0,0.0,0.0,0.0,0.0,0.0,0.0,0.8327,0.8203,0.0,0.0,0.0,0.0,0.0,0.0,0.0,0.0,0.0,0.0,0.0,0.0,0.0,0.0,0.0,0.0,0.6869,0.65,0.5663,0.5649,0.5543,0.5064,0.4987,0.4967,0.4967,0.4476,0.4263,0.4503,0.408,0.3912,0.4156,0.4258,0.0,0.0,0.0,0.482,0.482,0.5108,0.5458,0.5872,0.5872,0.6081,0.6472,0.6472,0.6496,0.654,0.6504,0.6636,0.6895,0.6895,0.6926,0.7011,0.7469,0.7695,0.781,0.8231,0.8737,0.9195,0.9195,0.0,0.0,1.0403,1.0624,1.0885,1.0861,1.0837,1.0786,1.053,1.0456,1.0386,1.0082,1.0002,0.998,0.9912,0.9897,0.9897,0.9897,0.9897,0.9897,0.9897,0.9421,0.9017,0.9017,0.8492,0.8076,0.8076,0.8076,0.8076,0.8076,0.7584,0.7234,0.7202,0.6856,0.0,0.6599,0.6599,0.6599,0.6599,0.6625,0.6723,0.6927,0.7136,0.7399,0.7744,0.7923,0.8221,0.8633,0.8633,0.9147,1.0085,0.8697,0.8155,0.0,0.0,0.0,0.0,0.0,0.0,0.0,0.0,0.0,0.0,0.0,0.0,0.0,0.0,0.0,0.7242,0.6631,0.5795,0.4724,0.4231,0.4095,0.4418,0.4264,0.4135,0.4135,0.3646,0.3356,0.3411,0.3315,0.3275,0.3331,0.4001,0.4385,0.4385,0.5165,0.5586,0.5586,0.5958,0.6189,0.6284,0.6284,0.0,0.6968,0.6968,0.7135,0.7423,0.7101,0.7149,0.7443,0.7443,0.7663,0.7971,0.7549,0.7678,0.8175,0.8733,0.9283,0.9742,0.9742,1.0032,1.0403,1.0403,1.0624,1.0849,1.0587,1.0508,0.0,1.0752,1.0794,1.078,1.066,1.0636,1.0501,1.0017,0.9897,0.9897,0.9897,0.9897,0.9897,0.9897,0.9794,0.9704,0.9704,0.8725,0.7934,0.7934,0.7934,0.7934,0.7934,0.7695,0.744,0.7226,0.6988,0.6774,0.6616,0.6599,0.6599,0.6599,0.6748,0.6929,0.713,0.7386,0.7882,0.8639,0.8694,0.9165,1.0087,1.0087,1.037,1.0868,0.9982,0.9907,0.0,0.0,0.0,0.0,0.0,0.0,0.0,0.0,0.0,0.0,0.0,0.719,0.7327,0.0,0.6974,0.6561,0.5716,0.4815,0.4016,0.3439,0.3202,0.3462,0.3386,0.3298,0.3298,0.2906,0.2716,0.289,0.2902,0.3014,0.3286,0.3874,0.4257,0.4399,0.5183,0.5508,0.5309,0.5828,0.6211,0.6455,0.6455,0.6783,0.7398,0.7398,0.7515,0.7686,0.7491,0.75,0.7656,0.7656,0.7788,0.8002,0.804,0.8234,0.8576,0.9261,0.9673,0.9899,0.9899,1.0008,1.0154,1.0154,1.0254,1.0367,1.0204,1.0154,1.0217,1.0558,1.0763,1.0915,1.102,1.1171,1.1219,1.0922,1.0847,1.0847,1.0847,1.0847,1.0847,1.0847,1.0585,1.0352,1.0352,0.9546,0.8903,0.8903,0.8903,0.8903,0.8903,0.8693,0.8443,0.8175,0.7703,0.7408,0.7442,0.7454,0.7389,0.7256,0.7604,0.7969,0.8338,0.8479,0.8815,0.9391,0.9398,0.9764,1.0503,1.0503,1.091,1.1688,1.1317,1.113,0.0,0.0,0.0,0.0,0.0,0.0,0.0,0.6345,0.6425,0.6531,0.69,0.7093,0.6748,0.6623,0.633,0.5602,0.4677,0.3881,0.3393,0.2904,0.2589,0.2535,0.2567,0.26,0.26,0.234,0.2272,0.2542,0.2726,0.3003,0.3438,0.3901,0.4258,0.4466,0.522,0.5419,0.5017,0.5709,0.6247,0.6615,0.6615,0.6994,0.77,0.77,0.77,0.77,0.7783,0.7768,0.77,0.7783,0.7768,0.7768,0.8517,0.8761,0.8808,0.9601,0.9899,0.9899,0.9899,0.9899,0.9899,0.9899,0.9899,0.9899,0.9899,0.9899,0.997,1.0304,1.0636,1.0961,1.123,1.1553,1.1797,1.1797,1.1797,1.1797,1.1797,1.1797,1.1797,1.1797,1.1361,1.0984,1.0984,1.0583,1.0191,0.9935,0.9897,0.9897,0.9897,0.9714,0.947,0.9206,0.8553,0.8177,0.8293,0.8305,0.8227,0.8065,0.8508,0.9,0.9475,0.9547,0.973,1.0077,1.0124,1.0399,1.0912,1.0953,1.1507,1.2508,1.2508,1.2169,0.4027,0.4598,0.5183,0.5853,0.5738,0.5787,0.0,0.7025,0.6879,0.7355,0.7317,0.7085,0.668,0.5942,0.524,0.4801,0.403,0.3302,0.2773,0.2445,0.2174,0.1935,0.211,0.2261,0.2261,0.2114,0.2033,0.2068,0.2801,0.3258,0.3323,0.4202,0.4724,0.4758,0.5809,0.6189,0.5774,0.6557,0.6976,0.7036,0.7036,0.7263,0.77,0.77,0.77,0.7715,0.8076,0.8033,0.7725,0.8091,0.8024,0.7768,0.8517,0.862,0.8472,0.9515,0.9899,0.9899,0.9899,0.9899,0.9899,0.9899,0.9899,0.9899,0.9899,0.9899,0.997,1.0304,1.0636,1.0961,1.123,1.1553,1.1797,1.1797,1.1797,1.1797,1.1797,1.1797,1.1797,1.1797,1.1738,1.1693,1.1693,1.1633,1.1199,1.0069,0.9897,0.9897,0.9897,0.9872,0.9749,0.9482,0.9165,0.8786,0.8335,0.8305,0.8393,0.8594,0.889,0.9189,0.9484,0.9732,1.0116,1.0686,1.0933,1.1491,1.2369,1.2598,1.2913,1.3278,1.3278,1.3235,0.4673,0.5335,0.5775,0.5896,0.5869,0.5915,0.6356,0.63,0.6176,0.6246,0.6079,0.5757,0.5244,0.4603,0.4057,0.3774,0.3149,0.262,0.2402,0.2137,0.1924,0.1815,0.1902,0.1968,0.1968,0.2233,0.2291,0.2022,0.3062,0.3678,0.3594,0.4361,0.4884,0.5087,0.5784,0.596,0.5554,0.611,0.6514,0.6751,0.6751,0.7083,0.77,0.77,0.7822,0.8048,0.7976,0.81,0.8326,0.8057,0.8109,0.8354,0.8472,0.8542,0.8698,0.9575,0.9783,0.9639,0.9835,0.9899,0.9899,0.9899,0.9899,0.9899,0.9899,0.9899,0.9925,1.0065,1.0347,1.0678,1.0989,1.1294,1.1564,1.1747,1.1797,1.1797,1.1797,1.1797,1.1797,1.1797,1.1797,1.1797,1.1797,1.1797,1.1618,1.1087,1.1004,1.1004,1.1004,1.1004,1.0682,0.9878,0.9826,0.943,0.8388,0.9058,0.9504,0.9461,1.0034,1.0523,1.0825,1.0957,1.1124,1.1375,1.1485,1.1898,1.2601,1.2714,1.2997,1.3405,1.3405,1.3405,0.4996,0.5514,0.5698,0.5432,0.547,0.5525,0.5333,0.5283,0.5204,0.4946,0.4711,0.4402,0.3915,0.341,0.3024,0.2872,0.2428,0.2086,0.2086,0.1924,0.1804,0.1804,0.1829,0.1912,0.2035,0.2475,0.2612,0.2273,0.3437,0.4126,0.4027,0.461,0.5042,0.529,0.5688,0.5707,0.5296,0.5703,0.6052,0.6336,0.6442,0.6869,0.7534,0.7652,0.7865,0.8119,0.7827,0.8071,0.8615,0.8086,0.8237,0.8775,0.8537,0.8592,0.8879,0.9522,0.9613,0.9455,0.9783,0.9899,0.9899,0.9899,0.9899,0.9899,0.9899,0.9899,0.9899,0.9899,1.0211,1.0569,1.0727,1.1092,1.1479,1.163,1.1725,1.1776,1.1681,1.1725,1.1776,1.1681,1.1743,1.1797,1.1797,1.1797,1.1797,1.1797,1.1797,1.1797,1.1797,1.1797,1.1431,1.0458,1.0472,1.0091,0.8971,0.9821,1.0357,1.0245,1.0906,1.1457,1.1787,1.1797,1.1797,1.1797,1.1873,1.2141,1.2601,1.2668,1.2952,1.3405,1.3405,1.3515,0.464,0.4687,0.4579,0.4309,0.4256,0.4256,0.4242,0.4246,0.4172,0.3905,0.3635,0.3381,0.317,0.2639,0.2237,0.2226,0.1999,0.1815,0.1815,0.1804,0.1804,0.1804,0.1913,0.2172,0.2632,0.2814,0.2891,0.2878,0.3927,0.4581,0.4574,0.5023,0.5286,0.5296,0.5688,0.5707,0.5296,0.5703,0.5901,0.5917,0.632,0.6725,0.7133,0.752,0.77,0.7715,0.77,0.7937,0.8313,0.829,0.8486,0.8803,0.8789,0.8789,0.8844,0.9262,0.9415,0.9455,0.9783,0.9899,0.9899,0.9899,0.9899,0.9899,0.9899,0.9899,0.9899,0.9899,1.0373,1.0806,1.0508,1.1101,1.1711,1.1393,1.1564,1.1714,1.1393,1.1575,1.1703,1.1382,1.1586,1.1797,1.1797,1.1797,1.1797,1.1797,1.1797,1.1797,1.1797,1.1797,1.1656,1.1297,1.1034,1.0745,1.0369,1.0383,1.0537,1.0845,1.1143,1.1457,1.1787,1.1797,1.1797,1.1797,1.2063,1.2314,1.2601,1.2861,1.3129,1.3405,1.3405,1.3786,0.3612,0.3553,0.343,0.2985,0.2868,0.2829,0.2651,0.2612,0.2519,0.2207,0.2244,0.2246,0.1958,0.192,0.1935,0.1935,0.1859,0.1827,0.1918,0.2204,0.2436,0.2524,0.2809,0.3056,0.321,0.3393,0.3498,0.3498,0.4468,0.4925,0.4618,0.5052,0.5296,0.5296,0.5432,0.5432,0.5296,0.5432,0.5765,0.6305,0.6968,0.7368,0.7505,0.7632,0.7851,0.8091,0.7807,0.8057,0.862,0.8393,0.8654,0.9155,0.8667,0.8773,0.9182,0.9048,0.9176,0.9455,0.9783,0.9899,0.9899,0.9899,0.9899,0.9899,0.9899,0.9899,0.9899,0.9899,1.0217,1.0587,1.0703,1.1092,1.1445,1.1337,1.1393,1.1389,1.1106,1.1253,1.1427,1.1326,1.1575,1.1797,1.1797,1.1797,1.1797,1.1797,1.1797,1.1797,1.1797,1.1797,1.167,1.1337,1.1219,1.1045,1.0751,1.0898,1.1043,1.1161,1.1457,1.1681,1.1805,1.1797,1.1797,1.1797,1.1894,1.2151,1.2601,1.2695,1.3225,1.4132,1.4132,1.4521,0.2625,0.2463,0.2286,0.1849,0.1732,0.169,0.1514,0.1482,0.1416,0.1199,0.1402,0.1595,0.1496,0.1736,0.1944,0.1944,0.1984,0.2013,0.1996,0.2442,0.2809,0.2885,0.3318,0.3669,0.3808,0.3976,0.4072,0.4013,0.4815,0.5166,0.4874,0.5135,0.5296,0.5296,0.5296,0.5296,0.5296,0.5296,0.5707,0.6503,0.7162,0.7554,0.77,0.77,0.7841,0.8076,0.7812,0.8123,0.8775,0.8435,0.8737,0.9335,0.8589,0.8751,0.9343,0.8953,0.913,0.9613,0.9822,0.9899,0.9899,0.9899,0.9899,0.9899,0.9899,0.9899,0.9899,0.9899,1.0229,1.06,1.0703,1.1103,1.1457,1.1337,1.1393,1.14,1.1106,1.1272,1.1445,1.1326,1.1575,1.1797,1.1797,1.1797,1.1797,1.1797,1.1797,1.1797,1.1797,1.1797,1.1714,1.1501,1.1371,1.123,1.1059,1.12,1.1303,1.1303,1.1608,1.1797,1.1797,1.1797,1.1797,1.1797,1.2048,1.2429,1.2987,1.3233,1.3885,1.4884,1.4884,1.5291,0.1725,0.1452,0.1186,0.0925,0.0848,0.0848,0.0848,0.0848,0.0848,0.0848,0.1083,0.1385,0.1714,0.1999,0.2182,0.2193,0.2306,0.2295,0.2045,0.2544,0.2945,0.2927,0.3483,0.4012,0.4379,0.4549,0.4578,0.4459,0.4975,0.5296,0.5296,0.5296,0.5296,0.5296,0.5296,0.5296,0.5296,0.534,0.575,0.6529,0.6935,0.7324,0.77,0.77,0.77,0.77,0.77,0.8095,0.872,0.8421,0.8709,0.9282,0.8575,0.8751,0.9343,0.8953,0.9264,0.9899,0.9899,0.9899,0.9899,0.9899,0.9899,0.9899,0.9899,0.9899,0.9899,0.9899,1.0373,1.0837,1.0508,1.1113,1.1721,1.1382,1.1534,1.1681,1.1348,1.1534,1.1681,1.1359,1.1575,1.1797,1.1797,1.1806,1.1802,1.1783,1.1835,1.185,1.1812,1.1797,1.1797,1.1797,1.1523,1.134,1.1369,1.1376,1.1383,1.1438,1.1733,1.1887,1.185,1.188,1.1887,1.185,1.2505,1.3137,1.3732,1.4364,1.5003,1.5615,1.5616,1.6033,0.0873,0.0677,0.0567,0.0291,0.0224,0.0224,0.0224,0.0224,0.0224,0.0224,0.0637,0.1092,0.1376,0.1689,0.1968,0.2174,0.2143,0.2112,0.215,0.2969,0.3479,0.3231,0.4222,0.4819,0.4578,0.4897,0.5102,0.5077,0.5218,0.5296,0.5296,0.5296,0.5296,0.5296,0.5296,0.5296,0.5296,0.5898,0.6442,0.6946,0.7359,0.7598,0.77,0.77,0.77,0.77,0.77,0.7807,0.8004,0.8214,0.8412,0.8561,0.837,0.8751,0.9343,0.8953,0.9264,0.9899,0.9899,0.9899,0.9899,0.9899,0.9899,0.9899,0.9899,0.9899,0.9899,0.9899,1.0373,1.0873,1.0787,1.1283,1.1721,1.1382,1.1371,1.1355,1.1059,1.1226,1.1393,1.1326,1.1575,1.1797,1.1797,1.1971,1.1949,1.1495,1.2238,1.26,1.1892,1.1797,1.1797,1.1797,1.1725,1.1874,1.2375,1.2412,1.2634,1.3134,1.3237,1.3069,1.2576,1.3024,1.3062,1.2549,1.3196,1.3721,1.4066,1.4237,1.4794,1.5685,1.5928,1.6442,0.0178,0.0134,0.019,0.0034,0.0,0.0,0.0,0.0,0.0,0.0,0.0481,0.098,0.1252,0.1794,0.2195,0.2193,0.2308,0.2355,0.2216,0.3128,0.3751,0.3616,0.4615,0.5198,0.4938,0.5147,0.5296,0.5296,0.5296,0.5296,0.5296,0.5296,0.5296,0.5296,0.5296,0.5388,0.557,0.6187,0.6695,0.7099,0.75,0.77,0.77,0.77,0.77,0.77,0.77,0.788,0.8195,0.8266,0.8491,0.8764,0.8584,0.8883,0.9375,0.9149,0.9416,0.9899,0.9899,0.9899,0.9899,0.9899,0.9899,0.9899,0.9899,0.9899,0.9899,0.9899,1.0373,1.0897,1.0897,1.1347,1.1747,1.1564,1.1736,1.1925,1.1776,1.2076,1.2311,1.2018,1.2104,1.2242,1.2242,1.2608,1.2789,1.2446,1.3004,1.3273,1.2742,1.2688,1.2688,1.2688,1.2688,1.283,1.3216,1.3246,1.3398,1.3775,1.3797,1.3625,1.3249,1.3608,1.3623,1.3253,1.3899,1.4397,1.468,1.4974,1.5493,1.6198,1.637,1.6686,-0.0334,-0.0201,0.0,0.0,0.0,0.0,0.0,-0.0022,-0.0045,-0.0011,0.0448,0.0924,0.1241,0.2,0.2513,0.2304,0.2553,0.2659,0.2311,0.3097,0.3753,0.3899,0.4682,0.5201,0.5201,0.5265,0.5296,0.5296,0.5296,0.5296,0.5296,0.5296,0.5296,0.5296,0.5296,0.5522,0.5975,0.632,0.6725,0.7178,0.7534,0.77,0.77,0.77,0.77,0.77,0.77,0.8071,0.8637,0.8393,0.8673,0.9228,0.8912,0.9041,0.9402,0.9402,0.9613,0.9899,0.9899,0.9899,0.9899,0.9899,0.9899,0.9899,0.9899,0.9899,0.9899,0.9899,1.0373,1.0897,1.0897,1.1412,1.1932,1.1932,1.2445,1.2924,1.2924,1.3391,1.3625,1.3044,1.2924,1.2924,1.2924,1.3443,1.3823,1.3746,1.3875,1.3957,1.388,1.3824,1.3797,1.3797,1.3797,1.3834,1.3937,1.3924,1.3969,1.4064,1.4072,1.4034,1.3944,1.4019,1.4014,1.3924,1.458,1.5072,1.5366,1.5947,1.638,1.6672,1.6712,1.6738,-0.039,-0.0201,0.0,0.0,0.0,0.0,0.0,-0.0168,0.0,-0.0045,0.0257,0.0656,0.1197,0.1664,0.2097,0.2546,0.2354,0.2262,0.257,0.2967,0.3264,0.3403,0.4188,0.4714,0.4714,0.5071,0.5296,0.5296,0.5296,0.5296,0.5296,0.5296,0.5296,0.5296,0.5296,0.5656,0.6381,0.6473,0.6869,0.7598,0.7666,0.77,0.77,0.77,0.77,0.77,0.77,0.7768,0.7904,0.8186,0.837,0.8514,0.8726,0.9041,0.9402,0.9402,0.9613,0.9899,0.9899,0.9899,0.9899,0.9899,0.9899,0.9899,0.9899,0.9899,0.9899,0.9899,1.0373,1.0897,1.0897,1.1759,1.2636,1.2636,1.3141,1.363,1.363,1.3715,1.3767,1.3653,1.363,1.363,1.363,1.3856,1.3899,1.3449,1.4246,1.471,1.428,1.3975,1.3797,1.3797,1.3797,1.4014,1.4586,1.4639,1.4863,1.5424,1.5454,1.52,1.464,1.5155,1.5185,1.4646,1.5275,1.5655,1.5704,1.5831,1.592,1.5983,1.626,1.6388,-0.0702,-0.0435,-0.0179,-0.0034,0.0,0.0,0.0,0.0,0.0,0.0,0.0213,0.0545,0.1,0.1588,0.2097,0.2391,0.2397,0.244,0.2675,0.3199,0.3592,0.3653,0.4436,0.4957,0.4957,0.5166,0.5296,0.5296,0.5296,0.5296,0.5296,0.5296,0.5296,0.5296,0.551,0.5901,0.6499,0.671,0.7112,0.77,0.77,0.77,0.77,0.77,0.77,0.77,0.77,0.7918,0.8284,0.8481,0.8781,0.9149,0.9304,0.9483,0.9666,0.9666,0.9757,0.9899,0.9899,0.9899,0.9899,0.9899,0.9899,0.9899,0.9899,0.9899,0.9899,0.9899,1.0628,1.1423,1.1423,1.2375,1.3316,1.3316,1.3825,1.4416,1.4773,1.4579,1.4318,1.4318,1.4318,1.4318,1.4318,1.4684,1.4903,1.4643,1.5087,1.5367,1.5108,1.4931,1.4841,1.4841,1.4841,1.4975,1.5282,1.532,1.5455,1.5776,1.5799,1.5656,1.5327,1.5634,1.5656,1.5334,1.5641,1.5799,1.5799,1.5799,1.5799,1.5799,1.5955,1.6032,-0.0993,-0.0658,-0.0335,-0.0067,0.0,0.0,0.0,-0.0268,0.0,-0.0067,0.0168,0.0433,0.0825,0.1609,0.2228,0.2294,0.2524,0.2711,0.2742,0.3377,0.3875,0.3951,0.4665,0.5198,0.5296,0.5296,0.5296,0.5296,0.5296,0.5296,0.5296,0.5296,0.5296,0.5296,0.5688,0.6095,0.6499,0.6905,0.7305,0.77,0.77,0.77,0.77,0.77,0.77,0.77,0.77,0.8086,0.8698,0.8775,0.9197,0.9796,0.9873,0.9899,0.9899,0.9899,0.9899,0.9899,0.9899,0.9899,0.9899,0.9899,0.9899,0.9899,0.9899,0.9899,0.9924,1.0044,1.088,1.1796,1.2025,1.2961,1.3938,1.4165,1.4639,1.5155,1.5694,1.5394,1.5013,1.5013,1.5013,1.5013,1.5013,1.5454,1.5799,1.5799,1.5799,1.5799,1.5799,1.5799,1.5799,1.5799,1.5799,1.5799,1.5799,1.5799,1.5799,1.5799,1.5799,1.5799,1.5799,1.5799,1.5799,1.5799,1.5799,1.5799,1.5799,1.5799,1.5799,1.5799,1.5799,1.5799,-0.1059,-0.0658,-0.0335,-0.0067,0.0,0.0,0.0,0.0,-0.0692,-0.0124,0.0022,0.021,0.0791,0.1609,0.0,0.0,0.0,0.2742,0.2868,0.3156,0.3479,0.3774,0.4319,0.4826,0.5261,0.5296,0.5296,0.5296,0.5296,0.5296,0.5296,0.5296,0.5296,0.5296,0.5688,0.6095,0.6499,0.6905,0.7305,0.77,0.77,0.77,0.77,0.77,0.77,0.77,0.77,0.7947,0.8365,0.867,0.9054,0.9481,0.9783,0.9899,0.9899,0.9899,0.9899,0.9899,0.9899,0.9899,0.9899,0.9899,0.9899,0.9899,0.9899,0.9899,1.0006,1.0494,1.0926,1.1469,1.2382,1.3347,1.4326,1.5376,1.5664,1.5724,1.5791,1.5754,1.5716,1.5716,1.5716,1.5716,1.5716,1.5761,1.5799,1.5799,1.5799,1.5799,1.5799,1.5799,1.5799,1.5799,1.5799,1.5799,1.5799,1.5799,1.5799,1.5799,1.5799,1.5799,1.5799,1.5799,1.5799,1.5799,1.5799,1.5799,1.5799,1.5799,1.5799,1.5799,1.5799,1.5799,-0.1261,-0.0926,-0.0624,-0.0313,-0.0123,0.0,0.0,-0.047,-0.0726,-0.0124,0.0,0.0232,0.0997,0.1717,0.2359,0.0,0.0,0.0,0.3121,0.3472,0.3801,0.401,0.4445,0.4866,0.5264,0.5296,0.5296,0.5296,0.5296,0.5296,0.5296,0.5296,0.5296,0.5296,0.5932,0.6336,0.6499,0.7147,0.7534,0.77,0.77,0.77,0.77,0.77,0.77,0.771,0.7952,0.8148,0.8328,0.8656,0.9041,0.9415,0.9547,0.9718,0.9899,0.9899,0.9899,0.9899,0.9899,0.9899,0.9899,0.9899,0.9899,0.9899,0.9899,0.9899,1.0012,1.0557,1.1222,1.1972,1.2682,1.3606,1.4512,1.5212,1.5195,1.5021,1.5021,1.521,1.5389,1.5389,1.561,1.5799,1.5799,1.5799,1.5799,1.5799,1.5799,1.5799,1.5799,1.5799,1.5799,1.5799,1.5799,1.5799,1.5799,1.5799,1.5799,1.5799,1.5799,1.5799,1.5799,1.5799,1.5799,1.5799,1.5799,1.5799,1.5799,1.5799,1.5799,1.5799,1.5799,1.5799,-0.1441,-0.1162,-0.0915,-0.0501,-0.0257,-0.0101,-0.0022,-0.0391,-0.0591,0.0,0.0122,0.0387,0.1285,0.1938,0.2511,0.0,0.0,0.3222,0.3238,0.3673,0.397,0.388,0.4313,0.4739,0.5001,0.5196,0.5296,0.5296,0.5296,0.5296,0.5296,0.5296,0.5296,0.5296,0.596,0.6381,0.6499,0.7181,0.7583,0.77,0.77,0.77,0.77,0.77,0.7768,0.7894,0.8176,0.8351,0.8458,0.8698,0.8967,0.9235,0.9362,0.9541,0.977,0.986,0.9899,0.9924,1.0074,1.0137,1.0175,1.0345,1.0395,1.0395,1.0395,1.0282,1.025,1.0808,1.1798,1.2785,1.3176,1.3889,1.4564,1.486,1.4705,1.4501,1.4501,1.4721,1.496,1.5089,1.5374,1.5639,1.5784,1.5799,1.5799,1.5799,1.5799,1.5799,1.5799,1.5799,1.5799,1.5799,1.5799,1.5799,1.5799,1.5799,1.5799,1.5799,1.5799,1.5799,1.5799,1.5799,1.5799,1.5799,1.5799,1.5799,1.5799,1.5799,1.5799,1.5799,1.5799,1.5896,-0.155,-0.1298,-0.1151,-0.0546,-0.0401,-0.0323,-0.0056,-0.0213,-0.0256,0.0289,0.0401,0.0679,0.1625,0.2285,0.2786,0.3057,0.0,0.0,0.3138,0.3619,0.3774,0.3184,0.3758,0.4267,0.4393,0.4947,0.5296,0.5296,0.5296,0.5296,0.5296,0.5296,0.5296,0.5296,0.5688,0.6095,0.6499,0.6905,0.731,0.77,0.77,0.77,0.77,0.77,0.7909,0.8299,0.8299,0.8486,0.8797,0.8803,0.8803,0.8844,0.9249,0.9402,0.9442,0.9783,0.9899,0.9974,1.0513,1.0687,1.0795,1.1381,1.1584,1.1584,1.1584,1.1173,1.082,1.1418,1.2697,1.3881,1.3888,1.4198,1.4501,1.4517,1.4501,1.4501,1.4501,1.4501,1.4627,1.5021,1.5104,1.5247,1.5719,1.5799,1.5799,1.5799,1.5799,1.5799,1.5799,1.5799,1.5799,1.5799,1.5799,1.5799,1.5799,1.5799,1.5799,1.5799,1.5799,1.5799,1.5799,1.5799,1.5799,1.5799,1.5799,1.5799,1.5799,1.5799,1.5799,1.5799,1.5799,1.6114,-0.1725,-0.1338,-0.0982,-0.0792,-0.0435,-0.0101,-0.0022,-0.0067,-0.0022,0.0323,0.0731,0.1233,0.194,0.2568,0.3232,0.4003,0.3969,0.0,0.4095,0.4209,0.4201,0.4012,0.4561,0.497,0.501,0.5189,0.5296,0.5296,0.5296,0.5296,0.5296,0.5296,0.5296,0.5296,0.596,0.6362,0.6499,0.7176,0.7569,0.77,0.77,0.77,0.77,0.77,0.7923,0.8313,0.8542,0.8578,0.85,0.9006,0.9048,0.8816,0.8945,0.9297,0.9731,0.96,0.9705,0.9981,1.0506,1.0694,1.0808,1.1399,1.1603,1.1603,1.1603,1.1477,1.1431,1.1989,1.276,1.3503,1.3818,1.3759,1.3692,1.4009,1.3835,1.3615,1.3615,1.3868,1.414,1.4262,1.4721,1.5149,1.5307,1.5595,1.5799,1.5799,1.6151,1.6428,1.6428,1.6817,1.6914,1.6465,1.617,1.5948,1.5807,1.5799,1.5799,1.5799,1.5799,1.5799,1.5799,1.5799,1.5799,1.5799,1.5799,1.5799,1.5799,1.6211,1.6652,1.7109,1.7109,1.7198,0.0,-0.1181,-0.087,-0.0747,-0.0424,-0.0101,0.0101,0.0245,0.0455,0.0844,0.1313,0.1851,0.2559,0.2994,0.3521,0.4351,0.4283,0.426,0.4691,0.4552,0.438,0.4334,0.4696,0.498,0.5027,0.5198,0.5296,0.5296,0.5296,0.5296,0.5296,0.5296,0.5372,0.5522,0.6018,0.6427,0.6725,0.7221,0.7549,0.77,0.77,0.77,0.77,0.77,0.799,0.85,0.8706,0.8767,0.0,0.9214,0.9087,0.8629,0.8748,0.9008,0.931,0.9369,0.9534,0.9805,1.0478,1.0858,1.1128,1.1713,1.204,1.2203,1.2203,1.2065,1.2015,1.2551,1.2935,1.326,1.3564,1.3425,1.326,1.3564,1.3408,1.3198,1.3198,1.3425,1.3692,1.3868,1.4478,1.5064,1.5425,1.5883,1.6283,1.6488,1.6839,1.7085,1.7085,1.7436,1.7533,1.7122,1.6666,1.6353,1.6227,1.6031,1.5973,1.6121,1.6136,1.6136,1.6136,1.5919,1.5904,1.6136,1.6136,1.6256,1.6525,1.6883,1.7287,1.7713,1.796,1.808,0.0,-0.0814,-0.0792,-0.0479,-0.0367,-0.0211,0.0289,0.0688,0.0,0.168,0.2044,0.2519,0.3343,0.3518,0.3713,0.4291,0.4381,0.4527,0.4968,0.4677,0.4389,0.4293,0.4394,0.4517,0.4642,0.5052,0.5296,0.5296,0.5296,0.5309,0.534,0.5309,0.5507,0.5975,0.596,0.632,0.7089,0.7129,0.7324,0.77,0.77,0.77,0.77,0.77,0.808,0.8761,0.8789,0.9013,0.9362,0.9415,0.8992,0.837,0.8684,0.8634,0.8455,0.912,0.9388,0.9566,1.0459,1.1121,1.1682,1.2262,1.2795,1.3198,1.3198,1.2841,1.2557,1.3054,1.3198,1.3198,1.3198,1.3198,1.3198,1.3198,1.3198,1.3198,1.3198,1.3198,1.3335,1.3821,1.4346,1.4993,1.5893,1.6541,1.7064,1.7568,1.7718,1.7781,1.7781,1.7818,1.7826,1.7781,1.7279,1.6913,1.6894,1.6441,1.6326,1.6686,1.6748,1.6771,1.6771,1.6234,1.6196,1.6756,1.6771,1.7107,1.7781,1.7781,1.7803,1.7863,1.8485,1.8777,0.0556,0.0,-0.0501,-0.0423,-0.0089,0.0245,0.0,0.1011,0.0,0.0,0.0,0.0,0.0,0.3668,0.4097,0.4996,0.5135,0.5184,0.5295,0.4955,0.4791,0.5007,0.5065,0.5107,0.5128,0.5233,0.5296,0.5296,0.5296,0.5432,0.575,0.5463,0.5765,0.6785,0.6514,0.6602,0.7101,0.7402,0.7598,0.77,0.77,0.77,0.77,0.77,0.7961,0.843,0.8684,0.8858,0.8981,0.9549,0.935,0.8684,0.8775,0.8945,0.9133,0.8986,0.9297,0.9932,1.1013,1.1475,1.1751,1.2707,1.3091,1.3198,1.3198,1.311,1.3035,1.316,1.3198,1.3198,1.3198,1.3198,1.3198,1.3198,1.3198,1.3198,1.3198,1.3198,1.3369,1.3944,1.4401,1.49,1.5542,1.6348,1.6938,1.7064,1.7875,1.8453,1.8453,1.8912,1.9031,1.8513,1.7716,1.7109,1.693,1.6785,1.675,1.6848,1.7233,1.7458,1.7458,1.7332,1.7325,1.7458,1.7458,1.7787,1.8453,1.8453,1.8732,1.9226,1.9401,1.9468,0.1166,0.0645,0.02,0.02,0.0511,0.0855,0.101,0.0,0.0,0.0,0.0,0.0,0.0,0.0,0.4553,0.5443,0.5586,0.5597,0.5626,0.544,0.5303,0.5292,0.5296,0.5296,0.5296,0.5296,0.5296,0.5296,0.5296,0.54,0.5613,0.5597,0.596,0.68,0.6796,0.6963,0.7362,0.7588,0.77,0.77,0.77,0.77,0.77,0.77,0.7923,0.8313,0.8486,0.8767,0.9095,0.931,0.9157,0.8789,0.8634,0.8703,0.8911,0.9102,0.9534,1.0183,1.1236,1.1751,1.2102,1.2939,1.3198,1.3198,1.3198,1.3198,1.3198,1.3198,1.3198,1.3198,1.3198,1.3198,1.3198,1.3198,1.3198,1.3198,1.3198,1.3416,1.3715,1.4028,1.4668,1.533,1.5876,1.6591,1.7255,1.7745,1.8371,1.8881,1.9134,1.9483,1.9565,1.9196,1.8264,1.7712,1.7809,1.7593,1.7411,1.7365,1.7863,1.8162,1.8162,1.7863,1.7832,1.8147,1.8453,1.8799,1.9159,1.9159,1.9338,1.97,1.97,1.97,0.1529,0.131,0.1157,0.1058,0.1211,0.1463,0.0,0.0,0.0,0.0,0.0,0.0,0.0,0.4558,0.4954,0.5685,0.5811,0.5859,0.5971,0.589,0.5691,0.534,0.5296,0.5296,0.5296,0.5296,0.5296,0.5296,0.5296,0.5328,0.5388,0.5719,0.611,0.6575,0.692,0.7295,0.7695,0.77,0.77,0.77,0.77,0.77,0.77,0.77,0.7885,0.8219,0.8276,0.8654,0.9214,0.8912,0.8775,0.8692,0.8407,0.8328,0.8474,0.9298,0.9889,1.0403,1.1391,1.2071,1.2601,1.3048,1.3198,1.3198,1.3198,1.3198,1.3198,1.3198,1.3198,1.3198,1.3198,1.3198,1.3198,1.3198,1.3198,1.3229,1.3328,1.374,1.4154,1.4305,1.5072,1.5875,1.6415,1.7002,1.7727,1.8631,1.893,1.9188,1.9646,1.97,1.97,1.97,1.8734,1.8315,1.8848,1.8419,1.8098,1.805,1.8551,1.8852,1.8852,1.8304,1.8267,1.8844,1.9398,1.97,1.97,1.97,1.97,1.97,1.97,1.97,0.2148,0.2235,0.23,0.1789,0.1697,0.1797,0.0,0.0,0.0,0.0,0.0,0.0,0.0,0.472,0.501,0.569,0.5852,0.6004,0.6358,0.5825,0.5372,0.5312,0.5296,0.5296,0.5296,0.5296,0.5296,0.5296,0.5296,0.5447,0.5797,0.587,0.6244,0.698,0.7069,0.7295,0.7695,0.77,0.77,0.77,0.77,0.77,0.77,0.77,0.7729,0.7812,0.8148,0.837,0.8491,0.8712,0.8629,0.8365,0.8328,0.8472,0.8795,0.9386,1.0035,1.0787,1.1889,1.2632,1.3085,1.3173,1.3198,1.3198,1.3198,1.3198,1.3198,1.3198,1.3198,1.3198,1.3198,1.3198,1.3198,1.3198,1.3198,1.3341,1.3858,1.4022,1.4368,1.528,1.558,1.5879,1.6408,1.7314,1.802,1.8197,1.9006,1.9603,1.9682,1.97,1.97,1.97,1.8734,1.8315,1.8848,1.8419,1.828,1.8718,1.9258,1.9558,1.9558,1.9461,1.9446,1.9533,1.9655,1.97,1.97,1.97,1.97,1.97,1.97,1.97,0.2686,0.2799,0.288,0.2749,0.2614,0.2532,0.0,0.0,0.0,0.0,0.0,0.0,0.0,0.4874,0.5204,0.5757,0.5884,0.5961,0.6148,0.5672,0.5296,0.5296,0.5296,0.5296,0.5296,0.5296,0.5296,0.5296,0.5296,0.5388,0.557,0.5991,0.6393,0.677,0.7206,0.7515,0.7695,0.77,0.77,0.77,0.77,0.77,0.77,0.77,0.77,0.771,0.7894,0.8105,0.8299,0.8232,0.8237,0.8271,0.8062,0.8317,0.8948,1.0214,1.1085,1.1705,1.2258,1.2785,1.3163,1.2902,1.2995,1.3198,1.3198,1.3198,1.3198,1.3198,1.3198,1.3198,1.3198,1.3198,1.3198,1.3198,1.3441,1.3759,1.4028,1.4557,1.5104,1.5593,1.5932,1.6199,1.6456,1.6915,1.7429,1.8,1.8516,1.905,1.9628,1.97,1.97,1.97,1.9006,1.8753,1.9288,1.8829,1.8753,1.9306,1.9566,1.97,1.97,1.97,1.97,1.97,1.97,1.97,1.97,1.97,1.97,1.97,1.97,1.97,0.3046,0.3194,0.3326,0.0,0.0,0.0,0.0,0.0,0.0,0.0,0.0,0.0,0.4692,0.5009,0.5384,0.5824,0.5898,0.5901,0.5901,0.5554,0.5296,0.5296,0.5296,0.5296,0.5296,0.5388,0.5404,0.5312,0.5388,0.5447,0.5447,0.611,0.6544,0.6635,0.7338,0.77,0.77,0.77,0.77,0.77,0.77,0.77,0.77,0.77,0.77,0.77,0.77,0.788,0.8134,0.7827,0.788,0.8134,0.7827,0.831,0.9374,1.0879,1.1845,1.2423,1.2365,1.2579,1.2832,1.2579,1.2744,1.3053,1.3163,1.3198,1.3198,1.3198,1.3198,1.3198,1.3198,1.3198,1.3198,1.3198,1.3671,1.4135,1.4267,1.5022,1.5737,1.5863,1.6227,1.6494,1.6494,1.6595,1.6972,1.7787,1.8138,1.8574,1.9406,1.9621,1.97,1.97,1.9225,1.9069,1.9486,1.9244,1.9269,1.9664,1.97,1.97,1.97,1.97,1.97,1.97,1.97,1.97,1.97,1.97,1.97,1.97,1.97,1.97,0.3089,0.3468,0.3782,0.0,0.0,0.0,0.0,0.0,0.0,0.0,0.0,0.0,0.4784,0.5118,0.5504,0.5846,0.5902,0.5901,0.5901,0.5554,0.5296,0.5296,0.5296,0.5296,0.5296,0.5644,0.5703,0.5328,0.5644,0.5855,0.5855,0.6263,0.6676,0.7039,0.7471,0.77,0.77,0.77,0.77,0.77,0.77,0.77,0.77,0.77,0.77,0.77,0.77,0.771,0.7739,0.771,0.7715,0.7739,0.771,0.8789,1.0417,1.0736,1.1546,1.2437,1.2,1.1866,1.1975,1.2377,1.252,1.2632,1.3071,1.3198,1.3198,1.3198,1.3198,1.3198,1.3198,1.3198,1.3198,1.3198,1.3671,1.4248,1.4739,1.5292,1.5844,1.6343,1.6469,1.6494,1.6494,1.6915,1.7271,1.7347,1.8197,1.8874,1.8949,1.9387,1.97,1.97,1.9225,1.893,1.8949,1.9387,1.9664,1.97,1.97,1.97,1.97,1.97,1.97,1.97,1.97,1.97,1.97,1.97,1.97,1.97,1.97,1.97,0.3471,0.3804,0.0,0.0,0.0,0.0,0.0,0.0,0.0,0.0,0.0,0.0,0.5021,0.5174,0.5327,0.5495,0.5522,0.5522,0.5522,0.54,0.5296,0.5296,0.5296,0.5296,0.5296,0.5432,0.5463,0.5309,0.5672,0.5901,0.5901,0.6514,0.695,0.7099,0.7486,0.77,0.77,0.77,0.77,0.77,0.77,0.77,0.77,0.77,0.77,0.77,0.77,0.77,0.77,0.77,0.77,0.7725,0.7981,0.85,0.9249,1.0144,1.0759,1.1199,1.1651,1.1993,1.2264,1.2449,1.2709,1.2966,1.3146,1.3198,1.3198,1.3198,1.3198,1.3198,1.3198,1.3198,1.3297,1.3677,1.4198,1.4733,1.5286,1.5819,1.6249,1.6456,1.6494,1.6494,1.6494,1.6674,1.6915,1.725,1.7646,1.8158,1.881,1.9088,1.9325,1.9664,1.9522,1.9406,1.9406,1.9584,1.97,1.97,1.97,1.97,1.97,1.97,1.97,1.97,1.97,1.97,1.97,1.97,1.97,1.97,1.97,1.97,0.3632,0.3964,0.0,0.0,0.0,0.0,0.0,0.0,0.0,0.0,0.468,0.4795,0.516,0.5072,0.5018,0.5261,0.5296,0.5296,0.5296,0.5296,0.5296,0.5296,0.5296,0.5296,0.5296,0.5416,0.5432,0.5312,0.5793,0.6083,0.6083,0.6736,0.7163,0.729,0.7554,0.77,0.77,0.77,0.77,0.77,0.77,0.77,0.77,0.77,0.77,0.77,0.77,0.77,0.77,0.77,0.77,0.7739,0.8143,0.8579,0.9108,0.997,1.0491,1.0878,1.1557,1.1896,1.2078,1.2395,1.272,1.3019,1.3163,1.3198,1.3198,1.3198,1.3198,1.3198,1.3198,1.3198,1.3353,1.3959,1.4507,1.5041,1.5574,1.6132,1.6494,1.6494,1.6494,1.6494,1.6494,1.6494,1.6616,1.6993,1.7188,1.7626,1.8535,1.8791,1.905,1.9406,1.9442,1.9442,1.9442,1.9442,1.9522,1.9682,1.97,1.97,1.97,1.97,1.97,1.97,1.97,1.97,1.97,1.97,1.97,1.97,1.97,1.97,0.3498,0.3899,0.0,0.0,0.0,0.0,0.0,0.0,0.0,0.0,0.4412,0.4589,0.5189,0.4806,0.4603,0.5199,0.5296,0.5296,0.5296,0.5296,0.5296,0.5296,0.5296,0.5296,0.5296,0.566,0.5738,0.5328,0.6052,0.6499,0.6499,0.689,0.7295,0.7681,0.77,0.77,0.77,0.77,0.77,0.77,0.77,0.77,0.77,0.77,0.77,0.77,0.77,0.77,0.77,0.77,0.77,0.7739,0.8134,0.9192,1.0466,1.0349,1.0917,1.1787,1.1792,1.1455,1.1183,1.2186,1.2508,1.2591,1.3053,1.3198,1.3198,1.3198,1.3198,1.3198,1.3198,1.3198,1.3359,1.3965,1.4519,1.5047,1.558,1.6132,1.6494,1.6494,1.6494,1.6494,1.6494,1.6494,1.6494,1.6494,1.6951,1.749,1.802,1.8574,1.8912,1.8912,1.8912,1.8912,1.8893,1.8893,1.9125,1.9646,1.9682,1.97,1.97,1.97,1.97,1.97,1.97,1.97,1.97,1.97,1.97,1.97,1.97,1.97,0.3758,0.0,0.0,0.0,0.0,0.0,0.0,0.0,0.0,0.0,0.5035,0.5089,0.5263,0.5152,0.5092,0.5266,0.5296,0.5296,0.5296,0.5296,0.5296,0.5296,0.5296,0.5296,0.5296,0.5404,0.5435,0.5312,0.6052,0.6499,0.6499,0.7147,0.7583,0.7695,0.77,0.77,0.77,0.77,0.77,0.77,0.77,0.77,0.77,0.77,0.77,0.77,0.77,0.77,0.77,0.77,0.77,0.771,0.7836,0.8349,0.905,0.9293,0.9986,1.0918,1.156,1.1915,1.2168,1.2797,1.2995,1.3019,1.3163,1.3198,1.3198,1.3198,1.3198,1.3198,1.3198,1.3515,1.3966,1.4538,1.5072,1.5605,1.6158,1.6381,1.6494,1.6494,1.6494,1.6494,1.6494,1.6494,1.6494,1.6494,1.6637,1.707,1.798,1.8893,1.9468,1.9468,1.9468,1.9306,1.893,1.9244,1.9207,1.8612,1.9288,1.97,1.97,1.97,1.97,1.97,1.97,1.97,1.97,1.97,1.97,1.97,1.97,1.97,0.3854,0.0,0.0,0.0,0.0,0.4361,0.4594,0.0,0.0,0.0,0.5187,0.514,0.5273,0.5184,0.5144,0.5276,0.5296,0.5296,0.5296,0.5296,0.5296,0.5296,0.5296,0.5296,0.5296,0.5296,0.5296,0.5296,0.6052,0.6499,0.6499,0.726,0.77,0.77,0.77,0.77,0.77,0.77,0.77,0.77,0.77,0.77,0.77,0.77,0.77,0.77,0.77,0.77,0.77,0.77,0.77,0.77,0.77,0.8198,0.8967,0.9429,1.0167,1.1086,1.2034,1.2413,1.2579,1.3053,1.3198,1.3198,1.3198,1.3198,1.3198,1.3198,1.3198,1.3198,1.3198,1.3804,1.45,1.4828,1.5311,1.5844,1.6381,1.6494,1.6494,1.6494,1.6494,1.6494,1.6494,1.6494,1.6494,1.6494,1.6674,1.7132,1.798,1.8848,1.9387,1.9387,1.9387,1.9244,1.893,1.9207,1.9207,1.8753,1.9343,1.97,1.97,1.97,1.97,1.97,1.97,1.97,1.97,1.97,1.97,1.97,1.97,1.97,0.0,0.0,0.0,0.0,0.4687,0.0,0.4353,0.4595,0.489,0.5233,0.5067,0.4945,0.5246,0.5057,0.4952,0.5253,0.5296,0.5296,0.5296,0.5296,0.5296,0.5296,0.5296,0.5296,0.5296,0.5296,0.5309,0.5356,0.6068,0.6514,0.6559,0.7289,0.77,0.77,0.77,0.77,0.77,0.77,0.77,0.77,0.77,0.77,0.77,0.77,0.77,0.77,0.77,0.77,0.77,0.77,0.77,0.77,0.7739,0.8557,0.9759,1.029,1.107,1.1999,1.2838,1.289,1.2626,1.3053,1.3198,1.3198,1.3198,1.3198,1.3198,1.3198,1.3198,1.3198,1.3198,1.4055,1.489,1.489,1.5355,1.5906,1.6387,1.6494,1.6494,1.6494,1.6494,1.6494,1.6494,1.6494,1.6494,1.6494,1.6951,1.749,1.802,1.8574,1.893,1.8968,1.8968,1.8949,1.8893,1.8949,1.9144,1.9522,1.9646,1.9682,1.9628,1.9664,1.97,1.97,1.97,1.97,1.97,1.97,1.97,1.97,1.97,1.97,0.0,0.4442,0.0,0.0,0.458,0.4323,0.4128,0.4452,0.489,0.5233,0.5243,0.5219,0.5286,0.5243,0.5223,0.5286,0.5296,0.5296,0.5296,0.5296,0.5296,0.5296,0.5296,0.5296,0.5296,0.5296,0.5432,0.575,0.6233,0.6635,0.695,0.7427,0.77,0.77,0.77,0.77,0.77,0.77,0.77,0.77,0.77,0.77,0.77,0.77,0.77,0.77,0.77,0.77,0.77,0.77,0.77,0.7725,0.8048,0.8796,0.9759,1.0183,1.1193,1.2377,1.2579,1.2838,1.3077,1.3163,1.3198,1.3198,1.3198,1.3198,1.3198,1.3198,1.3198,1.3198,1.3198,1.4055,1.489,1.489,1.5624,1.635,1.6475,1.6494,1.6494,1.6494,1.6494,1.6494,1.6494,1.6494,1.6494,1.6494,1.6951,1.749,1.802,1.8574,1.9069,1.9486,1.9522,1.9369,1.8949,1.9288,1.9225,1.8496,1.9225,1.9504,1.9088,1.9486,1.97,1.97,1.97,1.97,1.97,1.97,1.97,1.97,1.97,1.97,0.0,0.0,0.0,0.0,0.0,0.4134,0.4029,0.4218,0.4546,0.4977,0.518,0.5296,0.5296,0.5296,0.525,0.509,0.5055,0.502,0.4883,0.4874,0.491,0.505,0.5055,0.5124,0.528,0.5475,0.5672,0.5886,0.6453,0.6875,0.7084,0.7486,0.77,0.77,0.77,0.77,0.77,0.77,0.77,0.77,0.77,0.77,0.77,0.77,0.77,0.77,0.77,0.77,0.77,0.77,0.7807,0.8004,0.8214,0.8992,1.0032,1.0465,1.1433,1.2526,1.2762,1.3001,1.3198,1.3198,1.3198,1.3198,1.3198,1.3198,1.3198,1.3198,1.3198,1.3261,1.3559,1.4261,1.4953,1.5223,1.5906,1.6494,1.6494,1.6494,1.6494,1.6494,1.6494,1.6494,1.6494,1.6494,1.6494,1.6494,1.6951,1.749,1.802,1.8574,1.9106,1.9646,1.97,1.9486,1.8949,1.9387,1.9343,1.8535,1.9244,1.9566,1.9288,1.9548,1.97,1.97,1.97,1.97,1.97,1.97,1.97,1.97,1.97,1.97,0.0,0.0,0.0,0.0,0.3834,0.0,0.3846,0.3923,0.4134,0.4625,0.4982,0.5236,0.5286,0.5256,0.512,0.4847,0.4764,0.4648,0.4436,0.4402,0.4479,0.4704,0.4731,0.486,0.518,0.5576,0.5861,0.5994,0.6691,0.7133,0.7197,0.752,0.77,0.77,0.77,0.77,0.77,0.77,0.77,0.77,0.77,0.77,0.77,0.77,0.77,0.77,0.77,0.77,0.77,0.77,0.7937,0.8305,0.837,0.9226,1.0487,1.0933,1.1752,1.2685,1.3077,1.3198,1.3198,1.3198,1.3198,1.3198,1.3198,1.3198,1.3198,1.3198,1.3198,1.3341,1.394,1.45,1.5035,1.5561,1.6114,1.6494,1.6494,1.6494,1.6494,1.6494,1.6494,1.6494,1.6494,1.6494,1.6494,1.6494,1.6951,1.749,1.802,1.8574,1.9106,1.9646,1.97,1.9522,1.9088,1.9442,1.9504,1.9069,1.9442,1.97,1.97,1.97,1.97,1.97,1.97,1.97,1.97,1.97,1.97,1.97,1.97,1.97,0.0,0.0,0.0,0.0,0.3552,0.3491,0.0,0.3622,0.4089,0.4392,0.4679,0.4958,0.5246,0.507,0.4854,0.4814,0.4598,0.4446,0.4412,0.4402,0.4419,0.4446,0.4449,0.4569,0.4842,0.5236,0.5738,0.6376,0.6837,0.7246,0.7598,0.7666,0.77,0.77,0.77,0.77,0.77,0.77,0.77,0.77,0.77,0.77,0.77,0.77,0.77,0.77,0.77,0.77,0.77,0.77,0.7937,0.8328,0.8615,0.9626,1.0964,1.1378,1.2182,1.3129,1.3187,1.3198,1.3198,1.3198,1.3198,1.3198,1.3198,1.3198,1.3198,1.3198,1.3198,1.3341,1.394,1.45,1.5035,1.5561,1.6114,1.6494,1.6494,1.6494,1.6494,1.6494,1.6494,1.6494,1.6494,1.6494,1.6494,1.6494,1.6951,1.749,1.802,1.8574,1.9106,1.9646,1.97,1.9664,1.9603,1.9664,1.9664,1.9603,1.9664,1.97,1.97,1.97,1.97,1.97,1.97,1.97,1.97,1.97,1.97,1.97,1.97,1.97,0.3281,0.0,0.0,0.0,0.339,0.3429,0.3156,0.3425,0.3808,0.4114,0.4275,0.4492,0.4935,0.4779,0.4525,0.4379,0.4258,0.4114,0.3926,0.3891,0.3963,0.4154,0.4174,0.4345,0.4766,0.5162,0.5602,0.6078,0.6716,0.7177,0.735,0.7574,0.77,0.77,0.77,0.77,0.77,0.77,0.77,0.77,0.77,0.77,0.77,0.77,0.77,0.77,0.77,0.77,0.77,0.77,0.8043,0.8587,0.8739,0.9848,1.1357,1.1536,1.2284,1.3198,1.3198,1.3198,1.3198,1.3198,1.3198,1.3198,1.3198,1.3198,1.3198,1.3198,1.3198,1.3416,1.4305,1.4727,1.5104,1.595,1.6325,1.6494,1.6494,1.6494,1.6494,1.6494,1.6494,1.6494,1.6494,1.6494,1.6494,1.6494,1.7209,1.782,1.8059,1.8829,1.9442,1.9664,1.97,1.9584,1.9288,1.9522,1.9566,1.9269,1.9522,1.97,1.97,1.97,1.97,1.97,1.97,1.97,1.97,1.97,1.97,1.97,1.97,1.97,0.0,0.0,0.377,0.3146,0.3199,0.333,0.3057,0.321,0.351,0.3923,0.3935,0.4023,0.4509,0.4439,0.4234,0.4032,0.3931,0.3781,0.3536,0.3495,0.3589,0.3842,0.3873,0.4056,0.4528,0.5012,0.5406,0.5678,0.6458,0.6973,0.7095,0.7383,0.7588,0.7695,0.77,0.77,0.77,0.77,0.77,0.77,0.77,0.77,0.77,0.77,0.77,0.77,0.77,0.77,0.771,0.7812,0.8232,0.8816,0.8912,1.004,1.1603,1.1603,1.2284,1.3198,1.3198,1.3198,1.3198,1.3198,1.3198,1.3198,1.3198,1.3198,1.3198,1.3198,1.3315,1.3665,1.4639,1.4997,1.5343,1.6289,1.6494,1.6494,1.6494,1.6494,1.6494,1.6494,1.6494,1.6494,1.6494,1.6494,1.6558,1.6674,1.751,1.8158,1.8295,1.9125,1.97,1.97,1.97,1.9541,1.9144,1.9468,1.9522,1.9125,1.9486,1.97,1.97,1.97,1.97,1.97,1.97,1.97,1.97,1.97,1.97,1.97,1.97,1.97,0.0,0.295,0.0,0.2747,0.2926,0.3046,0.2786,0.2929,0.3289,0.3873,0.3744,0.3633,0.3982,0.4029,0.4012,0.3998,0.3734,0.3523,0.3499,0.3495,0.3502,0.3526,0.3529,0.3635,0.3917,0.4602,0.5131,0.5402,0.606,0.6623,0.708,0.7124,0.7305,0.7686,0.77,0.77,0.77,0.77,0.77,0.77,0.77,0.77,0.77,0.77,0.77,0.77,0.77,0.77,0.7725,0.8105,0.8481,0.8838,0.9222,1.0284,1.1603,1.1603,1.2284,1.3198,1.3198,1.3198,1.3198,1.3198,1.3198,1.3198,1.3198,1.3198,1.3198,1.3198,1.3603,1.4173,1.4758,1.528,1.58,1.6377,1.6494,1.6494,1.6494,1.6494,1.6494,1.6494,1.6494,1.6494,1.6494,1.6494,1.6674,1.7174,1.7747,1.8276,1.8791,1.9343,1.97,1.97,1.97,1.9682,1.9664,1.9682,1.9682,1.9664,1.9682,1.97,1.97,1.97,1.97,1.97,1.97,1.97,1.97,1.97,1.97,1.97,1.97,1.97,0.0,0.0,0.0,0.2932,0.3068,0.3287,0.3014,0.3167,0.3415,0.3631,0.3579,0.3539,0.3656,0.3676,0.3676,0.3676,0.3576,0.3495,0.3495,0.3495,0.3495,0.3495,0.3495,0.3608,0.388,0.4296,0.466,0.4932,0.5615,0.6091,0.6257,0.6792,0.7168,0.731,0.7569,0.77,0.77,0.77,0.77,0.77,0.77,0.77,0.771,0.7966,0.8091,0.8105,0.8317,0.8289,0.8119,0.8467,0.8841,0.9203,0.9348,1.0298,1.1603,1.1603,1.2284,1.3198,1.3198,1.3198,1.3198,1.3198,1.3198,1.3198,1.3198,1.3198,1.3198,1.3198,1.3622,1.4229,1.4771,1.5305,1.5837,1.6362,1.6494,1.6494,1.6494,1.6494,1.6494,1.6494,1.6494,1.6494,1.6494,1.6795,1.707,1.7271,1.804,1.8676,1.8874,1.9369,1.97,1.97,1.97,1.97,1.97,1.97,1.97,1.97,1.97,1.97,1.97,1.97,1.97,1.97,1.97,1.97,1.97,1.97,1.97,1.97,1.97,1.97,0.2783,0.0,0.0,0.0,0.3007,0.3182,0.3114,0.3234,0.3397,0.3485,0.3495,0.3495,0.3495,0.3495,0.3495,0.3495,0.3495,0.3495,0.3495,0.3495,0.3495,0.3495,0.3576,0.3706,0.388,0.4218,0.4511,0.4691,0.5242,0.5636,0.5793,0.635,0.6797,0.709,0.7496,0.77,0.77,0.77,0.77,0.77,0.7841,0.7894,0.7909,0.8294,0.8463,0.8486,0.885,0.8795,0.85,0.885,0.9162,0.9415,0.9521,1.0396,1.1603,1.1603,1.2284,1.3198,1.3198,1.3198,1.3198,1.3198,1.3198,1.3198,1.3198,1.3198,1.3235,1.3441,1.3916,1.4488,1.5022,1.5575,1.6063,1.6427,1.6494,1.6494,1.6494,1.6494,1.6494,1.6494,1.6494,1.6494,1.6494,1.6936,1.7367,1.7544,1.8334,1.8968,1.9151,1.9486,1.97,1.97,1.97,1.97,1.97,1.97,1.97,1.97,1.97,1.97,1.97,1.97,1.97,1.97,1.97,1.97,1.97,1.97,1.97,1.97,1.97,1.97,0.0,0.0,0.0,0.0,0.2709,0.2702,0.3022,0.3108,0.3188,0.345,0.3495,0.3495,0.3495,0.3495,0.3495,0.3495,0.3495,0.3495,0.3495,0.3495,0.3495,0.3495,0.3737,0.39,0.39,0.439,0.47,0.47,0.4952,0.5302,0.5759,0.5793,0.6198,0.707,0.7481,0.7686,0.77,0.771,0.7715,0.7725,0.8119,0.8313,0.8328,0.8656,0.8816,0.8844,0.9243,0.9195,0.8858,0.9249,0.9415,0.9442,0.977,1.0596,1.1603,1.1603,1.2284,1.3198,1.3198,1.3198,1.3198,1.3198,1.3198,1.3198,1.3198,1.3198,1.3334,1.3934,1.4481,1.5022,1.5574,1.6114,1.6494,1.6494,1.6494,1.6494,1.6494,1.6494,1.6494,1.6494,1.6494,1.6494,1.6494,1.6951,1.751,1.802,1.8574,1.9106,1.9628,1.97,1.97,1.97,1.97,1.97,1.97,1.97,1.97,1.97,1.97,1.97,1.97,1.97,1.97,1.97,1.97,1.97,1.97,1.97,1.97,1.97,1.97,1.97,0.2973,0.0,0.0,0.0,0.0,0.0,0.3104,0.3252,0.3407,0.3485,0.3495,0.3495,0.3495,0.3495,0.3495,0.3495,0.3495,0.3495,0.3495,0.3495,0.3495,0.3495,0.3737,0.39,0.39,0.439,0.47,0.47,0.4952,0.5151,0.5283,0.5621,0.6198,0.707,0.7217,0.7408,0.7695,0.7995,0.8134,0.8134,0.8495,0.8656,0.867,0.9054,0.9235,0.9249,0.9613,0.9699,0.9601,0.9712,0.9757,0.977,0.986,1.0596,1.1603,1.1603,1.2284,1.3198,1.3198,1.3198,1.3198,1.3198,1.3198,1.3198,1.3198,1.3198,1.3334,1.3934,1.4481,1.511,1.6045,1.6381,1.6494,1.6494,1.6494,1.6494,1.6494,1.6494,1.6494,1.6494,1.6494,1.6494,1.6494,1.7271,1.792,1.8079,1.8893,1.9522,1.9682,1.97,1.97,1.97,1.97,1.97,1.97,1.97,1.97,1.97,1.97,1.97,1.97,1.97,1.97,1.97,1.97,1.97,1.97,1.97,1.97,1.97,1.97,1.97,0.0,0.0,0.0,0.3387,0.0,0.0,0.3404,0.3465,0.3495,0.3495,0.3495,0.3464,0.3354,0.3429,0.3464,0.3351,0.3429,0.3495,0.3495,0.3495,0.3545,0.3657,0.3911,0.4109,0.4222,0.4621,0.4868,0.4868,0.501,0.5098,0.5098,0.5542,0.6038,0.6546,0.6719,0.7008,0.7447,0.7828,0.811,0.8305,0.8808,0.9048,0.9062,0.9436,0.9613,0.962,0.9809,0.9899,0.9899,0.9899,0.9899,0.9899,0.9899,1.0596,1.1603,1.1603,1.2284,1.3198,1.3198,1.3198,1.3198,1.3198,1.3198,1.3198,1.3198,1.3198,1.3334,1.3934,1.4651,1.5437,1.6289,1.6494,1.6494,1.6494,1.6494,1.6494,1.6494,1.6494,1.6494,1.6494,1.6494,1.6494,1.6494,1.7388,1.8099,1.8099,1.9006,1.97,1.97,1.97,1.97,1.97,1.97,1.97,1.97,1.97,1.97,1.97,1.97,1.97,1.97,1.97,1.97,1.97,1.97,1.97,1.97,1.97,1.97,1.97,1.97,1.97,0.3304,0.335,0.0,0.3907,0.3554,0.0,0.3741,0.3675,0.3506,0.3534,0.3527,0.3429,0.3188,0.334,0.3418,0.3178,0.334,0.3495,0.3495,0.3495,0.3587,0.3828,0.4119,0.439,0.4631,0.4927,0.5098,0.5098,0.5098,0.5098,0.5098,0.5498,0.5738,0.5798,0.6191,0.6638,0.7143,0.754,0.7965,0.8426,0.9128,0.9455,0.9468,0.977,0.9899,0.9899,0.9899,0.9899,0.9899,0.9899,0.9899,0.9899,0.9899,1.0596,1.1603,1.1603,1.2284,1.3198,1.3198,1.3198,1.3198,1.3198,1.3198,1.3198,1.3198,1.3198,1.3341,1.4003,1.4928,1.5819,1.6356,1.6494,1.6494,1.6494,1.6494,1.6515,1.6573,1.6537,1.6537,1.6659,1.6573,1.6537,1.6652,1.747,1.8119,1.8178,1.905,1.97,1.97,1.97,1.97,1.97,1.97,1.97,1.97,1.97,1.97,1.97,1.97,1.97,1.97,1.97,1.97,1.97,1.97,1.97,1.97,1.97,1.97,1.97,1.97,1.97,0.3432,0.3393,0.3335,0.3298,0.328,0.0,0.3528,0.3544,0.3555,0.3779,0.3647,0.3485,0.3429,0.3464,0.3485,0.3429,0.3464,0.3495,0.3495,0.3495,0.3517,0.3576,0.401,0.4319,0.437,0.4819,0.5098,0.5098,0.5098,0.5098,0.5098,0.519,0.5405,0.5788,0.6191,0.6753,0.7496,0.8214,0.8768,0.9182,0.9607,0.9796,0.9809,0.9873,0.9899,0.9899,0.9899,0.9899,0.9899,0.9899,0.9899,0.9899,0.9899,1.0596,1.1603,1.1603,1.2284,1.3198,1.3198,1.3198,1.3198,1.3198,1.3198,1.3198,1.3198,1.3198,1.3428,1.445,1.5204,1.5819,1.6356,1.6494,1.6494,1.6494,1.6494,1.6616,1.7055,1.6795,1.6752,1.7626,1.7091,1.6774,1.7646,1.796,1.8256,1.8676,1.9288,1.97,1.97,1.97,1.97,1.97,1.97,1.97,1.97,1.97,1.97,1.97,1.97,1.97,1.97,1.97,1.97,1.97,1.97,1.97,1.97,1.97,1.97,1.97,1.97,1.97,0.3846,0.3752,0.3614,0.3679,0.3546,0.0,0.0,0.3695,0.3737,0.3869,0.39,0.3814,0.3552,0.3608,0.3612,0.334,0.3418,0.3495,0.3495,0.3495,0.3545,0.3689,0.4058,0.435,0.4491,0.4859,0.5098,0.5098,0.5098,0.5098,0.5098,0.5098,0.521,0.5439,0.5874,0.6394,0.6994,0.8006,0.8701,0.9108,0.9646,0.9899,0.9899,0.9899,0.9899,0.9899,0.9899,0.9899,0.9899,0.9899,0.9899,0.9899,0.9899,1.04,1.1192,1.1481,1.2115,1.2845,1.3104,1.3198,1.3198,1.3198,1.3198,1.3198,1.3198,1.3198,1.3447,1.4582,1.5091,1.5493,1.6281,1.6494,1.658,1.6837,1.6894,1.7055,1.7585,1.7271,1.7209,1.8295,1.7626,1.7153,1.796,1.8315,1.8593,1.8848,1.9369,1.97,1.97,1.97,1.97,1.97,1.97,1.97,1.97,1.97,1.97,1.97,1.97,1.97,1.97,1.97,1.97,1.97,1.97,1.9793,2.0,2.0,1.9892,1.97,1.9909,2.0,0.415,0.4031,0.388,0.4089,0.3817,0.3566,0.0,0.0,0.0,0.3959,0.4109,0.4105,0.3723,0.3827,0.3824,0.3331,0.3433,0.3555,0.3506,0.3495,0.3576,0.3796,0.4109,0.439,0.4601,0.4908,0.5098,0.5098,0.5098,0.5098,0.5098,0.5098,0.5122,0.518,0.5651,0.6162,0.6679,0.777,0.8548,0.9016,0.9614,0.9899,0.9899,0.9899,0.9899,0.9899,0.9899,0.9899,0.9899,0.9899,0.9899,0.9899,0.9899,1.0294,1.0933,1.1418,1.2002,1.262,1.3041,1.3198,1.3198,1.3198,1.3198,1.3198,1.3198,1.326,1.358,1.472,1.5108,1.5415,1.6522,1.6816,1.6915,1.7347,1.7449,1.7605,1.8138,1.782,1.7767,1.8848,1.8276,1.7787,1.8315,1.8676,1.8949,1.905,1.9424,1.97,1.97,1.97,1.97,1.97,1.97,1.97,1.97,1.97,1.97,1.97,1.97,1.97,1.97,1.97,1.97,1.97,1.97,1.9909,2.0297,2.0297,2.0176,1.997,2.0271,2.0433,0.3869,0.3748,0.3555,0.3587,0.3545,0.3566,0.3838,0.0,0.3678,0.416,0.0,0.4,0.4177,0.0,0.0,0.3855,0.3838,0.3769,0.3534,0.3495,0.3517,0.3545,0.399,0.4309,0.4339,0.4799,0.5098,0.5098,0.5098,0.5098,0.5098,0.5098,0.5209,0.5449,0.6029,0.6786,0.7722,0.8396,0.9085,0.9777,0.986,0.9899,0.9899,0.9899,0.9899,0.9899,0.9899,0.9899,0.9899,0.9899,0.9899,0.9899,0.9899,1.0546,1.1515,1.1578,1.2247,1.3117,1.3179,1.3198,1.3198,1.3198,1.3198,1.3198,1.3198,1.3486,1.4072,1.526,1.5871,1.6416,1.7613,1.792,1.792,1.798,1.8,1.8158,1.8696,1.8393,1.8334,1.9406,1.9125,1.8893,1.9424,1.9169,1.9069,1.9541,1.9664,1.97,1.97,1.97,1.97,1.97,1.97,1.97,1.97,1.97,1.97,1.97,1.97,1.97,1.97,1.97,1.97,1.97,1.97,1.9909,2.0297,2.0297,2.0483,2.0845,2.0894,2.0926,0.4099,0.4048,0.389,0.3576,0.3495,0.3527,0.3636,0.3696,0.3838,0.4218,0.0,0.0,0.0,0.0,0.0,0.0,0.39,0.3776,0.3431,0.3725,0.3911,0.3748,0.4068,0.442,0.473,0.4971,0.5098,0.5098,0.5098,0.5098,0.5098,0.5248,0.5383,0.5492,0.6423,0.7131,0.7542,0.8612,0.9297,0.9613,0.9809,0.9899,0.9899,0.9899,0.9899,0.9899,0.9899,0.9899,0.9899,0.9899,0.9899,0.9899,0.9899,1.0383,1.1115,1.1468,1.2084,1.2789,1.3091,1.3198,1.3198,1.3198,1.3198,1.325,1.352,1.3742,1.4206,1.5649,1.6179,1.658,1.7788,1.8099,1.8178,1.8496,1.8554,1.8715,1.9244,1.8949,1.8791,1.9548,1.9269,1.9069,1.9603,1.9504,1.9442,1.9664,1.97,1.97,1.97,1.97,1.97,1.97,1.97,1.97,1.97,1.97,1.97,1.97,1.97,1.97,1.97,1.97,1.97,1.97,1.97,2.0025,2.0707,2.0707,2.1071,2.1751,2.1477,2.1361,0.4279,0.4248,0.4078,0.3615,0.3495,0.3495,0.3495,0.3723,0.3976,0.4149,0.448,0.0,0.0,0.0,0.4299,0.3959,0.0,0.3886,0.3512,0.3947,0.4185,0.3884,0.4181,0.4591,0.5059,0.5098,0.5132,0.52,0.5209,0.5248,0.5319,0.5501,0.5716,0.5926,0.6825,0.7457,0.779,0.8867,0.9442,0.9534,0.9783,0.9899,0.9899,0.9899,0.9899,0.9899,0.9899,0.9899,0.9899,0.9899,0.9899,0.9918,1.0062,1.045,1.0996,1.1431,1.2033,1.2676,1.306,1.3198,1.3198,1.3198,1.3198,1.326,1.3598,1.3868,1.4382,1.5923,1.6515,1.6944,1.8039,1.8315,1.8373,1.8612,1.8676,1.8791,1.9188,1.9069,1.9032,1.9406,1.9288,1.9244,1.9628,1.97,1.97,1.97,1.97,1.97,1.97,1.97,1.97,1.97,1.97,1.97,1.97,1.97,1.97,1.97,1.97,1.97,1.97,1.97,1.9747,1.9856,1.9856,2.0286,2.1166,2.1166,2.1554,2.2296,2.1951,2.1794,0.4228,0.4109,0.3848,0.3566,0.3495,0.3495,0.3495,0.3762,0.3975,0.3925,0.4379,0.4699,0.4375,0.4521,0.4511,0.0,0.4119,0.0,0.0,0.4122,0.4152,0.375,0.4291,0.4799,0.5069,0.5098,0.5209,0.5473,0.5492,0.5601,0.5859,0.5878,0.6247,0.7025,0.7206,0.7859,0.9034,0.9288,0.9561,0.9886,0.9899,0.9899,0.9899,0.9899,0.9899,0.9899,0.9899,0.9899,0.9899,0.9899,0.9899,0.9949,1.0469,1.104,1.1578,1.1596,1.2262,1.3179,1.3192,1.3198,1.3198,1.3198,1.3198,1.3198,1.3215,1.3802,1.4766,1.6114,1.7047,1.7841,1.8661,1.8874,1.8753,1.8256,1.8138,1.8138,1.8158,1.8554,1.8912,1.893,1.9325,1.9682,1.97,1.97,1.97,1.97,1.97,1.97,1.97,1.97,1.97,1.97,1.97,1.97,1.97,1.97,1.97,1.97,1.97,1.97,1.97,1.97,1.9874,2.028,2.028,2.0699,2.159,2.159,2.1832,2.2296,2.2274,2.2282,0.4682,0.4766,0.4724,0.4015,0.3832,0.3824,0.3777,0.4093,0.4354,0.4201,0.4579,0.4796,0.4379,0.4228,0.0,0.0,0.0,0.4177,0.0,0.4302,0.4741,0.4879,0.5092,0.5091,0.4741,0.5102,0.5292,0.5114,0.5514,0.581,0.5896,0.6025,0.6404,0.7079,0.7657,0.8329,0.91,0.9523,0.9783,0.9899,0.9899,0.9899,0.9899,0.9899,0.9899,0.9899,0.9899,0.9899,0.9899,0.9899,0.9899,0.9956,1.0494,1.1065,1.1647,1.2002,1.2582,1.3198,1.3198,1.3198,1.3198,1.3198,1.3408,1.3659,1.3659,1.4246,1.5176,1.652,1.7281,1.7972,1.9127,1.9424,1.9288,1.8753,1.8631,1.8535,1.8178,1.8516,1.8893,1.8893,1.9325,1.97,1.97,1.97,1.97,1.97,1.97,1.97,1.97,1.97,1.97,1.97,1.97,1.97,1.97,1.97,1.97,1.97,1.97,1.97,1.97,1.9955,2.0151,2.0297,2.0608,2.1047,2.1605,2.1605,2.1846,2.2296,2.2296,2.2296,0.4868,0.4984,0.502,0.4314,0.4137,0.413,0.4086,0.4315,0.4491,0.4364,0.4573,0.4697,0.4392,0.4095,0.3937,0.0,0.0,0.0,0.0,0.4935,0.5426,0.5614,0.5553,0.5326,0.4899,0.5071,0.5296,0.5492,0.5705,0.5951,0.6233,0.6374,0.6779,0.7506,0.803,0.8644,0.9378,0.9723,0.9899,0.9899,0.9899,0.9899,0.9899,0.9899,0.9899,0.9899,0.9899,0.9899,0.9899,0.9899,0.9899,0.9974,1.0734,1.1261,1.1666,1.2203,1.2739,1.3198,1.3198,1.3198,1.3198,1.3198,1.352,1.3901,1.3901,1.4454,1.5378,1.6727,1.7388,1.7955,1.9109,1.9424,1.9225,1.8496,1.8334,1.8237,1.788,1.8237,1.8669,1.8848,1.9325,1.97,1.97,1.97,1.97,1.97,1.97,1.97,1.97,1.97,1.97,1.97,1.97,1.97,1.97,1.97,1.97,1.97,1.9828,1.9902,1.9902,2.0322,2.0616,2.0765,2.1063,2.1423,2.1846,2.1846,2.1995,2.2296,2.2296,2.2296]},{"header":{"parameterUnit":"m.s-1","parameterCategory":1,"la1":30.6,"la2":29.2853,"lo1":-89.7004,"lo2":-87.6739,"dy":0.0162,"dx":0.0183,"nx":112,"ny":82,"refTime":"2025-01-11T06:00:00:Z","depth":0,"parameterNumber":3,"parameterNumberName":"V-component_of_WINDS"},"data":[0.0,0.0,0.0,0.0,0.0,0.0,0.0,0.0,0.0,0.0,0.0,0.0,0.0,0.0,0.0,0.0,0.0,0.0,0.0,0.0,0.0,0.0,0.0,0.0,0.0,0.0,0.0,0.0,0.0,0.0,0.0,0.0,0.0,0.0,0.0,0.0,0.0,0.0,0.0,0.0,0.0,0.0,0.0,0.0,0.0,0.0,0.0,0.0,0.0,0.0,0.0,0.0,0.0,0.0,0.0,0.0,0.0,0.0,0.0,0.0,0.0,0.0,0.0,0.0,0.0,0.0,0.0,0.0,0.0,0.0,0.0,0.0,0.0,0.0,0.0,0.0,0.0,0.0,0.0,0.0,0.0,0.0,0.0,0.0,0.0,0.0,0.0,0.0,0.0,0.0,0.3596,0.5437,0.6811,0.7819,0.8356,0.8401,0.8296,0.8067,0.0,0.0,0.0,0.0,0.0,0.0,0.0,0.0,0.0,0.0,0.0,0.0,0.0,0.0,0.0,0.0,0.0,0.0,0.0,0.0,0.0,0.0,0.0,0.0,0.0,0.0,0.0,0.0,0.0,0.0,0.0,0.0,0.0,0.0,0.0,0.0,0.0,0.0,0.0,0.0,0.0,0.0,0.0,0.0,0.0,0.0,0.0,0.0,0.0,0.0,0.0,0.0,0.0,0.0,0.0,0.0,0.0,0.0,0.0,0.0,0.0,0.0,0.0,0.0,0.0,0.0,0.0,0.0,0.0,0.0,0.0,0.0,0.0,0.0,0.0,0.0,0.0,0.0,0.0,0.0,0.0,0.0,0.0,0.0,0.0,0.0,0.0,0.0,0.0,0.0,0.0,0.0,0.0,0.0,0.0,0.0,0.0,0.0,0.0,0.0,0.0,0.0,0.0,0.0,0.4172,0.6438,0.7232,0.7819,0.8356,0.8401,0.8496,0.873,0.0,0.0,0.0,0.0,0.0,0.0,0.0,0.0,0.0,0.0,0.0,0.0,0.0,0.0,0.0,0.0,0.0,0.0,0.0,0.0,0.0,0.0,0.0,0.0,0.0,0.0,0.0,0.0,0.0,0.0,0.0,0.0,0.0,0.0,0.0,0.0,0.0,0.0,0.0,0.0,0.0,0.0,0.0,0.0,0.0,0.0,0.0,0.0,0.0,0.0,0.0,0.0,0.0,0.0,0.0,0.0,0.0,0.0,0.0,0.0,0.0,0.0,0.0,0.0,0.0,0.0,0.0,0.0,0.0,0.0,0.0,0.0,0.0,0.0,0.0,0.0,0.0,0.0,0.0,0.0,0.0,0.0,0.0,0.0,0.0,0.0,0.0,0.0,0.0,0.0,0.0,0.0,0.0,0.0,0.0,0.0,0.0,0.0,0.0,0.0,0.0,0.0,0.0,0.3973,0.5226,0.6735,0.7417,0.7891,0.8206,0.8341,0.8515,0.8777,0.7479,0.0,0.0,0.0,0.0,0.0,0.0,0.0,0.0,0.0,0.0,0.0,0.0,0.0,0.0,0.0,0.0,0.0,0.0,0.0,0.0,0.0,0.0,0.0,0.0,0.0,0.0,0.0,0.0,0.0,0.0,0.0,0.0,0.0,0.0,0.0,0.0,0.0,0.0,0.0,0.0,0.0,0.0,0.0,0.0,0.0,0.0,0.0,0.0,0.0,0.0,0.0,0.0,0.0,0.0,0.0,0.0,0.0,0.0,0.0,0.0,0.0,0.0,0.0,0.0,0.0,0.0,0.0,0.0,0.0,0.0,0.0,0.0,0.0,0.0,0.0,0.0,0.0,0.0,0.0,0.0,0.0,0.0,0.0,0.0,0.0,0.0,0.0,0.0,0.0,0.0,0.0,0.0,0.0,0.0,0.0,0.0,0.0,0.0,0.0,0.0,0.0,0.0,0.4934,0.6029,0.6878,0.753,0.7977,0.8151,0.8314,0.8496,0.8732,0.746,0.0,0.0,0.0,0.0,0.0,0.0,0.0,0.0,0.0,0.0,0.0,0.0,0.0,0.0,0.0,0.0,0.0,0.0,0.0,0.0,0.0,0.0,0.0,0.0,0.0,0.0,0.0,0.0,0.0,0.0,0.0,0.0,0.0,0.0,0.0,0.0,0.0,0.0,0.0,0.0,0.0,0.0,0.0,0.0,0.0,0.0,0.0,0.0,0.0,0.0,0.0,0.0,0.0,0.0,0.0,0.0,0.0,0.0,0.0,0.0,0.0,0.0,0.0,0.0,0.0,0.0,0.0,0.0,0.0,0.0,0.0,0.0,0.0,0.0,0.0,0.0,0.0,0.0,0.0,0.0,0.0,0.0,0.0,0.0,0.0,0.0,0.0,0.0,0.0,0.0,0.0,0.0,0.0,0.0,0.0,0.0,0.0,0.0,0.0,0.0,0.0,0.0,0.4989,0.6084,0.7079,0.7606,0.8034,0.8356,0.8395,0.8538,0.8863,0.7509,0.0,0.0,0.0,0.0,0.0,0.0,0.0,0.0,0.0,0.0,0.0,0.0,0.0,0.0,0.0,0.0,0.0,0.0,0.0,0.0,0.0,0.0,0.0,0.0,0.0,0.0,0.0,0.0,0.0,0.0,0.0,0.0,0.0,0.0,0.0,0.0,0.0,0.0,0.0,0.0,0.0,0.0,0.0,0.0,0.0,0.0,0.0,0.0,0.0,0.0,0.0,0.0,0.0,0.0,0.0,0.0,0.0,0.0,0.0,0.0,0.0,0.0,0.0,0.0,0.0,0.0,0.0,0.0,0.0,0.0,0.0,0.0,0.0,0.0,0.0,0.0,0.0,0.0,0.0,0.0,0.0,0.0,0.0,0.0,0.0,0.0,0.0,0.0,0.0,0.0,0.0,0.0,0.0,0.0,0.0,0.0,0.0,0.0,0.0,0.0,0.0,0.0,0.5044,0.6084,0.7095,0.7694,0.8079,0.8206,0.8444,0.864,0.8765,0.0,0.0,0.0,0.0,0.0,0.0,0.0,0.0,0.0,0.0,0.0,0.0,0.0,0.0,0.0,0.0,0.0,0.0,0.0,0.0,0.0,0.0,0.0,0.0,0.0,0.0,0.0,0.0,0.0,0.0,0.0,0.0,0.0,0.0,0.0,0.0,0.0,0.0,0.0,0.0,0.0,0.0,0.0,0.0,0.0,0.0,0.0,0.0,0.0,0.0,0.0,0.0,0.0,0.0,0.0,0.0,0.0,0.0,0.0,0.0,0.0,0.0,0.0,0.0,0.0,0.0,0.0,0.0,0.0,0.0,0.0,0.0,0.0,0.0,0.0,0.0,0.0,0.0,0.0,0.0,0.0,0.0,0.0,0.0,0.0,0.0,0.0,0.0,0.0,0.0,0.0,0.0,0.0,0.0,0.0,0.0,0.0,0.0,0.0,0.0,0.0,0.0,0.4012,0.505,0.6084,0.7095,0.7745,0.8123,0.8185,0.8501,0.8618,0.8426,0.0,0.0,0.0,0.0,0.0,0.0,0.0,0.0,0.0,0.0,0.0,0.0,0.0,0.0,0.0,0.0,0.0,0.0,0.0,0.0,0.0,0.0,0.0,0.0,0.0,0.0,0.0,0.0,0.0,0.0,0.0,0.0,0.0,0.0,0.0,0.0,0.0,0.0,0.0,0.0,0.0,0.0,0.0,0.0,0.0,0.0,0.0,0.0,0.0,0.0,0.0,0.0,0.0,0.0,0.0,0.0,0.0,0.0,0.0,0.0,0.0,0.0,0.0,0.0,0.0,0.0,0.0,0.0,0.0,0.0,0.0,0.0,0.0,0.0,0.0,0.0,0.0,0.0,0.0,0.0,0.0,0.0,0.0,0.0,0.0,0.0,0.0,0.0,0.0,0.0,0.0,0.0,0.0,0.0,0.0,0.0,0.0,0.0,0.0,0.0,0.0,0.0,0.3889,0.4994,0.6084,0.7095,0.7745,0.8185,0.8388,0.8587,0.8443,0.0,0.0,0.0,0.0,0.0,0.0,0.0,0.0,0.0,0.0,0.0,0.0,0.0,0.0,0.0,0.0,0.0,0.0,0.0,0.0,0.0,0.0,0.0,0.0,0.0,0.0,0.0,0.0,0.0,0.0,0.0,0.0,0.0,0.0,0.0,0.0,0.0,0.0,0.0,0.0,0.0,0.0,0.0,0.0,0.0,0.0,0.0,0.0,0.0,0.0,0.0,0.0,0.0,0.0,0.0,0.0,0.0,0.0,0.0,0.0,0.0,0.0,0.0,0.0,0.0,0.0,0.0,0.0,0.0,0.0,0.0,0.0,0.0,0.0,0.0,0.0,0.0,0.0,0.0,0.0,0.0,0.0,0.0,0.0,0.0,0.0,0.0,0.0,0.0,0.0,0.0,0.0,0.0,0.0,0.0,0.0,0.0,0.0,0.0,0.0,0.0,0.0,0.0,0.3855,0.4994,0.6084,0.7095,0.7866,0.8341,0.8395,0.8587,0.842,0.7771,0.0,0.0,0.0,0.0,0.0,0.0,0.0,0.0,0.0,0.0,0.0,0.0,0.0,0.0,0.0,0.0,0.0,0.0,0.0,0.0,0.0,0.0,0.0,0.0,0.0,0.0,0.0,0.0,0.0,0.0,0.0,0.0,0.0,0.0,0.0,0.0,0.0,0.0,0.0,0.0,0.0,0.0,0.0,0.0,0.0,0.0,0.0,0.0,0.0,0.0,0.0,0.0,0.0,0.0,0.0,0.0,0.0,0.0,0.0,0.0,0.0,0.0,0.0,0.0,0.0,0.0,0.0,0.0,0.0,0.0,0.0,0.0,0.0,0.0,0.0,0.0,0.0,0.0,0.0,0.0,0.0,0.0,0.0,0.0,0.0,0.0,0.0,0.0,0.0,0.0,0.0,0.0,0.0,0.0,0.0,0.0,0.0,0.0,0.0,0.0,0.0,0.0,0.377,0.4963,0.6084,0.7095,0.7845,0.828,0.828,0.8465,0.8283,0.7579,0.0,0.0,0.0,0.0,0.0,0.0,0.0,0.0,0.0,0.0,0.0,0.0,0.0,0.0,0.0,0.0,0.0,0.0,0.0,0.0,0.0,0.0,0.0,0.0,0.0,0.0,0.0,0.0,0.0,0.0,0.0,0.0,0.0,0.0,0.0,0.0,0.0,0.0,0.0,0.0,0.0,0.0,0.0,0.0,0.0,0.0,0.0,0.0,0.0,0.0,0.0,0.0,0.0,0.0,0.0,0.0,0.0,0.0,0.0,0.0,0.0,0.0,0.0,0.0,0.0,0.0,0.0,0.0,0.0,0.0,0.0,0.0,0.0,0.0,0.0,0.0,0.0,0.0,0.0,0.0,0.0,0.0,0.0,0.0,0.0,0.0,0.0,0.0,0.0,0.0,0.0,0.0,0.0,0.0,0.0,0.0,0.0,0.0,0.0,0.0,0.0,0.0,0.3683,0.4918,0.6084,0.7095,0.7745,0.8103,0.8103,0.8267,0.8066,0.734,0.0,0.0,0.0,0.0,0.0,0.0,0.0,0.0,0.0,0.0,0.0,0.0,0.0,0.0,0.0,0.0,0.0,0.0,0.0,0.0,0.0,0.0,0.0,0.0,0.0,0.0,0.0,0.0,0.0,0.0,0.0,0.0,0.0,0.0,0.0,0.0,0.0,0.0,0.0,0.0,0.0,0.0,0.0,0.0,0.0,0.0,0.0,0.0,0.0,0.0,0.0,0.0,0.0,0.0,0.0,0.0,0.0,0.0,0.0,0.0,0.4944,0.4498,0.0,0.0,0.0,0.0,0.0,0.0,0.0,0.0,0.0,0.0,0.0,0.0,0.0,0.0,0.0,0.0,0.0,0.0,0.0,0.0,0.0,0.0,0.0,0.0,0.0,0.0,0.0,0.0,0.0,0.0,0.0,0.0,0.0,0.0,0.0,0.0,0.0,0.0,0.0,0.0,0.3803,0.4976,0.6084,0.7095,0.7745,0.8103,0.8103,0.8137,0.7897,0.7263,0.6927,0.0,0.0,0.0,0.0,0.0,0.0,0.0,0.0,0.0,0.0,0.0,0.0,0.0,0.0,0.0,0.0,0.0,0.0,0.0,0.0,0.0,0.0,0.0,0.0,0.0,0.0,0.0,0.0,0.0,0.0,0.0,0.0,0.0,0.0,0.0,0.0,0.0,0.0,0.0,0.0,0.0,0.0,0.0,0.0,0.0,0.0,0.0,0.0,0.0,0.0,0.0,0.0,0.0,0.0,0.0,0.0,0.0,0.0,0.0,0.5825,0.556,0.0,0.0,0.0,0.0,0.0,0.0,0.0,0.0,0.0,0.0,0.0,0.0,0.0,0.0,0.0,0.0,0.0,0.0,0.0,0.0,0.0,0.0,0.0,0.0,0.0,0.0,0.0,0.0,0.0,0.0,0.0,0.0,0.0,0.0,0.0,0.0,0.0,0.0,0.0,0.0,0.386,0.4994,0.6084,0.7095,0.768,0.8003,0.8003,0.8003,0.7873,0.7557,0.7135,0.0,0.0,0.0,0.0,0.0,0.0,0.0,0.0,0.0,0.0,0.0,0.0,0.0,0.0,0.0,0.0,0.0,0.0,0.0,0.0,0.0,0.0,0.0,0.0,0.0,0.0,0.0,0.0,0.0,0.0,0.0,0.0,0.0,0.0,0.0,0.0,0.0,0.0,0.0,0.0,0.0,0.0,0.0,0.0,0.0,0.0,0.0,0.0,0.0,0.0,0.0,0.0,0.0,0.6797,0.6741,0.6547,0.7125,0.7229,0.6966,0.7024,0.6895,0.6592,0.5848,0.0,0.0,0.0,0.0,0.0,0.0,0.0,0.0,0.0,0.0,0.0,0.0,0.0,0.0,0.0,0.0,0.0,0.0,0.0,0.0,0.0,0.0,0.419,0.4127,0.3993,0.3736,0.3241,0.0,0.0,0.0,0.0,0.0,0.0,0.0,0.0,0.0,0.0,0.0,0.3926,0.5046,0.6139,0.7095,0.762,0.7899,0.7899,0.7899,0.7899,0.7899,0.7383,0.7025,0.0,0.0,0.0,0.0,0.0,0.0,0.0,0.0,0.0,0.0,0.0,0.0,0.0,0.0,0.0,0.0,0.0,0.0,0.0,0.0,0.0,0.0,0.0,0.0,0.0,0.0,0.0,0.0,0.0,0.0,0.0,0.0,0.3566,0.3606,0.0,0.0,0.0,0.0,0.0,0.0,0.0,0.0,0.0,0.0,0.0,0.0,0.0,0.5365,0.569,0.6269,0.6656,0.6867,0.7572,0.7888,0.7859,0.8296,0.8462,0.8422,0.8436,0.0,0.6421,0.6193,0.0,0.0,0.0,0.0,0.0,0.0,0.0,0.0,0.0,0.0,0.0,0.0,0.0,0.0,0.0,0.0,0.0,0.0,0.0,0.0,0.0,0.0,0.4673,0.4891,0.4746,0.4543,0.4466,0.3375,0.2323,0.1999,0.1486,0.1102,0.0,0.0,0.0,0.0,0.0,0.0,0.4108,0.5268,0.6347,0.7118,0.762,0.7899,0.7899,0.7899,0.7899,0.7899,0.7817,0.751,0.6921,0.6727,0.0,0.0,0.0,0.0,0.0,0.0,0.0,0.0,0.0,0.0,0.0,0.0,0.0,0.0,0.0,0.0,0.0,0.0,0.0,0.0,0.0,0.0,0.0,0.0,0.0,0.0,0.0,0.0,0.0,0.3767,0.4057,0.3598,0.3648,0.35,0.0,0.0,0.0,0.0,0.0,0.0,0.0,0.0,0.0,0.562,0.5821,0.6243,0.6916,0.7183,0.746,0.7747,0.81,0.8325,0.8442,0.8616,0.8738,0.8806,0.8616,0.8147,0.7479,0.6971,0.6761,0.6705,0.0,0.0,0.0,0.0,0.6331,0.6383,0.6762,0.6894,0.6828,0.6424,0.0,0.0,0.0,0.0,0.0,0.0,0.0,0.4145,0.4626,0.4952,0.5214,0.5491,0.5466,0.5328,0.5185,0.4548,0.376,0.2938,0.2413,0.2022,0.1793,0.1682,0.0,0.0,0.0,0.364,0.4337,0.5408,0.6385,0.7118,0.762,0.7899,0.7899,0.7899,0.7899,0.7899,0.7899,0.7772,0.7473,0.7099,0.6364,0.0,0.0,0.0,0.0,0.0,0.0,0.0,0.0,0.0,0.0,0.0,0.0,0.0,0.0,0.0,0.0,0.0,0.0,0.0,0.0,0.0,0.0,0.0,0.0,0.0,0.0,0.0,0.0,0.4087,0.4428,0.3783,0.4074,0.4003,0.0,0.0,0.0,0.0,0.0,0.0,0.4616,0.5109,0.5674,0.6316,0.661,0.7119,0.7867,0.7924,0.8106,0.8401,0.8446,0.8554,0.8699,0.8732,0.8783,0.8832,0.8526,0.8367,0.8274,0.7638,0.7374,0.7315,0.6667,0.6414,0.6468,0.6914,0.7079,0.7153,0.7649,0.7819,0.7716,0.7062,0.6524,0.5963,0.5094,0.0,0.0,0.0,0.0,0.4717,0.5184,0.5452,0.5657,0.585,0.5896,0.5841,0.5648,0.5385,0.4896,0.386,0.3351,0.295,0.2525,0.2438,0.0,0.2898,0.3237,0.3758,0.4595,0.5576,0.6465,0.7125,0.762,0.7899,0.7899,0.7899,0.7899,0.7899,0.7899,0.7899,0.7899,0.742,0.6944,0.6483,0.0,0.0,0.0,0.0,0.0,0.0,0.0,0.0,0.0,0.0,0.0,0.0,0.0,0.0,0.0,0.0,0.0,0.0,0.0,0.0,0.0,0.0,0.0,0.0,0.0,0.0,0.0,0.0,0.0,0.4262,0.4503,0.0,0.0,0.0,0.0,0.4124,0.4239,0.4739,0.5757,0.6027,0.6568,0.7488,0.7651,0.7844,0.8089,0.8273,0.8382,0.8401,0.8594,0.8693,0.8705,0.8826,0.8829,0.8699,0.8492,0.8294,0.8103,0.7939,0.7861,0.7861,0.7817,0.7802,0.778,0.7628,0.7569,0.7569,0.7605,0.7612,0.7612,0.7561,0.6931,0.6097,0.5605,0.5256,0.0,0.0,0.5235,0.5509,0.5788,0.5869,0.5878,0.5896,0.5896,0.5896,0.5878,0.567,0.531,0.4743,0.42,0.3756,0.3481,0.0,0.3062,0.3087,0.3533,0.4139,0.4881,0.5865,0.6665,0.7148,0.762,0.7899,0.7899,0.7899,0.7899,0.7899,0.7899,0.7899,0.7899,0.7869,0.7477,0.67,0.6397,0.0,0.0,0.0,0.0,0.0,0.0,0.0,0.0,0.0,0.0,0.0,0.0,0.0,0.0,0.0,0.0,0.0,0.0,0.0,0.0,0.0,0.0,0.0,0.0,0.0,0.0,0.0,0.0,0.4805,0.5287,0.0,0.4459,0.4545,0.4787,0.5078,0.561,0.6135,0.6644,0.7149,0.7577,0.791,0.8091,0.8288,0.8488,0.8561,0.864,0.8725,0.8798,0.8826,0.8826,0.8883,0.8877,0.8815,0.8658,0.8478,0.8273,0.8106,0.7976,0.7899,0.7899,0.7899,0.7892,0.7819,0.7797,0.7797,0.7797,0.7709,0.753,0.7096,0.6613,0.6142,0.5852,0.5695,0.5615,0.5615,0.5686,0.5806,0.6037,0.6091,0.6141,0.631,0.6351,0.6301,0.6127,0.6019,0.5855,0.5537,0.4899,0.4327,0.4057,0.394,0.3874,0.3874,0.4326,0.4832,0.5264,0.6165,0.6875,0.7164,0.762,0.7899,0.7899,0.7899,0.7899,0.7899,0.7899,0.7899,0.7899,0.7899,0.7708,0.7286,0.6701,0.5803,0.0,0.0,0.0,0.0,0.0,0.0,0.0,0.0,0.0,0.0,0.0,0.0,0.0,0.0,0.0,0.0,0.0,0.0,0.0,0.0,0.0,0.0,0.0,0.0,0.0,0.5133,0.5892,0.5515,0.6097,0.6191,0.5322,0.5541,0.5841,0.6089,0.6727,0.7196,0.743,0.7921,0.8206,0.8206,0.8399,0.8561,0.8699,0.8744,0.8812,0.8897,0.8897,0.8897,0.8897,0.8897,0.8877,0.8835,0.8738,0.854,0.8286,0.8158,0.805,0.7962,0.7913,0.7899,0.7899,0.7899,0.7899,0.7929,0.8162,0.8178,0.8034,0.759,0.7134,0.6753,0.661,0.6577,0.6533,0.635,0.6351,0.6394,0.6349,0.6336,0.6386,0.6558,0.6599,0.655,0.6371,0.6262,0.6159,0.6025,0.5522,0.5025,0.4756,0.4628,0.4568,0.4568,0.487,0.5236,0.5582,0.6378,0.6979,0.7179,0.762,0.7899,0.7899,0.7899,0.7899,0.7899,0.7899,0.7899,0.7899,0.7899,0.7805,0.7605,0.6743,0.5935,0.5202,0.0,0.0,0.0,0.0,0.0,0.0,0.0,0.0,0.0,0.0,0.0,0.0,0.0,0.0,0.0,0.0,0.0,0.0,0.0,0.0,0.0,0.0,0.0,0.4892,0.5515,0.6074,0.6401,0.6909,0.6945,0.6225,0.6561,0.6918,0.7122,0.7504,0.7848,0.8108,0.8312,0.842,0.842,0.8612,0.8705,0.8705,0.8832,0.8897,0.8897,0.8897,0.8914,0.8939,0.8939,0.8877,0.8777,0.8746,0.8521,0.8154,0.8148,0.8141,0.8127,0.797,0.7906,0.7906,0.7929,0.7951,0.8057,0.8702,0.8992,0.9101,0.9091,0.8549,0.7916,0.7927,0.7927,0.7819,0.7295,0.7285,0.7319,0.6768,0.6624,0.6624,0.6605,0.6599,0.6599,0.6599,0.6395,0.6212,0.6212,0.6052,0.5835,0.5563,0.5293,0.5126,0.5126,0.5131,0.0,0.5845,0.6494,0.6987,0.7179,0.762,0.7899,0.7899,0.7899,0.7899,0.7899,0.7899,0.7899,0.7899,0.7892,0.779,0.7582,0.6606,0.5741,0.5009,0.0,0.0,0.0,0.0,0.0,0.0,0.0,0.0,0.0,0.0,0.0,0.0,0.0,0.0,0.0,0.0,0.0,0.0,0.0,0.0,0.0,0.4388,0.5124,0.5376,0.6363,0.7149,0.7386,0.7669,0.7713,0.7365,0.7531,0.7753,0.7954,0.8253,0.8522,0.8737,0.8852,0.8913,0.8913,0.8869,0.8843,0.8843,0.8883,0.8897,0.8897,0.8897,0.9179,0.9694,0.9694,0.9963,1.0409,0.9874,0.9525,0.9313,0.9124,0.9073,0.9045,0.8318,0.8043,0.8105,0.859,0.9015,0.9349,0.9333,0.9232,0.9065,0.8873,0.8537,0.8226,0.8423,0.8483,0.8451,0.8306,0.8297,0.8164,0.7379,0.7175,0.7084,0.6693,0.6599,0.6599,0.6599,0.6541,0.6485,0.6485,0.6448,0.6275,0.5857,0.5723,0.5686,0.5686,0.5802,0.5951,0.6103,0.6701,0.7139,0.7194,0.762,0.7899,0.7899,0.7899,0.7899,0.7899,0.7899,0.7899,0.7899,0.7761,0.7499,0.7099,0.6442,0.5789,0.0,0.0,0.0,0.0,0.0,0.0,0.0,0.0,0.0,0.0,0.0,0.0,0.0,0.0,0.0,0.0,0.0,0.0,0.0,0.0,0.0,0.0,0.5298,0.6095,0.6617,0.7255,0.7802,0.8178,0.8318,0.8345,0.8232,0.8367,0.8496,0.8583,0.8841,0.9031,0.912,0.9165,0.9188,0.9188,0.9055,0.8981,0.8981,0.893,0.9052,0.936,0.936,0.9743,1.0455,1.0455,1.069,1.1086,1.0648,1.0377,1.0249,1.0089,1.0052,1.0009,0.0,0.0,0.0,0.0,0.9791,1.025,1.0107,1.0032,0.9993,0.9845,0.9605,0.9421,0.9572,0.9621,0.9551,0.9174,0.9075,0.8875,0.8002,0.7782,0.7701,0.7391,0.7316,0.7316,0.7316,0.7316,0.7316,0.7316,0.7106,0.0,0.6581,0.6248,0.6025,0.6025,0.6121,0.6204,0.6204,0.6786,0.7202,0.7202,0.762,0.7899,0.7899,0.7899,0.0,0.0,0.0,0.7863,0.7783,0.7553,0.0,0.0,0.0,0.0,0.0,0.0,0.0,0.0,0.4796,0.4559,0.0,0.0,0.0,0.0,0.0,0.0,0.0,0.0,0.0,0.0,0.0,0.0,0.0,0.0,0.0,0.0,0.6294,0.7314,0.8183,0.8181,0.8276,0.8793,0.8859,0.887,0.887,0.9051,0.9143,0.9082,0.9301,0.9415,0.9363,0.9425,0.0,0.0,0.0,0.9359,0.9359,0.9216,0.9478,1.0119,1.0119,1.0506,1.1238,1.1238,1.1281,1.1357,1.1265,1.1154,1.1007,1.1007,1.1057,1.1084,1.0471,1.0281,1.0317,1.0097,1.0389,1.091,1.091,0.0,0.0,1.1303,1.1122,1.0908,1.0932,1.0956,1.0786,0.9971,0.975,0.9538,0.863,0.8393,0.8374,0.8317,0.8305,0.8305,0.8305,0.8305,0.8305,0.8305,0.787,0.75,0.75,0.68,0.6239,0.6239,0.6239,0.6239,0.6239,0.6784,0.7171,0.7202,0.7598,0.0,0.7899,0.7899,0.7899,0.7899,0.7878,0.7768,0.756,0.7309,0.7099,0.6957,0.6782,0.6481,0.6059,0.6059,0.5997,0.5852,0.5034,0.4544,0.0,0.0,0.0,0.0,0.0,0.0,0.0,0.0,0.0,0.0,0.0,0.0,0.0,0.0,0.0,0.6226,0.7142,0.7994,0.8814,0.9125,0.9251,0.921,0.925,0.9287,0.9287,0.9469,0.9576,0.9566,0.9662,0.9717,0.9708,1.0158,1.0424,1.0424,1.0769,1.0964,1.0964,1.0777,1.0747,1.0884,1.0884,0.0,1.2069,1.2069,1.2389,1.2922,1.233,1.1928,1.1712,1.1712,1.2058,1.2452,1.101,1.0765,1.1201,1.0784,1.1039,1.161,1.161,1.1465,1.1303,1.1303,1.1122,1.0944,1.1157,1.1219,0.0,1.0752,1.0654,1.0388,0.9246,0.8944,0.8831,0.8405,0.8305,0.8305,0.8305,0.8305,0.8305,0.8305,0.82,0.8125,0.8125,0.724,0.6526,0.6526,0.6526,0.6526,0.6526,0.6778,0.7014,0.7179,0.7477,0.7724,0.7885,0.7899,0.7899,0.7899,0.7746,0.7545,0.7287,0.707,0.7066,0.7297,0.7263,0.7177,0.703,0.703,0.6767,0.6274,0.5777,0.5691,0.0,0.0,0.0,0.0,0.0,0.0,0.0,0.0,0.0,0.0,0.0,0.4109,0.4657,0.0,0.628,0.7286,0.8014,0.8664,0.9265,0.9577,0.971,0.961,0.9627,0.9647,0.9647,0.9772,0.9837,0.9797,0.9835,1.0015,1.0381,1.0645,1.0981,1.1387,1.1471,1.1547,1.165,1.1377,1.144,1.1797,1.1797,1.2174,1.2846,1.2846,1.3049,1.3379,1.3007,1.2764,1.2648,1.2648,1.2866,1.309,1.1975,1.1759,1.1996,1.1488,1.1503,1.1797,1.1797,1.1692,1.1553,1.1553,1.1464,1.1388,1.1508,1.1553,1.1497,1.1199,1.1001,1.0726,0.9944,0.9626,0.9434,0.9165,0.9102,0.9102,0.9102,0.9102,0.9102,0.9102,0.8882,0.8705,0.8705,0.801,0.7454,0.7454,0.7454,0.7454,0.7454,0.7624,0.7856,0.8122,0.8064,0.8245,0.8849,0.8903,0.869,0.8184,0.8371,0.8324,0.7912,0.7804,0.7781,0.7845,0.7851,0.7663,0.7303,0.7303,0.7119,0.6748,0.655,0.6426,0.0,0.0,0.0,0.0,0.0,0.0,0.0,0.4902,0.4647,0.4767,0.5024,0.537,0.5827,0.6594,0.7411,0.8189,0.875,0.9227,0.9583,0.9804,0.9922,0.9936,0.9927,0.9919,0.9919,1.0134,1.0249,1.0196,1.031,1.0649,1.1244,1.133,1.1659,1.2311,1.2149,1.2136,1.2339,1.2002,1.2128,1.2707,1.2707,1.2949,1.3405,1.3405,1.3405,1.3405,1.3346,1.3354,1.3405,1.3346,1.3354,1.3354,1.2807,1.263,1.2609,1.2016,1.1797,1.1797,1.1797,1.1797,1.1797,1.1797,1.1797,1.1797,1.1797,1.1797,1.1725,1.1393,1.1111,1.0818,1.0495,1.0154,0.9899,0.9899,0.9899,0.9899,0.9899,0.9899,0.9899,0.9899,0.9554,0.9258,0.9258,0.89,0.8532,0.8336,0.8305,0.8305,0.8305,0.8444,0.8659,0.8968,0.8723,0.8905,0.9818,0.9897,0.9527,0.8649,0.9064,0.9119,0.8625,0.8559,0.8515,0.8455,0.8383,0.8088,0.7588,0.7528,0.7401,0.7222,0.7222,0.7008,0.7735,0.6769,0.5949,0.6359,0.5903,0.5577,0.0,0.6,0.5533,0.6063,0.6304,0.6535,0.6948,0.7589,0.8206,0.8661,0.9131,0.9522,0.975,0.9898,1.0011,1.007,1.0034,0.9992,0.9992,1.0751,1.1243,1.1227,1.1781,1.2159,1.2242,1.2743,1.3069,1.3161,1.3479,1.3739,1.3939,1.3556,1.34,1.3479,1.3479,1.3447,1.3405,1.3405,1.3405,1.3396,1.3147,1.3173,1.3379,1.3138,1.3191,1.3354,1.2807,1.275,1.2861,1.2097,1.1797,1.1797,1.1797,1.1797,1.1797,1.1797,1.1797,1.1797,1.1797,1.1797,1.1725,1.1393,1.1111,1.0818,1.0495,1.0154,0.9899,0.9899,0.9899,0.9899,0.9899,0.9899,0.9899,0.9899,0.9849,0.9811,0.9811,0.9761,0.9397,0.8449,0.8305,0.8305,0.8305,0.832,0.8419,0.8632,0.887,0.9258,0.9846,0.9897,0.9719,0.9317,0.9186,0.8971,0.8615,0.8423,0.8545,0.9006,0.8657,0.8522,0.8641,0.8338,0.7991,0.7627,0.7627,0.7603,0.8452,0.7744,0.7211,0.7513,0.7248,0.7033,0.7491,0.7295,0.7105,0.7443,0.7643,0.7852,0.8134,0.8612,0.9033,0.9282,0.9584,0.9822,0.9908,0.9999,1.0072,1.0102,1.0076,1.0063,1.0063,1.0797,1.1323,1.1394,1.1948,1.2518,1.307,1.3225,1.351,1.3976,1.4051,1.4169,1.4375,1.4094,1.389,1.3766,1.3766,1.3642,1.3405,1.3405,1.3312,1.3165,1.3208,1.3121,1.2944,1.3148,1.3104,1.2926,1.2861,1.2814,1.2685,1.2037,1.1894,1.201,1.1851,1.1797,1.1797,1.1797,1.1797,1.1797,1.1797,1.1797,1.1776,1.163,1.1367,1.1057,1.0775,1.0441,1.0141,0.9944,0.9899,0.9899,0.9899,0.9899,0.9899,0.9899,0.9899,0.9899,0.9899,0.9899,0.9749,0.9303,0.9234,0.9234,0.9234,0.9234,0.9265,0.9353,0.9978,1.0247,0.993,1.0397,1.0417,0.9734,0.9796,0.9706,0.9369,0.9275,0.9334,0.9566,0.9404,0.915,0.8803,0.8656,0.828,0.77,0.77,0.77,0.8898,0.8552,0.8348,0.8466,0.8383,0.8288,0.8332,0.8352,0.839,0.8545,0.8721,0.8903,0.9085,0.9401,0.9665,0.9772,0.9922,1.0029,1.0029,1.0072,1.0104,1.0104,1.0308,1.0442,1.0408,1.1105,1.1604,1.1695,1.2444,1.3188,1.3871,1.3729,1.3899,1.4484,1.4301,1.4304,1.4503,1.4295,1.4129,1.3983,1.3934,1.374,1.3454,1.3421,1.3286,1.3121,1.332,1.3139,1.2742,1.313,1.3024,1.262,1.2806,1.2769,1.2535,1.2079,1.2031,1.2156,1.1894,1.1797,1.1797,1.1797,1.1797,1.1797,1.1797,1.1797,1.1797,1.1797,1.1516,1.1161,1.1036,1.0641,1.0223,1.0065,0.997,0.9925,1.0021,0.997,0.9925,1.0021,0.9963,0.9899,0.9899,0.9899,0.9899,0.9899,0.9899,0.9899,0.9899,0.9899,0.9937,1.0033,1.0726,1.094,1.0343,1.0908,1.0985,1.0223,1.0327,1.0248,0.9912,0.9899,0.9899,0.9899,0.9809,0.9443,0.8803,0.8706,0.8331,0.77,0.77,0.7763,0.9034,0.8933,0.889,0.8959,0.8973,0.8973,0.8969,0.8978,0.9024,0.9227,0.9379,0.9515,0.9649,0.9848,0.9987,0.9989,1.0047,1.0102,1.0102,1.0104,1.0104,1.0104,1.0848,1.1307,1.1179,1.1949,1.2462,1.2465,1.3808,1.4642,1.4675,1.4537,1.4475,1.4503,1.4301,1.4304,1.4503,1.4295,1.4204,1.4197,1.399,1.3789,1.3594,1.3462,1.3405,1.3396,1.3405,1.3243,1.2987,1.3013,1.2851,1.2601,1.261,1.261,1.2572,1.2291,1.2187,1.2156,1.1894,1.1797,1.1797,1.1797,1.1797,1.1797,1.1797,1.1797,1.1797,1.1797,1.137,1.0973,1.1219,1.0604,1.0002,1.0304,1.0141,0.9983,1.0304,1.0129,0.9995,1.0316,1.0116,0.9899,0.9899,0.9899,0.9899,0.9899,0.9899,0.9899,0.9899,0.9899,1.0021,1.0352,1.0702,1.1006,1.1241,1.1281,1.1177,1.0893,1.0574,1.0248,0.9912,0.9899,0.9899,0.9899,0.9574,0.9216,0.8803,0.8472,0.8105,0.77,0.77,0.7939,0.9409,0.9379,0.9393,0.9503,0.9529,0.9551,0.9642,0.9663,0.9698,0.9803,0.9865,0.9925,1.0015,1.0053,1.007,1.007,1.0094,1.0298,1.0877,1.0893,1.1043,1.1624,1.1869,1.198,1.1929,1.2719,1.3227,1.3227,1.4063,1.4612,1.4702,1.4569,1.4503,1.4503,1.4432,1.4432,1.4503,1.4432,1.427,1.3997,1.3712,1.3535,1.347,1.3421,1.3294,1.3138,1.332,1.3148,1.275,1.2924,1.2739,1.2372,1.273,1.2646,1.2352,1.2426,1.2344,1.2156,1.1894,1.1797,1.1797,1.1797,1.1797,1.1797,1.1797,1.1797,1.1797,1.1797,1.1497,1.1157,1.1059,1.0641,1.026,1.0366,1.0304,1.0323,1.0655,1.0471,1.0266,1.0378,1.0129,0.9899,0.9899,0.9899,0.9899,0.9899,0.9899,0.9899,0.9899,0.9899,1.0034,1.0366,1.0508,1.069,1.1013,1.0826,1.0664,1.0569,1.0248,1.0021,0.9905,0.9899,0.9899,0.9899,0.9783,0.943,0.8803,0.8684,0.8466,0.8159,0.8159,0.8384,0.971,0.9742,0.9805,0.9917,0.9948,0.9965,1.0053,1.0067,1.0077,1.0134,1.0138,1.0139,1.0164,1.0106,1.0058,1.0058,1.0329,1.0731,1.1319,1.1551,1.1869,1.2433,1.2658,1.2744,1.2703,1.3478,1.3857,1.3549,1.4134,1.4539,1.4619,1.455,1.4503,1.4503,1.4503,1.4503,1.4503,1.4503,1.4304,1.3906,1.3612,1.3454,1.3405,1.3405,1.3311,1.3147,1.3329,1.3095,1.262,1.2896,1.2682,1.2249,1.2794,1.2673,1.2231,1.2494,1.2366,1.2031,1.1862,1.1797,1.1797,1.1797,1.1797,1.1797,1.1797,1.1797,1.1797,1.1797,1.1486,1.1145,1.1059,1.0629,1.0248,1.0366,1.0304,1.031,1.0655,1.0465,1.026,1.0378,1.0129,0.9899,0.9899,0.9899,0.9899,0.9899,0.9899,0.9899,0.9899,0.9899,0.9983,1.0198,1.0328,1.0495,1.0703,1.0513,1.0403,1.0403,1.0091,0.9899,0.9899,0.9899,0.9899,0.9899,1.0087,0.982,0.9051,0.9245,0.9082,0.8615,0.8615,0.8828,0.991,1.0012,1.0116,1.0192,1.0209,1.0209,1.0209,1.0209,1.0209,1.0209,1.0197,1.018,1.011,1.0047,0.9999,0.9997,1.0732,1.1342,1.145,1.2099,1.257,1.2614,1.3231,1.36,1.3476,1.4211,1.4356,1.3522,1.4099,1.4503,1.4503,1.4503,1.4503,1.4503,1.4503,1.4503,1.4503,1.4476,1.4276,1.3883,1.3685,1.3525,1.3405,1.3405,1.3405,1.3405,1.3405,1.3113,1.2658,1.2906,1.2701,1.2289,1.2804,1.2673,1.2231,1.2494,1.2266,1.1797,1.1797,1.1797,1.1797,1.1797,1.1797,1.1797,1.1797,1.1797,1.1797,1.1797,1.137,1.0956,1.1219,1.0592,0.9989,1.0316,1.016,1.0021,1.0353,1.016,1.0021,1.0341,1.0129,0.9899,0.9899,0.995,0.9969,0.9931,0.9975,0.9988,0.9912,0.9899,0.9899,0.9899,1.0173,1.0391,1.0418,1.0424,1.0431,1.0458,1.0155,0.9974,0.9943,0.9968,0.9974,0.9943,1.0469,1.0356,0.9571,1.0081,0.9907,0.9106,0.9084,0.928,1.0109,1.0153,1.0189,1.026,1.0271,1.0271,1.0271,1.0271,1.0271,1.0271,1.0234,1.0176,1.0112,1.0094,1.0063,1.0011,1.0775,1.1606,1.2274,1.2925,1.3575,1.4278,1.4312,1.4298,1.4356,1.4477,1.4458,1.4239,1.4386,1.4503,1.4503,1.4503,1.4503,1.4503,1.4503,1.4503,1.4503,1.4195,1.3934,1.3668,1.3517,1.3429,1.3405,1.3405,1.3405,1.3405,1.3405,1.332,1.3191,1.305,1.2923,1.2813,1.295,1.2673,1.2231,1.2494,1.2266,1.1797,1.1797,1.1797,1.1797,1.1797,1.1797,1.1797,1.1797,1.1797,1.1797,1.1797,1.137,1.092,1.0977,1.0453,0.9989,1.0316,1.0328,1.036,1.0703,1.0514,1.0304,1.0378,1.0129,0.9899,0.9899,1.0521,1.0854,1.0351,1.1044,1.1196,1.0045,0.9899,0.9899,0.9899,0.997,1.0186,1.0592,1.0624,1.0815,1.1267,1.1206,1.0966,1.0506,1.0929,1.096,1.0507,1.1073,1.1111,1.0623,1.0753,1.0724,1.0555,1.0221,1.0249,1.0194,1.0224,1.0252,1.0293,1.0303,1.0303,1.0303,1.0303,1.0303,1.0303,1.0252,1.0178,1.0108,1.0046,1.0006,0.9997,1.0741,1.1639,1.257,1.3219,1.3938,1.4849,1.4693,1.4528,1.4598,1.4535,1.4503,1.4503,1.4503,1.4503,1.4503,1.4503,1.4503,1.4503,1.4503,1.4458,1.4368,1.406,1.3804,1.3601,1.3462,1.3405,1.3405,1.3405,1.3405,1.3405,1.3405,1.3277,1.3051,1.3006,1.286,1.2663,1.2786,1.2569,1.2218,1.2364,1.2161,1.1797,1.1797,1.1797,1.1797,1.1797,1.1797,1.1797,1.1797,1.1797,1.1797,1.1797,1.137,1.0897,1.0897,1.0398,0.9944,1.0141,1.036,1.0573,1.0768,1.0873,1.0844,1.0586,1.0383,1.025,1.025,1.0935,1.1365,1.0987,1.1505,1.1614,1.0763,1.0646,1.0646,1.0646,1.0646,1.0765,1.1065,1.109,1.1242,1.1584,1.1603,1.1458,1.1117,1.1418,1.1431,1.1096,1.1663,1.1736,1.1316,1.1542,1.1569,1.1395,1.1146,1.1149,1.02,1.0252,1.0303,1.0303,1.0303,1.0303,1.0303,1.0293,1.0293,1.0303,1.0254,1.0183,1.011,0.9997,0.9941,0.9982,1.0686,1.1574,1.2543,1.3216,1.3947,1.4808,1.4682,1.4537,1.4537,1.4514,1.4503,1.4503,1.4503,1.4503,1.4503,1.4503,1.4503,1.4503,1.4503,1.4387,1.4162,1.399,1.3789,1.357,1.3454,1.3405,1.3405,1.3405,1.3405,1.3405,1.3405,1.3139,1.2715,1.2924,1.2738,1.233,1.2524,1.2443,1.2197,1.2197,1.2031,1.1797,1.1797,1.1797,1.1797,1.1797,1.1797,1.1797,1.1797,1.1797,1.1797,1.1797,1.137,1.0897,1.0897,1.0457,1.0012,1.0012,1.0419,1.082,1.082,1.1236,1.1458,1.0921,1.082,1.082,1.082,1.1356,1.1754,1.1663,1.1798,1.1868,1.1777,1.1677,1.1603,1.1603,1.1603,1.1634,1.1694,1.171,1.1747,1.1801,1.1807,1.1776,1.1701,1.1763,1.1785,1.171,1.2234,1.2314,1.1898,1.2375,1.2372,1.1975,1.192,1.1884,1.0198,1.0252,1.0303,1.0303,1.0303,1.0303,1.0303,1.0262,0.0,1.0293,1.0251,1.0184,1.0115,1.0078,1.0027,0.9933,1.0731,1.1638,1.2423,1.3246,1.407,1.4889,1.4789,1.4671,1.4671,1.4573,1.4503,1.4503,1.4503,1.4503,1.4503,1.4503,1.4503,1.4503,1.4503,1.4314,1.3962,1.392,1.374,1.3429,1.3413,1.3405,1.3405,1.3405,1.3405,1.3405,1.3405,1.3354,1.3252,1.3068,1.295,1.2833,1.2666,1.2443,1.2197,1.2197,1.2031,1.1797,1.1797,1.1797,1.1797,1.1797,1.1797,1.1797,1.1797,1.1797,1.1797,1.1797,1.137,1.0897,1.0897,1.0728,1.0556,1.0556,1.1002,1.1437,1.1437,1.1534,1.1578,1.1456,1.1437,1.1437,1.1437,1.2178,1.257,1.2004,1.2827,1.3304,1.2745,1.2042,1.1603,1.1603,1.1603,1.1785,1.2212,1.2256,1.2444,1.2885,1.291,1.2726,1.2284,1.2689,1.2714,1.2262,1.2789,1.302,1.2945,1.3021,1.3036,1.2943,1.2561,1.2377,1.02,1.0215,1.0262,1.0293,1.0303,1.0303,1.0303,0.0,0.0,0.0,1.0252,1.019,1.0156,1.01,1.0027,0.9961,1.0331,1.1062,1.232,1.277,1.3465,1.479,1.4738,1.4602,1.4602,1.4539,1.4503,1.4503,1.4503,1.4503,1.4503,1.4503,1.4503,1.4503,1.4402,1.4204,1.3897,1.3796,1.3627,1.3405,1.3405,1.3405,1.3405,1.3405,1.3405,1.3405,1.3405,1.3243,1.2971,1.2843,1.2628,1.2364,1.2235,1.211,1.1989,1.1989,1.1915,1.1797,1.1797,1.1797,1.1797,1.1797,1.1797,1.1797,1.1797,1.1797,1.1797,1.1797,1.1573,1.1323,1.1323,1.1241,1.1173,1.1173,1.16,1.2096,1.2369,1.2206,1.2015,1.2015,1.2015,1.2015,1.2015,1.2625,1.2984,1.2673,1.3144,1.3417,1.3105,1.2696,1.2425,1.2425,1.2425,1.2538,1.2795,1.2826,1.2939,1.3179,1.3198,1.3079,1.2833,1.306,1.3079,1.281,1.3066,1.3198,1.3198,1.3198,1.3198,1.3198,1.2978,1.2867,1.0196,1.0203,1.0219,1.0283,1.0303,1.0303,1.0303,1.025,0.0,1.0293,1.0243,1.0176,1.0201,1.0087,0.9999,0.9984,0.9938,1.0435,1.1995,1.2228,1.2826,1.443,1.4574,1.4528,1.4503,1.4503,1.4503,1.4503,1.4503,1.4503,1.4503,1.4503,1.4503,1.4503,1.4301,1.4101,1.3897,1.37,1.3524,1.3405,1.3405,1.3405,1.3405,1.3405,1.3405,1.3405,1.3405,1.313,1.2685,1.262,1.2316,1.1883,1.1819,1.1797,1.1797,1.1797,1.1797,1.1797,1.1797,1.1797,1.1797,1.1797,1.1797,1.1797,1.1797,1.1797,1.1827,1.1969,1.1925,1.1848,1.1895,1.1903,1.1904,1.1939,1.2256,1.2689,1.311,1.286,1.2569,1.2569,1.2569,1.2569,1.2569,1.291,1.3198,1.3198,1.3198,1.3198,1.3198,1.3198,1.3198,1.3198,1.3198,1.3198,1.3198,1.3198,1.3198,1.3198,1.3198,1.3198,1.3198,1.3198,1.3198,1.3198,1.3198,1.3198,1.3198,1.3198,1.3198,1.3198,1.3198,1.3198,1.0179,1.0203,1.0219,1.0283,1.0303,1.0303,1.0303,0.0,1.0221,1.0292,1.0195,1.0135,1.0194,1.0087,0.0,0.0,0.0,1.0235,1.1191,1.1934,1.2706,1.3607,1.4293,1.4635,1.4505,1.4503,1.4503,1.4503,1.4503,1.4503,1.4503,1.4503,1.4503,1.4503,1.4301,1.4101,1.3897,1.37,1.3524,1.3405,1.3405,1.3405,1.3405,1.3405,1.3405,1.3405,1.3405,1.3226,1.2942,1.2704,1.2433,1.2136,1.1894,1.1797,1.1797,1.1797,1.1797,1.1797,1.1797,1.1797,1.1797,1.1797,1.1797,1.1797,1.1797,1.1797,1.1925,1.2534,1.2486,1.2299,1.2545,1.2749,1.2899,1.3017,1.3085,1.3135,1.3192,1.316,1.3129,1.3129,1.3129,1.3129,1.3129,1.3167,1.3198,1.3198,1.3198,1.3198,1.3198,1.3198,1.3198,1.3198,1.3198,1.3198,1.3198,1.3198,1.3198,1.3198,1.3198,1.3198,1.3198,1.3198,1.3198,1.3198,1.3198,1.3198,1.3198,1.3198,1.3198,1.3198,1.3198,1.3198,1.0176,1.0202,1.0206,1.023,1.0273,1.0303,1.0303,1.0253,1.0218,1.0292,1.0186,1.0115,1.0127,1.006,0.9969,0.0,0.0,0.0,1.1022,1.1356,1.201,1.3377,1.3732,1.4034,1.4462,1.4503,1.4503,1.4503,1.4503,1.4503,1.4503,1.4503,1.4503,1.4503,1.4191,1.3983,1.3897,1.362,1.3454,1.3405,1.3405,1.3405,1.3405,1.3405,1.3405,1.3388,1.3234,1.3103,1.2978,1.2714,1.2443,1.2187,1.2084,1.1947,1.1797,1.1797,1.1797,1.1797,1.1797,1.1797,1.1797,1.1797,1.1797,1.1797,1.1797,1.1797,1.1932,1.2609,1.2824,1.2951,1.3423,1.3725,1.3862,1.3667,1.3802,1.3977,1.3977,1.3785,1.3615,1.3615,1.3391,1.3198,1.3198,1.3198,1.3198,1.3198,1.3198,1.3198,1.3198,1.3198,1.3198,1.3198,1.3198,1.3198,1.3198,1.3198,1.3198,1.3198,1.3198,1.3198,1.3198,1.3198,1.3198,1.3198,1.3198,1.3198,1.3198,1.3198,1.3198,1.3198,1.3198,1.3198,1.0172,1.0198,1.0203,1.0203,1.0241,1.0283,1.0303,1.0246,1.0208,1.0264,1.0204,1.012,1.0104,1.0029,0.9932,0.0,0.0,0.9991,1.0631,1.0819,1.1368,1.2641,1.3128,1.3571,1.4121,1.4373,1.4503,1.4503,1.4503,1.4503,1.4503,1.4503,1.4503,1.4503,1.4169,1.3962,1.3897,1.3613,1.3438,1.3405,1.3405,1.3405,1.3405,1.3405,1.3354,1.3269,1.3085,1.2951,1.287,1.2685,1.2485,1.2312,1.2228,1.2076,1.1905,1.183,1.1797,1.1827,1.2033,1.2108,1.2127,1.2328,1.2388,1.2388,1.2388,1.2254,1.2242,1.2909,1.3423,1.3861,1.4285,1.4445,1.4438,1.4133,1.4294,1.4501,1.4501,1.4278,1.4042,1.3917,1.3632,1.3357,1.3215,1.3198,1.3198,1.3198,1.3198,1.3198,1.3198,1.3198,1.3198,1.3198,1.3198,1.3198,1.3198,1.3198,1.3198,1.3198,1.3198,1.3198,1.3198,1.3198,1.3198,1.3198,1.3198,1.3198,1.3198,1.3198,1.3198,1.3198,1.3198,1.3309,1.0146,1.0201,1.0199,1.02,1.0197,1.0219,1.0283,1.0252,1.0202,1.0201,1.0197,1.0182,1.0114,0.9996,0.9878,0.9808,0.0,0.0,0.9803,1.0435,1.096,1.1105,1.2535,1.3481,1.342,1.4068,1.4503,1.4503,1.4503,1.4503,1.4503,1.4503,1.4503,1.4503,1.4301,1.4101,1.3897,1.37,1.3533,1.3405,1.3405,1.3405,1.3405,1.3405,1.326,1.2996,1.2996,1.2851,1.2593,1.2601,1.2601,1.2572,1.2302,1.2197,1.2167,1.1894,1.1797,1.1887,1.2557,1.2793,1.2894,1.3563,1.3775,1.3775,1.3775,1.3316,1.2924,1.3608,1.4414,1.5082,1.509,1.4799,1.4501,1.4485,1.4501,1.4501,1.4501,1.4501,1.4374,1.3977,1.3901,1.3759,1.3278,1.3198,1.3198,1.3198,1.3198,1.3198,1.3198,1.3198,1.3198,1.3198,1.3198,1.3198,1.3198,1.3198,1.3198,1.3198,1.3198,1.3198,1.3198,1.3198,1.3198,1.3198,1.3198,1.3198,1.3198,1.3198,1.3198,1.3198,1.3198,1.3521,1.0108,1.0166,1.0197,1.0204,1.0225,1.0273,1.0303,1.0254,1.0195,1.02,1.013,1.0042,0.9979,0.9887,0.9947,1.0294,1.0443,0.0,1.0363,1.1146,1.1742,1.1777,1.3199,1.4184,1.4149,1.4354,1.4503,1.4503,1.4503,1.4503,1.4503,1.4503,1.4503,1.4503,1.4169,1.396,1.3897,1.3604,1.3446,1.3405,1.3405,1.3405,1.3405,1.3405,1.3251,1.2987,1.2814,1.2778,1.2842,1.2481,1.2426,1.2591,1.2512,1.2253,1.1937,1.2042,1.1958,1.1895,1.2576,1.2801,1.2909,1.3585,1.3797,1.3797,1.3797,1.3648,1.3623,1.4288,1.5006,1.55,1.518,1.5247,1.5307,1.499,1.5165,1.5389,1.5389,1.5134,1.4867,1.4737,1.4278,1.3852,1.3692,1.3408,1.3198,1.3198,1.3552,1.3815,1.3815,1.4142,1.4224,1.3847,1.4057,1.3955,1.3264,1.3198,1.3198,1.3198,1.3198,1.3198,1.3198,1.3198,1.3198,1.3198,1.3198,1.3198,1.3198,1.3603,1.4004,1.4356,1.4356,1.4463,0.0,1.0166,1.0197,1.0197,1.0226,1.0263,1.0263,1.0212,1.0156,1.016,1.0061,0.9927,0.9808,0.9756,0.9807,1.0067,1.0213,1.0349,1.0504,1.1126,1.1833,1.2544,1.3493,1.4211,1.4547,1.4528,1.4503,1.4503,1.4503,1.4503,1.4503,1.4503,1.4464,1.4387,1.4134,1.3941,1.3789,1.358,1.3446,1.3405,1.3405,1.3405,1.3405,1.3405,1.32,1.2842,1.2668,1.2638,0.0,1.234,1.2422,1.2732,1.2639,1.2455,1.2243,1.221,1.2094,1.2027,1.2599,1.2969,1.3291,1.3959,1.4348,1.4543,1.4543,1.4378,1.4318,1.499,1.5484,1.5733,1.5433,1.558,1.5733,1.5433,1.5595,1.5799,1.5799,1.558,1.5307,1.5134,1.4894,1.4611,1.4259,1.4176,1.4061,1.3866,1.4161,1.44,1.44,1.4695,1.4777,1.4431,1.4809,1.4821,1.4199,1.3905,1.3702,1.3558,1.354,1.354,1.354,1.3328,1.3315,1.354,1.354,1.364,1.3836,1.423,1.4569,1.4896,1.5104,1.5204,0.0,1.0202,1.0204,1.0204,1.0198,1.0203,1.0201,1.0152,0.0,1.0105,0.9988,0.9829,0.9642,0.96,0.9548,0.9388,0.9422,0.9709,1.0387,1.0724,1.1547,1.336,1.3523,1.3801,1.4612,1.4569,1.4503,1.4503,1.4503,1.4488,1.4476,1.4488,1.4393,1.4162,1.4169,1.399,1.3617,1.3585,1.3525,1.3405,1.3405,1.3405,1.3405,1.3405,1.3122,1.263,1.261,1.2463,1.2228,1.2187,1.2491,1.295,1.2695,1.2741,1.2895,1.241,1.2208,1.2243,1.2716,1.3283,1.3922,1.4646,1.5282,1.5799,1.5799,1.5371,1.4998,1.5626,1.5799,1.5799,1.5799,1.5799,1.5799,1.5799,1.5799,1.5799,1.5799,1.5799,1.5683,1.5283,1.569,1.5834,1.5016,1.5324,1.5534,1.5038,1.4966,1.4953,1.4953,1.4984,1.4991,1.4953,1.5456,1.5771,1.5719,1.5131,1.4603,1.4251,1.4178,1.4166,1.4166,1.3622,1.359,1.4154,1.4166,1.4418,1.4953,1.4953,1.4972,1.5022,1.5511,1.5756,1.019,0.0,1.0203,1.0196,1.0205,1.0202,0.0,1.0155,0.0,0.0,0.0,0.0,0.0,0.9555,0.9623,0.9938,1.0588,1.1116,1.1291,1.2112,1.3076,1.414,1.4254,1.4322,1.4532,1.4526,1.4503,1.4503,1.4503,1.4432,1.4276,1.442,1.427,1.376,1.389,1.3881,1.3677,1.3527,1.3429,1.3405,1.3405,1.3405,1.3405,1.3405,1.3217,1.2888,1.2695,1.2562,1.2475,1.2058,1.2213,1.2695,1.262,1.2512,1.24,1.2483,1.2253,1.2049,1.3183,1.3675,1.4004,1.5178,1.5671,1.5799,1.5799,1.5694,1.5604,1.5754,1.5799,1.5799,1.5799,1.5799,1.5799,1.5799,1.5799,1.5799,1.5799,1.5799,1.5897,1.6254,1.6206,1.6189,1.6485,1.6065,1.5657,1.5534,1.5504,1.5519,1.5519,1.5869,1.5969,1.5569,1.6269,1.6486,1.5753,1.555,1.5415,1.5337,1.4948,1.4714,1.4714,1.4576,1.4569,1.4714,1.4714,1.4991,1.5519,1.5519,1.5718,1.6132,1.6243,1.63,1.0138,1.0185,1.0203,1.0203,1.0182,1.015,1.0145,0.0,0.0,0.0,0.0,0.0,0.0,0.0,0.9492,1.0024,1.0534,1.1166,1.2031,1.3052,1.3906,1.4442,1.4503,1.4503,1.4503,1.4503,1.4503,1.4503,1.4503,1.4443,1.4341,1.4347,1.4169,1.3752,1.3743,1.3703,1.356,1.3446,1.3405,1.3405,1.3405,1.3405,1.3405,1.3405,1.3251,1.2987,1.2851,1.2638,1.2404,1.2243,1.2346,1.261,1.2741,1.2693,1.2608,1.2939,1.2796,1.2575,1.348,1.4004,1.4423,1.5455,1.5799,1.5799,1.5799,1.5799,1.5799,1.5799,1.5799,1.5799,1.5799,1.5799,1.5799,1.5799,1.5799,1.5799,1.5799,1.6024,1.6308,1.6644,1.7023,1.7327,1.744,1.7293,1.6994,1.6511,1.6433,1.6341,1.6091,1.6312,1.6381,1.6107,1.6957,1.7254,1.6499,1.6659,1.6595,1.6087,1.5562,1.5273,1.5273,1.5022,1.5029,1.5261,1.5519,1.5775,1.6076,1.6076,1.6227,1.6494,1.6494,1.6494,1.008,1.0121,1.0159,1.017,1.0133,1.009,0.0,0.0,0.0,0.0,0.0,0.0,0.0,0.9294,0.9466,0.9922,1.0244,1.102,1.2732,1.371,1.431,1.4476,1.4503,1.4503,1.4503,1.4503,1.4503,1.4503,1.4503,1.4491,1.4458,1.4289,1.4094,1.3862,1.3692,1.3541,1.3396,1.3405,1.3405,1.3405,1.3405,1.3405,1.3405,1.3405,1.3286,1.3058,1.3022,1.2739,1.234,1.2524,1.262,1.2677,1.2915,1.2978,1.2987,1.3434,1.3395,1.3225,1.3757,1.4386,1.505,1.5619,1.5799,1.5799,1.5799,1.5799,1.5799,1.5799,1.5799,1.5799,1.5799,1.5799,1.5799,1.5799,1.5799,1.5836,1.5919,1.6338,1.6756,1.6973,1.7923,1.8587,1.823,1.8514,1.8477,1.7565,1.7271,1.7013,1.6558,1.6494,1.6494,1.6494,1.747,1.788,1.7347,1.7787,1.7669,1.6685,1.6126,1.5819,1.5819,1.5393,1.5361,1.5812,1.6277,1.6494,1.6494,1.6494,1.6494,1.6494,1.6494,1.6494,0.9996,0.9977,0.9963,1.0017,1.0073,1.0065,0.0,0.0,0.0,0.0,0.0,0.0,0.0,0.9758,1.0215,1.0032,1.1332,1.2695,1.3597,1.4151,1.4464,1.4497,1.4503,1.4503,1.4503,1.4503,1.4503,1.4503,1.4503,1.4426,1.4257,1.4216,1.4024,1.3662,1.3616,1.3541,1.3396,1.3405,1.3405,1.3405,1.3405,1.3405,1.3405,1.3405,1.3388,1.3329,1.3103,1.295,1.286,1.2676,1.2732,1.2942,1.2978,1.2861,1.2737,1.3373,1.3287,1.3028,1.4232,1.5088,1.5664,1.5769,1.5799,1.5799,1.5799,1.5799,1.5799,1.5799,1.5799,1.5799,1.5799,1.5799,1.5799,1.5799,1.5799,1.5934,1.6443,1.6637,1.7048,1.8169,1.8568,1.884,1.9339,1.8771,1.8178,1.8,1.7188,1.6595,1.6515,1.6494,1.6494,1.6494,1.747,1.788,1.7347,1.7787,1.7846,1.7227,1.6667,1.6375,1.6375,1.6293,1.6281,1.639,1.6456,1.6494,1.6494,1.6494,1.6494,1.6494,1.6494,1.6494,0.9896,0.9844,0.98,0.9828,0.9885,0.9926,0.0,0.0,0.0,0.0,0.0,0.0,0.0,0.9802,1.0641,1.1391,1.2654,1.3669,1.4013,1.4307,1.4503,1.4503,1.4503,1.4503,1.4503,1.4503,1.4503,1.4503,1.4503,1.4458,1.4368,1.4156,1.3946,1.3767,1.3588,1.3453,1.3396,1.3405,1.3405,1.3405,1.3405,1.3405,1.3405,1.3405,1.3405,1.3388,1.3269,1.3129,1.2996,1.3016,1.3024,1.3014,1.3156,1.2961,1.269,1.3433,1.3781,1.4043,1.5205,1.5683,1.5827,1.6004,1.5941,1.5799,1.5799,1.5799,1.5799,1.5799,1.5799,1.5799,1.5799,1.5799,1.5799,1.5799,1.6054,1.6361,1.6644,1.7272,1.796,1.8583,1.8986,1.9348,1.9655,1.9288,1.8772,1.8197,1.7686,1.7153,1.658,1.6494,1.6494,1.6494,1.7188,1.7449,1.6915,1.7367,1.7449,1.6894,1.6637,1.6494,1.6494,1.6494,1.6494,1.6494,1.6494,1.6494,1.6494,1.6494,1.6494,1.6494,1.6494,1.6494,0.9811,0.9723,0.9658,0.0,0.0,0.0,0.0,0.0,0.0,0.0,0.0,0.0,0.9489,1.0073,1.1162,1.2853,1.3728,1.4204,1.4204,1.4375,1.4503,1.4503,1.4503,1.4503,1.4503,1.4458,1.4453,1.4497,1.4458,1.4426,1.4426,1.4094,1.3876,1.3833,1.3551,1.3405,1.3405,1.3405,1.3405,1.3405,1.3405,1.3405,1.3405,1.3405,1.3405,1.3405,1.3405,1.3277,1.3112,1.332,1.3277,1.3112,1.332,1.3267,1.3142,1.3707,1.4434,1.5273,1.6115,1.6246,1.606,1.6246,1.613,1.5906,1.5827,1.5799,1.5799,1.5799,1.5799,1.5799,1.5799,1.5799,1.5799,1.5799,1.6256,1.6733,1.689,1.7863,1.8755,1.8904,1.9338,1.97,1.97,1.9603,1.9225,1.8419,1.8059,1.7626,1.6795,1.6573,1.6494,1.6494,1.6972,1.7132,1.6716,1.6951,1.6936,1.6537,1.6494,1.6494,1.6494,1.6494,1.6494,1.6494,1.6494,1.6494,1.6494,1.6494,1.6494,1.6494,1.6494,1.6494,0.9798,0.966,0.9541,0.0,0.0,0.0,0.0,0.0,0.0,0.0,0.0,0.0,1.0559,1.1007,1.2077,1.3814,1.4161,1.4204,1.4204,1.4375,1.4503,1.4503,1.4503,1.4503,1.4503,1.4329,1.4295,1.4491,1.4329,1.4223,1.4223,1.4026,1.3802,1.3631,1.3478,1.3405,1.3405,1.3405,1.3405,1.3405,1.3405,1.3405,1.3405,1.3405,1.3405,1.3405,1.3405,1.3388,1.3371,1.3388,1.3396,1.3371,1.3388,1.383,1.4437,1.4312,1.5082,1.6245,1.663,1.6751,1.6672,1.6388,1.6279,1.6205,1.5891,1.5799,1.5799,1.5799,1.5799,1.5799,1.5799,1.5799,1.5799,1.5799,1.6256,1.6868,1.7488,1.8184,1.8882,1.9521,1.967,1.97,1.97,1.9288,1.893,1.8848,1.8,1.7333,1.725,1.6816,1.6494,1.6494,1.6972,1.7271,1.725,1.6816,1.6537,1.6494,1.6494,1.6494,1.6494,1.6494,1.6494,1.6494,1.6494,1.6494,1.6494,1.6494,1.6494,1.6494,1.6494,1.6494,0.9503,0.91,0.0,0.0,0.0,0.0,0.0,0.0,0.0,0.0,0.0,0.0,1.2084,1.2338,1.2941,1.4177,1.4387,1.4387,1.4387,1.4443,1.4503,1.4503,1.4503,1.4503,1.4503,1.4432,1.442,1.4488,1.4307,1.4204,1.4204,1.389,1.3677,1.3601,1.347,1.3405,1.3405,1.3405,1.3405,1.3405,1.3405,1.3405,1.3405,1.3405,1.3405,1.3405,1.3405,1.3405,1.3405,1.3405,1.3405,1.3379,1.3217,1.3343,1.368,1.432,1.4877,1.545,1.6448,1.6659,1.6461,1.6334,1.6157,1.5977,1.5842,1.5799,1.5799,1.5799,1.5799,1.5799,1.5799,1.5799,1.5881,1.6263,1.6846,1.7519,1.8177,1.8852,1.9408,1.9655,1.97,1.97,1.97,1.9522,1.9288,1.8949,1.8554,1.804,1.7388,1.7111,1.6873,1.6537,1.6674,1.6795,1.6795,1.6616,1.6494,1.6494,1.6494,1.6494,1.6494,1.6494,1.6494,1.6494,1.6494,1.6494,1.6494,1.6494,1.6494,1.6494,1.6494,1.6494,0.9075,0.8775,0.0,0.0,0.0,0.0,0.0,0.0,0.0,0.0,1.1958,1.2291,1.3354,1.3127,1.3158,1.4308,1.4503,1.4503,1.4503,1.4503,1.4503,1.4503,1.4503,1.4503,1.4503,1.4437,1.4432,1.4497,1.4248,1.4116,1.4116,1.3773,1.3578,1.3532,1.3454,1.3405,1.3405,1.3405,1.3405,1.3405,1.3405,1.3405,1.3405,1.3405,1.3405,1.3405,1.3405,1.3405,1.3405,1.3405,1.3405,1.3371,1.3095,1.3211,1.3599,1.4406,1.4983,1.5499,1.6466,1.6717,1.6586,1.6375,1.6136,1.5934,1.5827,1.5799,1.5799,1.5799,1.5799,1.5799,1.5799,1.5799,1.5949,1.6562,1.7212,1.7885,1.856,1.9226,1.97,1.97,1.97,1.97,1.97,1.97,1.9584,1.9207,1.9006,1.8574,1.7666,1.7408,1.7153,1.6795,1.6752,1.6752,1.6752,1.6752,1.6674,1.6515,1.6494,1.6494,1.6494,1.6494,1.6494,1.6494,1.6494,1.6494,1.6494,1.6494,1.6494,1.6494,1.6494,1.6494,0.855,0.8783,0.0,0.0,0.0,0.0,0.0,0.0,0.0,0.0,1.2122,1.2609,1.4209,1.3205,1.2645,1.4237,1.4503,1.4503,1.4503,1.4503,1.4503,1.4503,1.4503,1.4503,1.4503,1.4323,1.4292,1.4491,1.4129,1.3897,1.3897,1.3707,1.3541,1.3405,1.3405,1.3405,1.3405,1.3405,1.3405,1.3405,1.3405,1.3405,1.3405,1.3405,1.3405,1.3405,1.3405,1.3405,1.3405,1.3405,1.3405,1.3371,1.3112,1.366,1.4606,1.4677,1.5591,1.6794,1.6802,1.7022,1.7179,1.6506,1.6301,1.6225,1.5906,1.5799,1.5799,1.5799,1.5799,1.5799,1.5799,1.5799,1.5956,1.657,1.7227,1.7893,1.8568,1.9226,1.97,1.97,1.97,1.97,1.97,1.97,1.97,1.97,1.9244,1.8715,1.8178,1.7626,1.7291,1.7291,1.7291,1.7291,1.7312,1.7312,1.707,1.6558,1.6515,1.6494,1.6494,1.6494,1.6494,1.6494,1.6494,1.6494,1.6494,1.6494,1.6494,1.6494,1.6494,1.6494,0.8247,0.0,0.0,0.0,0.0,0.0,0.0,0.0,0.0,0.0,1.3787,1.3934,1.4411,1.4108,1.3943,1.442,1.4503,1.4503,1.4503,1.4503,1.4503,1.4503,1.4503,1.4503,1.4503,1.4453,1.4441,1.4497,1.4129,1.3897,1.3897,1.362,1.3438,1.3396,1.3405,1.3405,1.3405,1.3405,1.3405,1.3405,1.3405,1.3405,1.3405,1.3405,1.3405,1.3405,1.3405,1.3405,1.3405,1.3405,1.3405,1.3388,1.3303,1.3793,1.4589,1.5128,1.5789,1.6418,1.6702,1.6704,1.652,1.6088,1.5941,1.5934,1.5827,1.5799,1.5799,1.5799,1.5799,1.5799,1.5799,1.6106,1.6607,1.7249,1.7923,1.8597,1.9256,1.9565,1.97,1.97,1.97,1.97,1.97,1.97,1.97,1.97,1.9566,1.9125,1.8217,1.7312,1.6738,1.6738,1.6738,1.6894,1.7271,1.6951,1.6993,1.7585,1.6915,1.6494,1.6494,1.6494,1.6494,1.6494,1.6494,1.6494,1.6494,1.6494,1.6494,1.6494,1.6494,1.6494,0.8126,0.0,0.0,0.0,0.0,0.9625,1.0855,0.0,0.0,0.0,1.4251,1.4123,1.4438,1.4242,1.4132,1.4448,1.4503,1.4503,1.4503,1.4503,1.4503,1.4503,1.4503,1.4503,1.4503,1.4503,1.4503,1.4503,1.4129,1.3897,1.3897,1.3582,1.3405,1.3405,1.3405,1.3405,1.3405,1.3405,1.3405,1.3405,1.3405,1.3405,1.3405,1.3405,1.3405,1.3405,1.3405,1.3405,1.3405,1.3405,1.3405,1.3405,1.3405,1.3951,1.4777,1.5089,1.5731,1.6435,1.6412,1.6361,1.6246,1.5906,1.5799,1.5799,1.5799,1.5799,1.5799,1.5799,1.5799,1.5799,1.5799,1.645,1.7204,1.7593,1.8207,1.8882,1.9565,1.97,1.97,1.97,1.97,1.97,1.97,1.97,1.97,1.97,1.9522,1.9069,1.8217,1.7347,1.6816,1.6816,1.6816,1.6951,1.7271,1.6993,1.6993,1.7449,1.6852,1.6494,1.6494,1.6494,1.6494,1.6494,1.6494,1.6494,1.6494,1.6494,1.6494,1.6494,1.6494,1.6494,0.0,0.0,0.0,0.0,0.9175,0.0,1.1603,1.2669,1.3528,1.4328,1.3921,1.3633,1.4365,1.3893,1.3651,1.4383,1.4503,1.4503,1.4503,1.4503,1.4503,1.4503,1.4503,1.4503,1.4503,1.4503,1.4488,1.447,1.4123,1.389,1.3869,1.3566,1.3405,1.3405,1.3405,1.3405,1.3405,1.3405,1.3405,1.3405,1.3405,1.3405,1.3405,1.3405,1.3405,1.3405,1.3405,1.3405,1.3405,1.3405,1.3405,1.3405,1.3371,1.4067,1.5064,1.473,1.5519,1.6667,1.6067,1.6025,1.6197,1.5906,1.5799,1.5799,1.5799,1.5799,1.5799,1.5799,1.5799,1.5799,1.5799,1.675,1.7706,1.7706,1.8259,1.8957,1.9573,1.97,1.97,1.97,1.97,1.97,1.97,1.97,1.97,1.97,1.9244,1.8715,1.8178,1.7626,1.7271,1.7229,1.7229,1.725,1.7312,1.725,1.7049,1.6674,1.6558,1.6515,1.658,1.6537,1.6494,1.6494,1.6494,1.6494,1.6494,1.6494,1.6494,1.6494,1.6494,1.6494,0.0,0.851,0.0,0.0,0.9738,1.0534,1.1041,1.2274,1.3528,1.4328,1.4356,1.4292,1.4475,1.4356,1.4301,1.4475,1.4503,1.4503,1.4503,1.4503,1.4503,1.4503,1.4503,1.4503,1.4503,1.4503,1.4432,1.4276,1.404,1.3833,1.3677,1.3502,1.3405,1.3405,1.3405,1.3405,1.3405,1.3405,1.3405,1.3405,1.3405,1.3405,1.3405,1.3405,1.3405,1.3405,1.3405,1.3405,1.3405,1.3405,1.3405,1.3379,1.3165,1.3907,1.5064,1.4781,1.5406,1.6388,1.6246,1.6067,1.5899,1.5827,1.5799,1.5799,1.5799,1.5799,1.5799,1.5799,1.5799,1.5799,1.5799,1.675,1.7706,1.7706,1.862,1.9528,1.9678,1.97,1.97,1.97,1.97,1.97,1.97,1.97,1.97,1.97,1.9244,1.8715,1.8178,1.7626,1.7132,1.6716,1.6674,1.6837,1.725,1.6915,1.6972,1.7706,1.6972,1.6695,1.7111,1.6716,1.6494,1.6494,1.6494,1.6494,1.6494,1.6494,1.6494,1.6494,1.6494,1.6494,0.0,0.0,0.0,0.0,0.0,1.0263,1.0775,1.1549,1.2489,1.3673,1.4233,1.4503,1.4503,1.4503,1.4374,1.3985,1.3936,1.3793,1.3416,1.3347,1.349,1.3875,1.3936,1.4077,1.4457,1.4405,1.4307,1.421,1.3918,1.3715,1.3608,1.347,1.3405,1.3405,1.3405,1.3405,1.3405,1.3405,1.3405,1.3405,1.3405,1.3405,1.3405,1.3405,1.3405,1.3405,1.3405,1.3405,1.3405,1.3405,1.332,1.3191,1.305,1.3781,1.4872,1.4571,1.5241,1.6287,1.6116,1.5948,1.5799,1.5799,1.5799,1.5799,1.5799,1.5799,1.5799,1.5799,1.5799,1.5873,1.6159,1.6959,1.7781,1.8102,1.8957,1.97,1.97,1.97,1.97,1.97,1.97,1.97,1.97,1.97,1.97,1.97,1.9244,1.8715,1.8178,1.7626,1.7091,1.6558,1.6494,1.6716,1.725,1.6816,1.6852,1.7666,1.6951,1.6637,1.6915,1.6659,1.6494,1.6494,1.6494,1.6494,1.6494,1.6494,1.6494,1.6494,1.6494,1.6494,0.0,0.0,0.0,0.0,0.952,0.0,1.0531,1.0814,1.132,1.2793,1.3734,1.4337,1.4475,1.4392,1.4068,1.3409,1.3179,1.2858,1.2187,1.2095,1.2348,1.3014,1.3087,1.3352,1.3994,1.402,1.3977,1.391,1.3719,1.3594,1.3571,1.3462,1.3405,1.3405,1.3405,1.3405,1.3405,1.3405,1.3405,1.3405,1.3405,1.3405,1.3405,1.3405,1.3405,1.3405,1.3405,1.3405,1.3405,1.3405,1.3243,1.3004,1.295,1.3614,1.4567,1.4248,1.5009,1.6163,1.5899,1.5799,1.5799,1.5799,1.5799,1.5799,1.5799,1.5799,1.5799,1.5799,1.5799,1.5934,1.654,1.7204,1.7878,1.8545,1.9203,1.97,1.97,1.97,1.97,1.97,1.97,1.97,1.97,1.97,1.97,1.97,1.9244,1.8715,1.8178,1.7626,1.7091,1.6558,1.6494,1.6674,1.7111,1.6752,1.6695,1.7132,1.6752,1.6494,1.6494,1.6494,1.6494,1.6494,1.6494,1.6494,1.6494,1.6494,1.6494,1.6494,1.6494,1.6494,0.0,0.0,0.0,0.0,0.9629,0.9724,0.0,1.0445,1.1159,1.2067,1.2898,1.3669,1.4365,1.393,1.3427,1.3317,1.272,1.2214,1.2122,1.2095,1.2141,1.2256,1.2265,1.2262,1.2252,1.2798,1.3041,1.2753,1.3274,1.3556,1.3429,1.3413,1.3405,1.3405,1.3405,1.3405,1.3405,1.3405,1.3405,1.3405,1.3405,1.3405,1.3405,1.3405,1.3405,1.3405,1.3405,1.3405,1.3405,1.3405,1.3243,1.2978,1.2742,1.331,1.4224,1.3958,1.4713,1.5856,1.582,1.5799,1.5799,1.5799,1.5799,1.5799,1.5799,1.5799,1.5799,1.5799,1.5799,1.5934,1.654,1.7204,1.7878,1.8545,1.9203,1.97,1.97,1.97,1.97,1.97,1.97,1.97,1.97,1.97,1.97,1.97,1.9244,1.8715,1.8178,1.7626,1.7091,1.6558,1.6494,1.6537,1.6595,1.6537,1.6537,1.6595,1.6537,1.6494,1.6494,1.6494,1.6494,1.6494,1.6494,1.6494,1.6494,1.6494,1.6494,1.6494,1.6494,1.6494,0.7369,0.0,0.0,0.0,0.9708,0.9716,0.9787,1.0017,1.0461,1.1264,1.1705,1.2343,1.3605,1.3174,1.2476,1.2031,1.1659,1.1264,1.0824,1.0764,1.0925,1.1375,1.143,1.1543,1.1872,1.2088,1.2117,1.1897,1.2499,1.2848,1.2795,1.3185,1.3405,1.3405,1.3405,1.3405,1.3405,1.3405,1.3405,1.3405,1.3405,1.3405,1.3405,1.3405,1.3405,1.3405,1.3405,1.3405,1.3405,1.3405,1.3156,1.2761,1.2657,1.3158,1.3962,1.384,1.464,1.5799,1.5799,1.5799,1.5799,1.5799,1.5799,1.5799,1.5799,1.5799,1.5799,1.5799,1.5799,1.6024,1.7011,1.7473,1.796,1.9009,1.9498,1.97,1.97,1.97,1.97,1.97,1.97,1.97,1.97,1.97,1.97,1.97,1.8987,1.8373,1.8138,1.7367,1.6752,1.6537,1.6494,1.6616,1.6915,1.6674,1.6637,1.6936,1.6674,1.6494,1.6494,1.6494,1.6494,1.6494,1.6494,1.6494,1.6494,1.6494,1.6494,1.6494,1.6494,1.6494,0.0,0.0,0.8935,0.9646,0.9773,0.9739,0.9808,0.9769,0.9946,1.0742,1.0737,1.1017,1.243,1.2196,1.1595,1.1003,1.0728,1.0388,0.9781,0.9702,0.9928,1.0521,1.0604,1.0776,1.1242,1.1291,1.1238,1.1114,1.165,1.2077,1.2288,1.2821,1.321,1.3396,1.3405,1.3405,1.3405,1.3405,1.3405,1.3405,1.3405,1.3405,1.3405,1.3405,1.3405,1.3405,1.3405,1.3405,1.3388,1.3329,1.3016,1.2591,1.2524,1.3025,1.3797,1.3797,1.464,1.5799,1.5799,1.5799,1.5799,1.5799,1.5799,1.5799,1.5799,1.5799,1.5799,1.5799,1.5904,1.6286,1.7407,1.7833,1.8244,1.9413,1.97,1.97,1.97,1.97,1.97,1.97,1.97,1.97,1.97,1.97,1.9646,1.9522,1.8696,1.804,1.79,1.707,1.6494,1.6494,1.6494,1.6652,1.7049,1.6738,1.6674,1.707,1.6716,1.6494,1.6494,1.6494,1.6494,1.6494,1.6494,1.6494,1.6494,1.6494,1.6494,1.6494,1.6494,1.6494,0.0,0.7234,0.0,0.9463,0.9838,0.9811,0.9878,0.9847,1.0011,1.0749,1.0287,1.0016,1.0866,1.0994,1.0948,1.0912,1.026,0.9744,0.9711,0.9702,0.972,0.9753,0.9763,0.9723,0.9635,1.0127,1.0405,1.0267,1.0821,1.1501,1.2263,1.2339,1.2685,1.3379,1.3405,1.3405,1.3405,1.3405,1.3405,1.3405,1.3405,1.3405,1.3405,1.3405,1.3405,1.3405,1.3405,1.3405,1.3379,1.3129,1.2843,1.2564,1.2322,1.2871,1.3797,1.3797,1.464,1.5799,1.5799,1.5799,1.5799,1.5799,1.5799,1.5799,1.5799,1.5799,1.5799,1.5799,1.6211,1.6816,1.7511,1.8169,1.8829,1.9518,1.97,1.97,1.97,1.97,1.97,1.97,1.97,1.97,1.97,1.97,1.9522,1.9032,1.8458,1.792,1.7408,1.6852,1.6494,1.6494,1.6494,1.6515,1.6537,1.6515,1.6515,1.6537,1.6515,1.6494,1.6494,1.6494,1.6494,1.6494,1.6494,1.6494,1.6494,1.6494,1.6494,1.6494,1.6494,1.6494,0.0,0.0,0.0,0.8925,0.9374,0.9754,0.9821,0.9783,0.9813,1.0079,0.99,0.979,1.008,1.0135,1.0135,1.0135,0.9891,0.9702,0.9702,0.9702,0.9702,0.9702,0.9702,0.965,0.9513,0.9621,0.9635,0.9499,1.0052,1.0523,1.081,1.1764,1.2415,1.2694,1.3142,1.3405,1.3405,1.3405,1.3405,1.3405,1.3405,1.3405,1.3388,1.3225,1.3138,1.3129,1.2961,1.2979,1.3121,1.2852,1.2598,1.2324,1.2238,1.286,1.3797,1.3797,1.464,1.5799,1.5799,1.5799,1.5799,1.5799,1.5799,1.5799,1.5799,1.5799,1.5799,1.5799,1.6234,1.6845,1.7525,1.8199,1.8874,1.9543,1.97,1.97,1.97,1.97,1.97,1.97,1.97,1.97,1.97,1.9406,1.9125,1.893,1.8158,1.7531,1.7333,1.6837,1.6494,1.6494,1.6494,1.6494,1.6494,1.6494,1.6494,1.6494,1.6494,1.6494,1.6494,1.6494,1.6494,1.6494,1.6494,1.6494,1.6494,1.6494,1.6494,1.6494,1.6494,1.6494,0.5986,0.0,0.0,0.0,0.8921,0.9408,0.9729,0.9772,0.9727,0.9706,0.9702,0.9702,0.9702,0.9702,0.9702,0.9702,0.9702,0.9702,0.9702,0.9702,0.9702,0.9702,0.9662,0.9592,0.9513,0.9336,0.9198,0.9107,0.9432,0.9737,0.9984,1.0971,1.1773,1.228,1.3015,1.3405,1.3405,1.3405,1.3405,1.3405,1.3311,1.3269,1.326,1.2988,1.2878,1.2851,1.258,1.2618,1.2842,1.258,1.2354,1.2187,1.2105,1.278,1.3797,1.3797,1.464,1.5799,1.5799,1.5799,1.5799,1.5799,1.5799,1.5799,1.5799,1.5799,1.5844,1.6054,1.6548,1.7189,1.7863,1.8521,1.9144,1.9577,1.97,1.97,1.97,1.97,1.97,1.97,1.97,1.97,1.97,1.9269,1.8829,1.865,1.786,1.7229,1.7055,1.6716,1.6494,1.6494,1.6494,1.6494,1.6494,1.6494,1.6494,1.6494,1.6494,1.6494,1.6494,1.6494,1.6494,1.6494,1.6494,1.6494,1.6494,1.6494,1.6494,1.6494,1.6494,1.6494,0.0,0.0,0.0,0.0,0.8525,0.8804,0.9584,0.9782,0.9776,0.9708,0.9702,0.9702,0.9702,0.9702,0.9702,0.9702,0.9702,0.9702,0.9702,0.9702,0.9702,0.9702,0.958,0.9504,0.9504,0.9256,0.9102,0.9102,0.8979,0.9207,0.9925,0.9984,1.0709,1.2246,1.299,1.3379,1.3405,1.3388,1.3396,1.3379,1.3121,1.2987,1.2978,1.2714,1.2591,1.2572,1.2294,1.2342,1.2562,1.2302,1.2187,1.2167,1.1905,1.2628,1.3797,1.3797,1.464,1.5799,1.5799,1.5799,1.5799,1.5799,1.5799,1.5799,1.5799,1.5799,1.5926,1.6532,1.7182,1.7863,1.856,1.9203,1.97,1.97,1.97,1.97,1.97,1.97,1.97,1.97,1.97,1.97,1.97,1.9244,1.8696,1.8178,1.7626,1.7091,1.658,1.6494,1.6494,1.6494,1.6494,1.6494,1.6494,1.6494,1.6494,1.6494,1.6494,1.6494,1.6494,1.6494,1.6494,1.6494,1.6494,1.6494,1.6494,1.6494,1.6494,1.6494,1.6494,1.6494,0.6736,0.0,0.0,0.0,0.0,0.0,0.8795,0.9312,0.9723,0.9706,0.9702,0.9702,0.9702,0.9702,0.9702,0.9702,0.9702,0.9702,0.9702,0.9702,0.9702,0.9702,0.958,0.9504,0.9504,0.9256,0.9102,0.9102,0.8979,0.899,0.9196,0.9711,1.0709,1.2246,1.25,1.2863,1.3396,1.3208,1.3112,1.3112,1.2834,1.2714,1.2704,1.2433,1.2312,1.2302,1.2031,1.195,1.2016,1.194,1.1915,1.1905,1.183,1.2628,1.3797,1.3797,1.464,1.5799,1.5799,1.5799,1.5799,1.5799,1.5799,1.5799,1.5799,1.5799,1.5926,1.6532,1.7182,1.7968,1.9121,1.9565,1.97,1.97,1.97,1.97,1.97,1.97,1.97,1.97,1.97,1.97,1.97,1.893,1.8276,1.8119,1.7312,1.6674,1.6515,1.6494,1.6494,1.6494,1.6494,1.6494,1.6494,1.6494,1.6494,1.6494,1.6494,1.6494,1.6494,1.6494,1.6494,1.6494,1.6494,1.6494,1.6494,1.6494,1.6494,1.6494,1.6494,1.6494,0.0,0.0,0.0,0.7653,0.0,0.0,0.884,0.9329,0.9702,0.9702,0.9702,0.9713,0.9741,0.9716,0.9713,0.9732,0.9716,0.9702,0.9702,0.9702,0.9674,0.9621,0.95,0.9394,0.9345,0.9143,0.9013,0.9013,0.8946,0.8897,0.8897,0.9599,1.0406,1.1309,1.1637,1.2169,1.2931,1.2681,1.27,1.3004,1.2609,1.2426,1.2416,1.2159,1.2031,1.2013,1.1873,1.1797,1.1797,1.1797,1.1797,1.1797,1.1797,1.2628,1.3797,1.3797,1.464,1.5799,1.5799,1.5799,1.5799,1.5799,1.5799,1.5799,1.5799,1.5799,1.5926,1.6532,1.7384,1.8356,1.9413,1.97,1.97,1.97,1.97,1.97,1.97,1.97,1.97,1.97,1.97,1.97,1.97,1.881,1.8099,1.8099,1.7188,1.6494,1.6494,1.6494,1.6494,1.6494,1.6494,1.6494,1.6494,1.6494,1.6494,1.6494,1.6494,1.6494,1.6494,1.6494,1.6494,1.6494,1.6494,1.6494,1.6494,1.6494,1.6494,1.6494,1.6494,1.6494,0.7465,0.7797,0.0,0.8101,0.8273,0.0,0.9232,0.9541,0.9698,0.9678,0.9691,0.9716,0.9776,0.9736,0.9719,0.978,0.9736,0.9702,0.9702,0.9702,0.9658,0.9534,0.939,0.9256,0.9138,0.8981,0.8897,0.8897,0.8897,0.8897,0.8897,0.9523,0.9914,0.9992,1.0724,1.1469,1.2249,1.2066,1.2294,1.2914,1.2392,1.2156,1.2146,1.1905,1.1797,1.1797,1.1797,1.1797,1.1797,1.1797,1.1797,1.1797,1.1797,1.2628,1.3797,1.3797,1.464,1.5799,1.5799,1.5799,1.5799,1.5799,1.5799,1.5799,1.5799,1.5799,1.5934,1.6614,1.7712,1.8852,1.9535,1.97,1.97,1.97,1.97,1.9682,1.9621,1.9664,1.9664,1.9548,1.9621,1.9664,1.9541,1.8734,1.8079,1.802,1.7153,1.6494,1.6494,1.6494,1.6494,1.6494,1.6494,1.6494,1.6494,1.6494,1.6494,1.6494,1.6494,1.6494,1.6494,1.6494,1.6494,1.6494,1.6494,1.6494,1.6494,1.6494,1.6494,1.6494,1.6494,1.6494,0.9028,0.8781,0.8385,0.8399,0.8406,0.0,0.8517,0.9142,0.967,0.9564,0.9625,0.9706,0.9716,0.9713,0.9706,0.9716,0.9713,0.9702,0.9702,0.9702,0.9694,0.9662,0.9448,0.9289,0.9265,0.904,0.8897,0.8897,0.8897,0.8897,0.8897,0.9035,0.9385,0.9975,1.0724,1.1379,1.1967,1.2293,1.2435,1.2352,1.2024,1.1883,1.1873,1.1819,1.1797,1.1797,1.1797,1.1797,1.1797,1.1797,1.1797,1.1797,1.1797,1.2628,1.3797,1.3797,1.464,1.5799,1.5799,1.5799,1.5799,1.5799,1.5799,1.5799,1.5799,1.5799,1.6039,1.7183,1.808,1.8852,1.9535,1.97,1.97,1.97,1.97,1.9584,1.9151,1.9406,1.9442,1.8574,1.9106,1.9424,1.8554,1.8237,1.794,1.7531,1.6915,1.6494,1.6494,1.6494,1.6494,1.6494,1.6494,1.6494,1.6494,1.6494,1.6494,1.6494,1.6494,1.6494,1.6494,1.6494,1.6494,1.6494,1.6494,1.6494,1.6494,1.6494,1.6494,1.6494,1.6494,1.6494,0.94,0.9227,0.8946,0.8909,0.8973,0.0,0.0,0.9261,0.958,0.9517,0.9504,0.9529,0.9629,0.9619,0.9628,0.9736,0.9719,0.9702,0.9702,0.9702,0.9674,0.9609,0.9417,0.9275,0.9207,0.9019,0.8897,0.8897,0.8897,0.8897,0.8897,0.8897,0.9069,0.9444,1.0174,1.0854,1.1497,1.1869,1.217,1.2394,1.1992,1.1797,1.1797,1.1797,1.1797,1.1797,1.1797,1.1797,1.1797,1.1797,1.1797,1.1797,1.1797,1.2422,1.3338,1.3683,1.4438,1.5342,1.5686,1.5799,1.5799,1.5799,1.5799,1.5799,1.5799,1.5799,1.6061,1.734,1.7945,1.8423,1.9446,1.97,1.9628,1.9369,1.9306,1.9151,1.8612,1.893,1.8987,1.79,1.8574,1.905,1.8237,1.788,1.7605,1.7347,1.6837,1.6494,1.6494,1.6494,1.6494,1.6494,1.6494,1.6494,1.6494,1.6494,1.6494,1.6494,1.6494,1.6494,1.6494,1.6494,1.6494,1.6494,1.6494,1.6352,1.6051,1.6051,1.6216,1.6494,1.6194,1.6051,0.9376,0.9439,0.9513,0.9403,0.9538,0.9666,0.0,0.0,0.0,0.9469,0.9394,0.9386,0.9512,0.9502,0.9525,0.9708,0.9693,0.967,0.9698,0.9702,0.9662,0.9546,0.9394,0.9256,0.9153,0.8992,0.8897,0.8897,0.8897,0.8897,0.8897,0.8897,0.8894,0.886,0.9739,1.0435,1.0899,1.1439,1.1956,1.2437,1.2006,1.1797,1.1797,1.1797,1.1797,1.1797,1.1797,1.1797,1.1797,1.1797,1.1797,1.1797,1.1797,1.2295,1.3059,1.3608,1.4303,1.5073,1.5611,1.5799,1.5799,1.5799,1.5799,1.5799,1.5799,1.5733,1.5936,1.7197,1.7495,1.7733,1.9048,1.9387,1.9288,1.8848,1.8753,1.8593,1.8059,1.8373,1.8438,1.7347,1.792,1.8419,1.788,1.7531,1.725,1.7153,1.6774,1.6494,1.6494,1.6494,1.6494,1.6494,1.6494,1.6494,1.6494,1.6494,1.6494,1.6494,1.6494,1.6494,1.6494,1.6494,1.6494,1.6494,1.6494,1.6194,1.561,1.561,1.5798,1.6135,1.566,1.5432,0.9517,0.9576,0.967,0.9658,0.9674,0.9666,0.953,0.0,0.9613,0.9372,0.0,0.9452,0.9354,0.0,0.0,0.9512,0.953,0.9568,0.9678,0.9702,0.9694,0.9674,0.9456,0.9294,0.928,0.905,0.8897,0.8897,0.8897,0.8897,0.8897,0.8897,0.8843,0.8721,1.0185,1.0729,1.0224,1.1716,1.2278,1.1886,1.183,1.1797,1.1797,1.1797,1.1797,1.1797,1.1797,1.1797,1.1797,1.1797,1.1797,1.1797,1.1797,1.2568,1.3692,1.3767,1.4595,1.5701,1.5776,1.5799,1.5799,1.5799,1.5799,1.5799,1.5799,1.5514,1.5424,1.6654,1.6725,1.6742,1.7962,1.8276,1.8276,1.8217,1.8197,1.804,1.751,1.78,1.786,1.6795,1.707,1.7312,1.6774,1.7034,1.7132,1.6652,1.6537,1.6494,1.6494,1.6494,1.6494,1.6494,1.6494,1.6494,1.6494,1.6494,1.6494,1.6494,1.6494,1.6494,1.6494,1.6494,1.6494,1.6494,1.6494,1.6194,1.561,1.561,1.5365,1.4903,1.4835,1.4789,0.9399,0.9421,0.9508,0.9662,0.9702,0.9691,0.9629,0.9596,0.953,0.9336,0.0,0.0,0.0,0.0,0.0,0.0,0.9504,0.9376,0.8997,0.9249,0.95,0.9576,0.9412,0.9241,0.9087,0.8968,0.8897,0.8897,0.8897,0.8897,0.8897,0.8821,0.8762,0.8705,1.0034,1.0621,1.0333,1.1692,1.2253,1.2031,1.1873,1.1797,1.1797,1.1797,1.1797,1.1797,1.1797,1.1797,1.1797,1.1797,1.1797,1.1797,1.1797,1.2373,1.3276,1.3668,1.4401,1.5275,1.5671,1.5799,1.5799,1.5799,1.5799,1.5755,1.5485,1.5262,1.5301,1.6275,1.6427,1.658,1.7788,1.8099,1.802,1.7706,1.7646,1.749,1.6951,1.725,1.7408,1.6659,1.6936,1.7132,1.6595,1.6695,1.6752,1.6537,1.6494,1.6494,1.6494,1.6494,1.6494,1.6494,1.6494,1.6494,1.6494,1.6494,1.6494,1.6494,1.6494,1.6494,1.6494,1.6494,1.6494,1.6494,1.6494,1.6036,1.5079,1.5079,1.4583,1.3658,1.4014,1.4172,0.9308,0.9322,0.9408,0.9637,0.9702,0.9702,0.9702,0.9795,0.9779,0.943,0.9419,0.0,0.0,0.0,0.9298,0.9469,0.0,0.9267,0.8776,0.905,0.9264,0.9151,0.9202,0.9158,0.8919,0.8897,0.8889,0.8849,0.8843,0.8821,0.8766,0.8677,0.8677,0.8807,0.9908,1.0527,1.0575,1.166,1.2167,1.2094,1.1894,1.1797,1.1797,1.1797,1.1797,1.1797,1.1797,1.1797,1.1797,1.1797,1.1797,1.182,1.1992,1.2482,1.3133,1.3623,1.4341,1.514,1.5634,1.5799,1.5799,1.5799,1.5799,1.5733,1.5404,1.5134,1.5122,1.5993,1.6089,1.6221,1.7534,1.788,1.782,1.7585,1.7531,1.7408,1.7013,1.7132,1.7174,1.6795,1.6915,1.6951,1.658,1.6494,1.6494,1.6494,1.6494,1.6494,1.6494,1.6494,1.6494,1.6494,1.6494,1.6494,1.6494,1.6494,1.6494,1.6494,1.6494,1.6494,1.6494,1.6494,1.6423,1.6259,1.6259,1.5672,1.4445,1.4445,1.3931,1.2905,1.3353,1.3552,0.9331,0.9394,0.9525,0.9666,0.9702,0.9702,0.9702,1.0301,1.0597,0.9684,1.0012,1.0222,0.9436,0.9193,0.9198,0.0,0.939,0.0,0.0,0.9368,0.9033,0.8325,0.875,0.905,0.8913,0.8897,0.8843,0.8717,0.8705,0.8624,0.8427,0.8414,0.8618,0.9073,1.001,1.0597,1.079,1.1729,1.2073,1.1808,1.1797,1.1797,1.1797,1.1797,1.1797,1.1797,1.1797,1.1797,1.1797,1.1797,1.1797,1.1857,1.2505,1.3186,1.3767,1.379,1.4646,1.5776,1.5791,1.5799,1.5799,1.5799,1.5799,1.5799,1.5784,1.5195,1.4734,1.5801,1.5553,1.5305,1.6914,1.7333,1.7449,1.794,1.8059,1.8059,1.804,1.7646,1.7291,1.7271,1.6873,1.6515,1.6494,1.6494,1.6494,1.6494,1.6494,1.6494,1.6494,1.6494,1.6494,1.6494,1.6494,1.6494,1.6494,1.6494,1.6494,1.6494,1.6494,1.6494,1.6494,1.6494,1.6238,1.5632,1.5632,1.5039,1.3821,1.3821,1.351,1.2905,1.2925,1.2929,1.0998,1.0962,1.0831,1.0562,1.0494,1.0331,0.9711,1.0164,1.0447,0.9546,0.9933,1.0198,0.9444,0.9331,0.0,0.0,0.0,0.9139,0.0,0.833,0.8212,0.8493,0.8709,0.8664,0.8212,0.8533,0.8531,0.795,0.8272,0.8473,0.8401,0.8273,0.8479,0.9081,0.9756,1.0332,1.0798,1.1552,1.1894,1.1797,1.1797,1.1797,1.1797,1.1797,1.1797,1.1797,1.1797,1.1797,1.1797,1.1797,1.1797,1.1865,1.2534,1.3216,1.3849,1.4303,1.5028,1.5799,1.5799,1.5799,1.5799,1.5799,1.5595,1.5337,1.5337,1.4752,1.4339,1.5405,1.5323,1.5181,1.6445,1.6774,1.6915,1.7449,1.7565,1.7666,1.802,1.7686,1.7312,1.7312,1.6873,1.6494,1.6494,1.6494,1.6494,1.6494,1.6494,1.6494,1.6494,1.6494,1.6494,1.6494,1.6494,1.6494,1.6494,1.6494,1.6494,1.6494,1.6494,1.6494,1.6494,1.6123,1.5814,1.561,1.5214,1.4601,1.3797,1.3797,1.3486,1.2905,1.2905,1.2905,1.1862,1.1814,1.165,1.1388,1.1329,1.1082,1.0146,1.0548,1.0877,0.9976,1.0182,1.0458,1.0315,0.9857,0.9595,0.0,0.0,0.0,0.0,0.7994,0.7931,0.8522,0.8655,0.8544,0.8153,0.8254,0.8135,0.7646,0.7745,0.7915,0.8105,0.7995,0.8371,0.9352,0.9719,1.0301,1.1151,1.1588,1.1797,1.1797,1.1797,1.1797,1.1797,1.1797,1.1797,1.1797,1.1797,1.1797,1.1797,1.1797,1.1797,1.1887,1.2792,1.3421,1.3872,1.4543,1.5215,1.5799,1.5799,1.5799,1.5799,1.5799,1.5485,1.5104,1.5104,1.4549,1.4122,1.5194,1.5216,1.52,1.6466,1.6774,1.6972,1.7706,1.786,1.796,1.8315,1.796,1.7524,1.7347,1.6873,1.6494,1.6494,1.6494,1.6494,1.6494,1.6494,1.6494,1.6494,1.6494,1.6494,1.6494,1.6494,1.6494,1.6494,1.6494,1.6494,1.6494,1.6309,1.6188,1.6188,1.5594,1.5186,1.4949,1.4578,1.4079,1.3486,1.3486,1.3281,1.2905,1.2905,1.2905]}]]